<?xml version='1.0' encoding='UTF-8'?><gpx version="1.1" creator="JPX - https://github.com/jenetics/jpx" xmlns="http://www.topografix.com/GPX/1/1"><trk><trkseg><trkpt lat="41.76337429883664" lon="12.227940896110788"><ele>2.9999999999999996</ele><time>2026-03-29T08:45:38.998Z</time></trkpt><trkpt lat="41.76333089216983" lon="12.22787378027258"><ele>3.0</ele><time>2026-03-29T08:45:44.998Z</time></trkpt><trkpt lat="41.76330408049737" lon="12.227785915829005"><ele>3.0</ele><time>2026-03-29T08:45:47.998Z</time></trkpt><trkpt lat="41.763275900181526" lon="12.227677251208634"><ele>3.0</ele><time>2026-03-29T08:45:50.998Z</time></trkpt><trkpt lat="41.76325313809379" lon="12.227594288959253"><ele>3.0</ele><time>2026-03-29T08:45:52.998Z</time></trkpt><trkpt lat="41.763231161066315" lon="12.22750471144563"><ele>2.9999999999999996</ele><time>2026-03-29T08:45:54.998Z</time></trkpt><trkpt lat="41.76320343500895" lon="12.227413948674073"><ele>3.0</ele><time>2026-03-29T08:45:56.998Z</time></trkpt><trkpt lat="41.763187395992794" lon="12.227331307402096"><ele>2.8333333333333335</ele><time>2026-03-29T08:45:58.998Z</time></trkpt><trkpt lat="41.763160801689814" lon="12.227214081130127"><ele>2.6666666666666665</ele><time>2026-03-29T08:46:01.998Z</time></trkpt><trkpt lat="41.76311695306891" lon="12.227113851535522"><ele>2.5</ele><time>2026-03-29T08:46:04.998Z</time></trkpt><trkpt lat="41.76308595973563" lon="12.227030786585233"><ele>2.333333333333333</ele><time>2026-03-29T08:46:06.998Z</time></trkpt><trkpt lat="41.763058984363425" lon="12.226937591924232"><ele>2.1666666666666665</ele><time>2026-03-29T08:46:08.998Z</time></trkpt><trkpt lat="41.76302697136037" lon="12.226843136169274"><ele>2.0</ele><time>2026-03-29T08:46:10.999Z</time></trkpt><trkpt lat="41.762995597338346" lon="12.226742473967397"><ele>2.0</ele><time>2026-03-29T08:46:12.999Z</time></trkpt><trkpt lat="41.76296965210756" lon="12.226637376441142"><ele>1.9999999999999998</ele><time>2026-03-29T08:46:15Z</time></trkpt><trkpt lat="41.76294887441732" lon="12.226541811313146"><ele>2.0</ele><time>2026-03-29T08:46:17Z</time></trkpt><trkpt lat="41.762917055950844" lon="12.22645417453501"><ele>2.0</ele><time>2026-03-29T08:46:19Z</time></trkpt><trkpt lat="41.76288031014263" lon="12.226379055983049"><ele>1.9999999999999998</ele><time>2026-03-29T08:46:21Z</time></trkpt><trkpt lat="41.762855564943955" lon="12.226285828677662"><ele>2.0</ele><time>2026-03-29T08:46:23Z</time></trkpt><trkpt lat="41.762831055215216" lon="12.226192991821502"><ele>2.0</ele><time>2026-03-29T08:46:25Z</time></trkpt><trkpt lat="41.76280864449198" lon="12.22610364792667"><ele>1.8</ele><time>2026-03-29T08:46:27Z</time></trkpt><trkpt lat="41.76276884193662" lon="12.225991729872955"><ele>1.6</ele><time>2026-03-29T08:46:29Z</time></trkpt><trkpt lat="41.76273125224923" lon="12.225864381478708"><ele>1.4000000000000001</ele><time>2026-03-29T08:46:31Z</time></trkpt><trkpt lat="41.76268850667511" lon="12.225727068236317"><ele>1.2000000000000002</ele><time>2026-03-29T08:46:33Z</time></trkpt><trkpt lat="41.76265475036051" lon="12.225595485204403"><ele>1.0</ele><time>2026-03-29T08:46:35Z</time></trkpt><trkpt lat="41.76262246258148" lon="12.225470246958041"><ele>0.9999999999999999</ele><time>2026-03-29T08:46:37Z</time></trkpt><trkpt lat="41.762594141406254" lon="12.225363078542616"><ele>1.0</ele><time>2026-03-29T08:46:39Z</time></trkpt><trkpt lat="41.76258071851996" lon="12.225241461191771"><ele>1.0</ele><time>2026-03-29T08:46:42Z</time></trkpt><trkpt lat="41.76262855533587" lon="12.225156924231372"><ele>1.0</ele><time>2026-03-29T08:46:45Z</time></trkpt><trkpt lat="41.76256659809218" lon="12.22510489441518"><ele>0.9999999999999999</ele><time>2026-03-29T08:46:49Z</time></trkpt><trkpt lat="41.76249331129146" lon="12.225156159618143"><ele>1.0</ele><time>2026-03-29T08:46:52Z</time></trkpt><trkpt lat="41.76240874124466" lon="12.225203442370985"><ele>1.0</ele><time>2026-03-29T08:46:54.999Z</time></trkpt><trkpt lat="41.762347880223004" lon="12.225241023732417"><ele>0.9999999999999999</ele><time>2026-03-29T08:46:56.999Z</time></trkpt><trkpt lat="41.762279408611064" lon="12.225275452998687"><ele>1.0</ele><time>2026-03-29T08:46:58.999Z</time></trkpt><trkpt lat="41.76221373241071" lon="12.22531085054357"><ele>1.0</ele><time>2026-03-29T08:47:00.999Z</time></trkpt><trkpt lat="41.762153848151605" lon="12.225343584528053"><ele>0.9999999999999999</ele><time>2026-03-29T08:47:02.999Z</time></trkpt><trkpt lat="41.762090857254556" lon="12.225374907277388"><ele>1.0</ele><time>2026-03-29T08:47:04.999Z</time></trkpt><trkpt lat="41.762022153382816" lon="12.225407562724095"><ele>1.0</ele><time>2026-03-29T08:47:06.999Z</time></trkpt><trkpt lat="41.76195150528182" lon="12.225444908983723"><ele>0.9999999999999999</ele><time>2026-03-29T08:47:08.999Z</time></trkpt><trkpt lat="41.761880449399456" lon="12.225486444934186"><ele>1.0</ele><time>2026-03-29T08:47:10.999Z</time></trkpt><trkpt lat="41.761808348571705" lon="12.225531010348767"><ele>1.0</ele><time>2026-03-29T08:47:12.999Z</time></trkpt><trkpt lat="41.761731515866124" lon="12.225577208360477"><ele>1.0</ele><time>2026-03-29T08:47:14.999Z</time></trkpt><trkpt lat="41.76164569074805" lon="12.225618472061933"><ele>0.9999999999999999</ele><time>2026-03-29T08:47:16.999Z</time></trkpt><trkpt lat="41.7615695123495" lon="12.225631634616912"><ele>1.0</ele><time>2026-03-29T08:47:18.999Z</time></trkpt><trkpt lat="41.7614982356481" lon="12.225669124800973"><ele>0.8333333333333333</ele><time>2026-03-29T08:47:20.999Z</time></trkpt><trkpt lat="41.76142749072353" lon="12.225715519119452"><ele>0.6666666666666666</ele><time>2026-03-29T08:47:22.999Z</time></trkpt><trkpt lat="41.76134849734812" lon="12.225756658052585"><ele>0.5</ele><time>2026-03-29T08:47:24.999Z</time></trkpt><trkpt lat="41.7612691672299" lon="12.225816642038886"><ele>0.3333333333333333</ele><time>2026-03-29T08:47:26.999Z</time></trkpt><trkpt lat="41.76118122614795" lon="12.225868495338437"><ele>0.16666666666666666</ele><time>2026-03-29T08:47:28.999Z</time></trkpt><trkpt lat="41.76109446591216" lon="12.225917014243615"><ele>0.0</ele><time>2026-03-29T08:47:30.999Z</time></trkpt><trkpt lat="41.76101353327765" lon="12.225964383199718"><ele>0.0</ele><time>2026-03-29T08:47:32.999Z</time></trkpt><trkpt lat="41.760935523884456" lon="12.226006245338658"><ele>0.0</ele><time>2026-03-29T08:47:34.999Z</time></trkpt><trkpt lat="41.760862712774944" lon="12.22603981129286"><ele>0.0</ele><time>2026-03-29T08:47:36.999Z</time></trkpt><trkpt lat="41.76079785074751" lon="12.22608324300175"><ele>0.0</ele><time>2026-03-29T08:47:38.999Z</time></trkpt><trkpt lat="41.760733559044674" lon="12.226121316245573"><ele>0.0</ele><time>2026-03-29T08:47:40.999Z</time></trkpt><trkpt lat="41.76065913772536" lon="12.226162910575098"><ele>0.0</ele><time>2026-03-29T08:47:42.999Z</time></trkpt><trkpt lat="41.760584576040195" lon="12.226206089733356"><ele>0.0</ele><time>2026-03-29T08:47:44.999Z</time></trkpt><trkpt lat="41.760508712176104" lon="12.226245307240088"><ele>0.0</ele><time>2026-03-29T08:47:46.999Z</time></trkpt><trkpt lat="41.76043690181243" lon="12.226279114231934"><ele>0.0</ele><time>2026-03-29T08:47:48.999Z</time></trkpt><trkpt lat="41.76036512176597" lon="12.226315245191312"><ele>0.0</ele><time>2026-03-29T08:47:50.999Z</time></trkpt><trkpt lat="41.76029513936954" lon="12.226344484829212"><ele>0.0</ele><time>2026-03-29T08:47:52.998Z</time></trkpt><trkpt lat="41.760230385793186" lon="12.22637526110678"><ele>0.0</ele><time>2026-03-29T08:47:54.998Z</time></trkpt><trkpt lat="41.760163240970975" lon="12.226413028136934"><ele>0.0</ele><time>2026-03-29T08:47:56.998Z</time></trkpt><trkpt lat="41.760089385753545" lon="12.226443802313824"><ele>0.16666666666666666</ele><time>2026-03-29T08:47:58.998Z</time></trkpt><trkpt lat="41.760011672140244" lon="12.226485510625764"><ele>0.3333333333333333</ele><time>2026-03-29T08:48:00.998Z</time></trkpt><trkpt lat="41.759936944681414" lon="12.22652056689973"><ele>0.5</ele><time>2026-03-29T08:48:02.998Z</time></trkpt><trkpt lat="41.7598647438174" lon="12.226549817562743"><ele>0.6666666666666666</ele><time>2026-03-29T08:48:04.998Z</time></trkpt><trkpt lat="41.75978832030477" lon="12.226568702139312"><ele>0.8333333333333333</ele><time>2026-03-29T08:48:06.998Z</time></trkpt><trkpt lat="41.759712816630675" lon="12.22659015951043"><ele>1.0</ele><time>2026-03-29T08:48:08.998Z</time></trkpt><trkpt lat="41.75963965905697" lon="12.22662238693668"><ele>1.0</ele><time>2026-03-29T08:48:10.998Z</time></trkpt><trkpt lat="41.75956538804244" lon="12.226656435936889"><ele>1.0</ele><time>2026-03-29T08:48:12.998Z</time></trkpt><trkpt lat="41.759491339613845" lon="12.226712870616172"><ele>1.0</ele><time>2026-03-29T08:48:14.998Z</time></trkpt><trkpt lat="41.75937267588059" lon="12.22678174497348"><ele>1.0</ele><time>2026-03-29T08:48:18.001Z</time></trkpt><trkpt lat="41.75928788562825" lon="12.226818560036005"><ele>1.0</ele><time>2026-03-29T08:48:20.001Z</time></trkpt><trkpt lat="41.759197178421275" lon="12.22685831905728"><ele>1.0</ele><time>2026-03-29T08:48:22.001Z</time></trkpt><trkpt lat="41.7591057514091" lon="12.22689823566668"><ele>1.0</ele><time>2026-03-29T08:48:24.001Z</time></trkpt><trkpt lat="41.75901472783687" lon="12.226932296593253"><ele>1.0</ele><time>2026-03-29T08:48:26.001Z</time></trkpt><trkpt lat="41.7589346637516" lon="12.22697893953328"><ele>1.0</ele><time>2026-03-29T08:48:28.001Z</time></trkpt><trkpt lat="41.75884322407818" lon="12.227028356024187"><ele>1.0</ele><time>2026-03-29T08:48:30.001Z</time></trkpt><trkpt lat="41.75874812929381" lon="12.227071681056643"><ele>1.0</ele><time>2026-03-29T08:48:32.001Z</time></trkpt><trkpt lat="41.75865448704096" lon="12.227116081665212"><ele>1.0</ele><time>2026-03-29T08:48:34Z</time></trkpt><trkpt lat="41.7585562839415" lon="12.227161311133644"><ele>1.0</ele><time>2026-03-29T08:48:36Z</time></trkpt><trkpt lat="41.758460076675064" lon="12.227210836523202"><ele>1.0</ele><time>2026-03-29T08:48:38Z</time></trkpt><trkpt lat="41.758363961683834" lon="12.227256031467762"><ele>1.0</ele><time>2026-03-29T08:48:40Z</time></trkpt><trkpt lat="41.758267377281435" lon="12.227302333472586"><ele>0.8</ele><time>2026-03-29T08:48:42Z</time></trkpt><trkpt lat="41.75817845468713" lon="12.227350372858092"><ele>0.6000000000000001</ele><time>2026-03-29T08:48:44Z</time></trkpt><trkpt lat="41.75808187517692" lon="12.227389024962088"><ele>0.4</ele><time>2026-03-29T08:48:46Z</time></trkpt><trkpt lat="41.75798293050459" lon="12.227419451139541"><ele>0.2</ele><time>2026-03-29T08:48:48Z</time></trkpt><trkpt lat="41.75788180885995" lon="12.227417925015292"><ele>0.0</ele><time>2026-03-29T08:48:50Z</time></trkpt><trkpt lat="41.75778014131753" lon="12.227418509625627"><ele>0.0</ele><time>2026-03-29T08:48:52Z</time></trkpt><trkpt lat="41.75768368201446" lon="12.227465059194921"><ele>0.0</ele><time>2026-03-29T08:48:54Z</time></trkpt><trkpt lat="41.757607455996244" lon="12.227558042175158"><ele>0.0</ele><time>2026-03-29T08:48:56Z</time></trkpt><trkpt lat="41.75752796905957" lon="12.227644110960307"><ele>0.0</ele><time>2026-03-29T08:48:58Z</time></trkpt><trkpt lat="41.75743232579062" lon="12.227703303261142"><ele>0.0</ele><time>2026-03-29T08:49:00Z</time></trkpt><trkpt lat="41.75733366919196" lon="12.227749994305128"><ele>0.0</ele><time>2026-03-29T08:49:02Z</time></trkpt><trkpt lat="41.75723750591428" lon="12.227795251166441"><ele>0.0</ele><time>2026-03-29T08:49:04Z</time></trkpt><trkpt lat="41.75713829788466" lon="12.227838207605316"><ele>0.0</ele><time>2026-03-29T08:49:06Z</time></trkpt><trkpt lat="41.75704214145282" lon="12.227876956469007"><ele>0.0</ele><time>2026-03-29T08:49:08Z</time></trkpt><trkpt lat="41.756942138722394" lon="12.227898393108083"><ele>0.0</ele><time>2026-03-29T08:49:10Z</time></trkpt><trkpt lat="41.75684200131519" lon="12.227946030858778"><ele>0.0</ele><time>2026-03-29T08:49:12Z</time></trkpt><trkpt lat="41.756745904240155" lon="12.227999192966772"><ele>0.0</ele><time>2026-03-29T08:49:13.999Z</time></trkpt><trkpt lat="41.75664867407487" lon="12.228059335128105"><ele>0.0</ele><time>2026-03-29T08:49:15.999Z</time></trkpt><trkpt lat="41.75654891581883" lon="12.228114673592245"><ele>0.0</ele><time>2026-03-29T08:49:17.999Z</time></trkpt><trkpt lat="41.756449711709664" lon="12.228165795749335"><ele>0.0</ele><time>2026-03-29T08:49:19.999Z</time></trkpt><trkpt lat="41.75635084895476" lon="12.228211593587838"><ele>0.4</ele><time>2026-03-29T08:49:21.999Z</time></trkpt><trkpt lat="41.75625152230053" lon="12.228262892538664"><ele>0.8</ele><time>2026-03-29T08:49:23.999Z</time></trkpt><trkpt lat="41.75615116295376" lon="12.228312673061271"><ele>1.2000000000000002</ele><time>2026-03-29T08:49:25.999Z</time></trkpt><trkpt lat="41.75605016406906" lon="12.228359691758275"><ele>1.6</ele><time>2026-03-29T08:49:27.999Z</time></trkpt><trkpt lat="41.75594815939051" lon="12.228408099339404"><ele>2.0</ele><time>2026-03-29T08:49:29.999Z</time></trkpt><trkpt lat="41.75584991019062" lon="12.228458799951882"><ele>2.0</ele><time>2026-03-29T08:49:31.999Z</time></trkpt><trkpt lat="41.75575018429649" lon="12.228502413604732"><ele>2.0</ele><time>2026-03-29T08:49:33.999Z</time></trkpt><trkpt lat="41.755650370532706" lon="12.228550042567992"><ele>2.0</ele><time>2026-03-29T08:49:35.999Z</time></trkpt><trkpt lat="41.755550825819554" lon="12.22860105655434"><ele>2.0</ele><time>2026-03-29T08:49:37.999Z</time></trkpt><trkpt lat="41.755456067536635" lon="12.228647972572915"><ele>2.0</ele><time>2026-03-29T08:49:39.999Z</time></trkpt><trkpt lat="41.75536610667272" lon="12.228691396275256"><ele>2.0</ele><time>2026-03-29T08:49:41.999Z</time></trkpt><trkpt lat="41.75528434640325" lon="12.22873524371263"><ele>2.0</ele><time>2026-03-29T08:49:43.999Z</time></trkpt><trkpt lat="41.75519964666288" lon="12.228771220277485"><ele>2.0</ele><time>2026-03-29T08:49:45.999Z</time></trkpt><trkpt lat="41.75510827319637" lon="12.22881507441046"><ele>2.0</ele><time>2026-03-29T08:49:47.999Z</time></trkpt><trkpt lat="41.755017003587014" lon="12.228852134842317"><ele>2.0</ele><time>2026-03-29T08:49:49.999Z</time></trkpt><trkpt lat="41.754925179172254" lon="12.22889152566299"><ele>2.0</ele><time>2026-03-29T08:49:51.999Z</time></trkpt><trkpt lat="41.75482625822975" lon="12.228921264406829"><ele>2.0</ele><time>2026-03-29T08:49:53.999Z</time></trkpt><trkpt lat="41.75472374618449" lon="12.228949433872053"><ele>2.0</ele><time>2026-03-29T08:49:55.999Z</time></trkpt><trkpt lat="41.75462057096356" lon="12.2289773719916"><ele>2.0</ele><time>2026-03-29T08:49:57.999Z</time></trkpt><trkpt lat="41.75451858796524" lon="12.229007138211845"><ele>2.0</ele><time>2026-03-29T08:49:59.999Z</time></trkpt><trkpt lat="41.7544188472858" lon="12.229030234844137"><ele>1.8333333333333333</ele><time>2026-03-29T08:50:01.999Z</time></trkpt><trkpt lat="41.75432818879307" lon="12.229050846001643"><ele>1.6666666666666665</ele><time>2026-03-29T08:50:03.998Z</time></trkpt><trkpt lat="41.75425830919888" lon="12.229083304518934"><ele>1.5</ele><time>2026-03-29T08:50:05.998Z</time></trkpt><trkpt lat="41.75418957882871" lon="12.229050135649093"><ele>1.3333333333333333</ele><time>2026-03-29T08:50:07.998Z</time></trkpt><trkpt lat="41.754116179921915" lon="12.229033844209571"><ele>1.1666666666666665</ele><time>2026-03-29T08:50:09.998Z</time></trkpt><trkpt lat="41.7540416483852" lon="12.229012721715838"><ele>1.0</ele><time>2026-03-29T08:50:11.998Z</time></trkpt><trkpt lat="41.75396507825845" lon="12.229040397755522"><ele>1.0</ele><time>2026-03-29T08:50:13.998Z</time></trkpt><trkpt lat="41.75389745870206" lon="12.229097975340034"><ele>0.9999999999999999</ele><time>2026-03-29T08:50:15.998Z</time></trkpt><trkpt lat="41.75383806932742" lon="12.22916149844744"><ele>1.0</ele><time>2026-03-29T08:50:17.998Z</time></trkpt><trkpt lat="41.75381561853139" lon="12.229257343002907"><ele>1.0</ele><time>2026-03-29T08:50:19.998Z</time></trkpt><trkpt lat="41.75376455188716" lon="12.229312248751045"><ele>0.9999999999999999</ele><time>2026-03-29T08:50:22.001Z</time></trkpt><trkpt lat="41.7536983348319" lon="12.22932420034175"><ele>1.0</ele><time>2026-03-29T08:50:24.001Z</time></trkpt><trkpt lat="41.753617136971144" lon="12.22928769192534"><ele>1.0</ele><time>2026-03-29T08:50:27.001Z</time></trkpt><trkpt lat="41.75354325092783" lon="12.229272655597734"><ele>0.9999999999999999</ele><time>2026-03-29T08:50:30.001Z</time></trkpt><trkpt lat="41.75346505023896" lon="12.229324316055857"><ele>1.0</ele><time>2026-03-29T08:50:33.001Z</time></trkpt><trkpt lat="41.75342777401436" lon="12.229420232619255"><ele>1.0</ele><time>2026-03-29T08:50:36.001Z</time></trkpt><trkpt lat="41.75346416554842" lon="12.229495746380033"><ele>1.0</ele><time>2026-03-29T08:50:38.001Z</time></trkpt><trkpt lat="41.753425884517455" lon="12.229609073854492"><ele>0.9999999999999999</ele><time>2026-03-29T08:50:41.001Z</time></trkpt><trkpt lat="41.75336424758961" lon="12.229637928499871"><ele>1.0</ele><time>2026-03-29T08:50:43.001Z</time></trkpt><trkpt lat="41.753304930686696" lon="12.229607653406923"><ele>0.9999999999999999</ele><time>2026-03-29T08:50:45Z</time></trkpt><trkpt lat="41.75324178636263" lon="12.229529203960963"><ele>1.0</ele><time>2026-03-29T08:50:48Z</time></trkpt><trkpt lat="41.75316336516392" lon="12.229517812795768"><ele>1.0</ele><time>2026-03-29T08:50:51Z</time></trkpt><trkpt lat="41.75309833794936" lon="12.229490832445208"><ele>1.0</ele><time>2026-03-29T08:50:54Z</time></trkpt><trkpt lat="41.753019296569796" lon="12.229474243475249"><ele>0.9999999999999999</ele><time>2026-03-29T08:50:58Z</time></trkpt><trkpt lat="41.75293425405788" lon="12.229497192187205"><ele>1.0</ele><time>2026-03-29T08:51:03Z</time></trkpt><trkpt lat="41.75287255969479" lon="12.229520893377602"><ele>0.9999999999999999</ele><time>2026-03-29T08:51:07Z</time></trkpt><trkpt lat="41.7527966295512" lon="12.229525187295218"><ele>1.0</ele><time>2026-03-29T08:51:10Z</time></trkpt><trkpt lat="41.75271672664021" lon="12.229558930914903"><ele>1.0</ele><time>2026-03-29T08:51:13Z</time></trkpt><trkpt lat="41.75264603803206" lon="12.229598963406948"><ele>1.0</ele><time>2026-03-29T08:51:16Z</time></trkpt><trkpt lat="41.75257689495852" lon="12.229652314981974"><ele>0.9999999999999999</ele><time>2026-03-29T08:51:19Z</time></trkpt><trkpt lat="41.75251675297285" lon="12.229729410338575"><ele>1.0</ele><time>2026-03-29T08:51:21.999Z</time></trkpt><trkpt lat="41.75246443600812" lon="12.229821723591723"><ele>0.9999999999999999</ele><time>2026-03-29T08:51:24.999Z</time></trkpt><trkpt lat="41.752443998333206" lon="12.22993109546337"><ele>1.0</ele><time>2026-03-29T08:51:27.999Z</time></trkpt><trkpt lat="41.752453370767746" lon="12.230045944864703"><ele>1.0</ele><time>2026-03-29T08:51:30.999Z</time></trkpt><trkpt lat="41.75246225878952" lon="12.23015757204542"><ele>1.0</ele><time>2026-03-29T08:51:33.999Z</time></trkpt><trkpt lat="41.75242192762779" lon="12.230239769272469"><ele>0.9999999999999999</ele><time>2026-03-29T08:51:36.999Z</time></trkpt><trkpt lat="41.752329701752984" lon="12.230234639638486"><ele>1.0</ele><time>2026-03-29T08:51:39.999Z</time></trkpt><trkpt lat="41.75226011627136" lon="12.23023314333695"><ele>0.9999999999999999</ele><time>2026-03-29T08:51:41.999Z</time></trkpt><trkpt lat="41.75218628454449" lon="12.23023212723226"><ele>1.0</ele><time>2026-03-29T08:51:43.999Z</time></trkpt><trkpt lat="41.752106735671994" lon="12.230233572049977"><ele>1.0</ele><time>2026-03-29T08:51:45.999Z</time></trkpt><trkpt lat="41.7520223295122" lon="12.230229424741562"><ele>1.0</ele><time>2026-03-29T08:51:47.999Z</time></trkpt><trkpt lat="41.75193204156969" lon="12.230215458959771"><ele>0.9999999999999999</ele><time>2026-03-29T08:51:49.999Z</time></trkpt><trkpt lat="41.75184231297523" lon="12.230203312130287"><ele>1.0</ele><time>2026-03-29T08:51:51.999Z</time></trkpt><trkpt lat="41.75175659048469" lon="12.230193890803717"><ele>0.8333333333333333</ele><time>2026-03-29T08:51:53.999Z</time></trkpt><trkpt lat="41.75167564986102" lon="12.230186398776478"><ele>0.6666666666666666</ele><time>2026-03-29T08:51:55.999Z</time></trkpt><trkpt lat="41.75160202217179" lon="12.230176776127713"><ele>0.5</ele><time>2026-03-29T08:51:57.999Z</time></trkpt><trkpt lat="41.751533142086224" lon="12.230170873130794"><ele>0.3333333333333333</ele><time>2026-03-29T08:51:59.999Z</time></trkpt><trkpt lat="41.751461270348464" lon="12.230161127690582"><ele>0.16666666666666666</ele><time>2026-03-29T08:52:01.999Z</time></trkpt><trkpt lat="41.751378736445375" lon="12.23015793894873"><ele>0.0</ele><time>2026-03-29T08:52:03.999Z</time></trkpt><trkpt lat="41.75128971808743" lon="12.230160034980704"><ele>0.0</ele><time>2026-03-29T08:52:05.998Z</time></trkpt><trkpt lat="41.75119100820204" lon="12.230148760849746"><ele>0.0</ele><time>2026-03-29T08:52:07.998Z</time></trkpt><trkpt lat="41.751086074608665" lon="12.230151833135144"><ele>0.0</ele><time>2026-03-29T08:52:09.998Z</time></trkpt><trkpt lat="41.75097274779268" lon="12.230136731043016"><ele>0.0</ele><time>2026-03-29T08:52:11.998Z</time></trkpt><trkpt lat="41.7508518874728" lon="12.230124829732073"><ele>0.0</ele><time>2026-03-29T08:52:13.998Z</time></trkpt><trkpt lat="41.75073641060896" lon="12.230116432007712"><ele>0.0</ele><time>2026-03-29T08:52:15.998Z</time></trkpt><trkpt lat="41.75062441034201" lon="12.230109722144206"><ele>0.0</ele><time>2026-03-29T08:52:17.998Z</time></trkpt><trkpt lat="41.750520386189294" lon="12.230093610135132"><ele>0.0</ele><time>2026-03-29T08:52:19.998Z</time></trkpt><trkpt lat="41.75041937678331" lon="12.23008501150312"><ele>0.0</ele><time>2026-03-29T08:52:21.998Z</time></trkpt><trkpt lat="41.75031728379227" lon="12.230077546200732"><ele>0.0</ele><time>2026-03-29T08:52:23.998Z</time></trkpt><trkpt lat="41.750224268246015" lon="12.23007313463856"><ele>0.0</ele><time>2026-03-29T08:52:25.998Z</time></trkpt><trkpt lat="41.7501281124052" lon="12.230064162340101"><ele>0.0</ele><time>2026-03-29T08:52:28.001Z</time></trkpt><trkpt lat="41.75003510896738" lon="12.23006127610926"><ele>0.0</ele><time>2026-03-29T08:52:30.001Z</time></trkpt><trkpt lat="41.74994618407627" lon="12.230054910152328"><ele>0.0</ele><time>2026-03-29T08:52:32.001Z</time></trkpt><trkpt lat="41.74985949010855" lon="12.23005018249304"><ele>0.0</ele><time>2026-03-29T08:52:34.001Z</time></trkpt><trkpt lat="41.74977787187837" lon="12.230048652004253"><ele>0.0</ele><time>2026-03-29T08:52:36.001Z</time></trkpt><trkpt lat="41.74970849317897" lon="12.230042772145104"><ele>0.0</ele><time>2026-03-29T08:52:38.001Z</time></trkpt><trkpt lat="41.74964202774801" lon="12.23003740096512"><ele>0.0</ele><time>2026-03-29T08:52:40.001Z</time></trkpt><trkpt lat="41.749576796666794" lon="12.230036100521202"><ele>0.0</ele><time>2026-03-29T08:52:42.001Z</time></trkpt><trkpt lat="41.749509236457016" lon="12.230024885912393"><ele>0.0</ele><time>2026-03-29T08:52:44.001Z</time></trkpt><trkpt lat="41.749436624415615" lon="12.230018600265545"><ele>0.0</ele><time>2026-03-29T08:52:46.001Z</time></trkpt><trkpt lat="41.74936154891156" lon="12.230004414960542"><ele>0.0</ele><time>2026-03-29T08:52:48Z</time></trkpt><trkpt lat="41.74928516868409" lon="12.229989615092437"><ele>0.0</ele><time>2026-03-29T08:52:50Z</time></trkpt><trkpt lat="41.74920511622451" lon="12.229966533629373"><ele>0.16666666666666666</ele><time>2026-03-29T08:52:52Z</time></trkpt><trkpt lat="41.74912236712491" lon="12.229948012211363"><ele>0.3333333333333333</ele><time>2026-03-29T08:52:54Z</time></trkpt><trkpt lat="41.749041867925825" lon="12.229929368364154"><ele>0.5</ele><time>2026-03-29T08:52:56Z</time></trkpt><trkpt lat="41.74896556535135" lon="12.2299157369858"><ele>0.6666666666666666</ele><time>2026-03-29T08:52:58Z</time></trkpt><trkpt lat="41.74887512657538" lon="12.229893968124989"><ele>0.8333333333333333</ele><time>2026-03-29T08:53:00Z</time></trkpt><trkpt lat="41.74878135512626" lon="12.229867646022365"><ele>1.0</ele><time>2026-03-29T08:53:02Z</time></trkpt><trkpt lat="41.74868431459378" lon="12.229839120440408"><ele>0.8</ele><time>2026-03-29T08:53:04Z</time></trkpt><trkpt lat="41.74858923745773" lon="12.229807000793551"><ele>0.6000000000000001</ele><time>2026-03-29T08:53:06Z</time></trkpt><trkpt lat="41.74848789109165" lon="12.22977431025942"><ele>0.4</ele><time>2026-03-29T08:53:08Z</time></trkpt><trkpt lat="41.74839632762736" lon="12.229747846834409"><ele>0.2</ele><time>2026-03-29T08:53:10Z</time></trkpt><trkpt lat="41.7483103014158" lon="12.229719269568516"><ele>0.0</ele><time>2026-03-29T08:53:12Z</time></trkpt><trkpt lat="41.748229865113885" lon="12.229700866613996"><ele>0.0</ele><time>2026-03-29T08:53:14Z</time></trkpt><trkpt lat="41.748159385454095" lon="12.229692409867393"><ele>0.0</ele><time>2026-03-29T08:53:16Z</time></trkpt><trkpt lat="41.748095075663585" lon="12.229665117020337"><ele>0.0</ele><time>2026-03-29T08:53:18Z</time></trkpt><trkpt lat="41.74800216277704" lon="12.229627020656487"><ele>0.0</ele><time>2026-03-29T08:53:21Z</time></trkpt><trkpt lat="41.74793185964168" lon="12.229595933311554"><ele>0.0</ele><time>2026-03-29T08:53:22.999Z</time></trkpt><trkpt lat="41.74785496135986" lon="12.229573137991586"><ele>0.0</ele><time>2026-03-29T08:53:24.999Z</time></trkpt><trkpt lat="41.747770246389884" lon="12.22955137304428"><ele>0.16666666666666666</ele><time>2026-03-29T08:53:26.999Z</time></trkpt><trkpt lat="41.74768687566672" lon="12.229520486097"><ele>0.3333333333333333</ele><time>2026-03-29T08:53:28.999Z</time></trkpt><trkpt lat="41.74761183391534" lon="12.229488050474608"><ele>0.5</ele><time>2026-03-29T08:53:30.999Z</time></trkpt><trkpt lat="41.747542559276006" lon="12.229458348739518"><ele>0.6666666666666666</ele><time>2026-03-29T08:53:32.999Z</time></trkpt><trkpt lat="41.74747364137989" lon="12.229435123771324"><ele>0.8333333333333333</ele><time>2026-03-29T08:53:34.999Z</time></trkpt><trkpt lat="41.74738542759167" lon="12.22940190965205"><ele>1.0</ele><time>2026-03-29T08:53:36.999Z</time></trkpt><trkpt lat="41.74729344525829" lon="12.229363204699451"><ele>0.9999999999999999</ele><time>2026-03-29T08:53:38.999Z</time></trkpt><trkpt lat="41.747201722181025" lon="12.229332093767567"><ele>1.0</ele><time>2026-03-29T08:53:40.999Z</time></trkpt><trkpt lat="41.74710676816061" lon="12.229301592681507"><ele>1.0</ele><time>2026-03-29T08:53:42.999Z</time></trkpt><trkpt lat="41.74701791591819" lon="12.229269707866694"><ele>1.0</ele><time>2026-03-29T08:53:44.999Z</time></trkpt><trkpt lat="41.74693752787046" lon="12.229242043484865"><ele>0.9999999999999999</ele><time>2026-03-29T08:53:46.999Z</time></trkpt><trkpt lat="41.746870235423714" lon="12.22918914159116"><ele>1.0</ele><time>2026-03-29T08:53:48.999Z</time></trkpt><trkpt lat="41.746773129171174" lon="12.229146902032607"><ele>1.0</ele><time>2026-03-29T08:53:50.999Z</time></trkpt><trkpt lat="41.74666973183444" lon="12.229096246883314"><ele>1.0</ele><time>2026-03-29T08:53:52.999Z</time></trkpt><trkpt lat="41.74656820693456" lon="12.229053286839711"><ele>1.0</ele><time>2026-03-29T08:53:54.999Z</time></trkpt><trkpt lat="41.74646063634203" lon="12.229009485341235"><ele>1.0</ele><time>2026-03-29T08:53:56.999Z</time></trkpt><trkpt lat="41.74634978579856" lon="12.228966552137129"><ele>1.0</ele><time>2026-03-29T08:53:58.999Z</time></trkpt><trkpt lat="41.74623949568784" lon="12.228916175625582"><ele>1.25</ele><time>2026-03-29T08:54:00.999Z</time></trkpt><trkpt lat="41.746127265585464" lon="12.228875253525445"><ele>1.5</ele><time>2026-03-29T08:54:02.999Z</time></trkpt><trkpt lat="41.746018583939566" lon="12.228834214978814"><ele>1.75</ele><time>2026-03-29T08:54:04.998Z</time></trkpt><trkpt lat="41.74590363533911" lon="12.228795923205004"><ele>2.0</ele><time>2026-03-29T08:54:06.998Z</time></trkpt><trkpt lat="41.745793653160185" lon="12.228750022445222"><ele>2.5</ele><time>2026-03-29T08:54:08.998Z</time></trkpt><trkpt lat="41.74568541965413" lon="12.228706503134692"><ele>3.0</ele><time>2026-03-29T08:54:10.998Z</time></trkpt><trkpt lat="41.74557317441675" lon="12.228678393382229"><ele>3.5</ele><time>2026-03-29T08:54:12.998Z</time></trkpt><trkpt lat="41.74545903743761" lon="12.228646844986425"><ele>4.0</ele><time>2026-03-29T08:54:14.998Z</time></trkpt><trkpt lat="41.74534787030655" lon="12.228613013086477"><ele>4.0</ele><time>2026-03-29T08:54:16.998Z</time></trkpt><trkpt lat="41.745232287011135" lon="12.228579083804952"><ele>4.0</ele><time>2026-03-29T08:54:18.998Z</time></trkpt><trkpt lat="41.74512155781289" lon="12.228541154919762"><ele>4.0</ele><time>2026-03-29T08:54:20.998Z</time></trkpt><trkpt lat="41.745017838344104" lon="12.228510399140369"><ele>4.0</ele><time>2026-03-29T08:54:22.998Z</time></trkpt><trkpt lat="41.74491966483761" lon="12.228481473538004"><ele>4.0</ele><time>2026-03-29T08:54:24.998Z</time></trkpt><trkpt lat="41.74481496701188" lon="12.22845963244432"><ele>3.8000000000000003</ele><time>2026-03-29T08:54:26.998Z</time></trkpt><trkpt lat="41.744716062561295" lon="12.228431522603861"><ele>3.6000000000000005</ele><time>2026-03-29T08:54:28.998Z</time></trkpt><trkpt lat="41.744616142438815" lon="12.228403341074504"><ele>3.4</ele><time>2026-03-29T08:54:30.998Z</time></trkpt><trkpt lat="41.74451566939898" lon="12.228375161186737"><ele>3.2</ele><time>2026-03-29T08:54:32.998Z</time></trkpt><trkpt lat="41.74441310518444" lon="12.228343395398559"><ele>3.0</ele><time>2026-03-29T08:54:35.001Z</time></trkpt><trkpt lat="41.744311105089665" lon="12.228313903416668"><ele>3.0</ele><time>2026-03-29T08:54:37.001Z</time></trkpt><trkpt lat="41.744207397385814" lon="12.228291190519192"><ele>3.0</ele><time>2026-03-29T08:54:39.001Z</time></trkpt><trkpt lat="41.74410694512496" lon="12.22827425416708"><ele>3.0</ele><time>2026-03-29T08:54:41.001Z</time></trkpt><trkpt lat="41.74400827695718" lon="12.228230825716297"><ele>3.0</ele><time>2026-03-29T08:54:43.001Z</time></trkpt><trkpt lat="41.74390882947445" lon="12.228199952441166"><ele>3.0</ele><time>2026-03-29T08:54:45.001Z</time></trkpt><trkpt lat="41.74381343721524" lon="12.228180177540853"><ele>3.0</ele><time>2026-03-29T08:54:47.001Z</time></trkpt><trkpt lat="41.743727596769695" lon="12.228149874124233"><ele>3.0</ele><time>2026-03-29T08:54:49.001Z</time></trkpt><trkpt lat="41.743645838026374" lon="12.228105635230676"><ele>3.0</ele><time>2026-03-29T08:54:51.001Z</time></trkpt><trkpt lat="41.743553051570885" lon="12.228032155590904"><ele>3.0</ele><time>2026-03-29T08:54:53Z</time></trkpt><trkpt lat="41.7434684170995" lon="12.227933807475003"><ele>3.0</ele><time>2026-03-29T08:54:55Z</time></trkpt><trkpt lat="41.74340132166362" lon="12.22781806841621"><ele>2.8</ele><time>2026-03-29T08:54:57Z</time></trkpt><trkpt lat="41.74334475767533" lon="12.227700240305126"><ele>2.5999999999999996</ele><time>2026-03-29T08:54:59Z</time></trkpt><trkpt lat="41.74332327359003" lon="12.2275784464301"><ele>2.4000000000000004</ele><time>2026-03-29T08:55:01Z</time></trkpt><trkpt lat="41.74331211663306" lon="12.227460443757488"><ele>2.2</ele><time>2026-03-29T08:55:03Z</time></trkpt><trkpt lat="41.7433215313368" lon="12.227345354801129"><ele>2.0</ele><time>2026-03-29T08:55:05Z</time></trkpt><trkpt lat="41.743347193093236" lon="12.227235583405601"><ele>1.9999999999999998</ele><time>2026-03-29T08:55:07Z</time></trkpt><trkpt lat="41.743375877938306" lon="12.227132844769093"><ele>2.0</ele><time>2026-03-29T08:55:09Z</time></trkpt><trkpt lat="41.743402148117795" lon="12.227030310956037"><ele>2.0</ele><time>2026-03-29T08:55:11Z</time></trkpt><trkpt lat="41.743427689520935" lon="12.226930918432723"><ele>2.0</ele><time>2026-03-29T08:55:13Z</time></trkpt><trkpt lat="41.743465317824565" lon="12.226841790138062"><ele>1.9999999999999998</ele><time>2026-03-29T08:55:15Z</time></trkpt><trkpt lat="41.7434902582659" lon="12.226752776508503"><ele>2.0</ele><time>2026-03-29T08:55:17Z</time></trkpt><trkpt lat="41.743568608676966" lon="12.22671455026681"><ele>2.0</ele><time>2026-03-29T08:55:19Z</time></trkpt><trkpt lat="41.74363225643106" lon="12.226634665195862"><ele>2.0</ele><time>2026-03-29T08:55:22Z</time></trkpt><trkpt lat="41.74346189134244" lon="12.226684082710024"><ele>2.0</ele><time>2026-03-29T08:55:28.999Z</time></trkpt><trkpt lat="41.74343267495854" lon="12.2267875338558"><ele>2.0</ele><time>2026-03-29T08:55:30.999Z</time></trkpt><trkpt lat="41.74340438205069" lon="12.226886690358407"><ele>2.0</ele><time>2026-03-29T08:55:32.999Z</time></trkpt><trkpt lat="41.74338016171396" lon="12.22698887750588"><ele>1.9999999999999998</ele><time>2026-03-29T08:55:34.999Z</time></trkpt><trkpt lat="41.74336248151068" lon="12.227099676971637"><ele>2.0</ele><time>2026-03-29T08:55:36.999Z</time></trkpt><trkpt lat="41.743337548272926" lon="12.227208183875515"><ele>2.0</ele><time>2026-03-29T08:55:38.999Z</time></trkpt><trkpt lat="41.7433001476158" lon="12.22731424952047"><ele>2.0</ele><time>2026-03-29T08:55:40.999Z</time></trkpt><trkpt lat="41.74330049811854" lon="12.2274364934382"><ele>1.9999999999999998</ele><time>2026-03-29T08:55:42.999Z</time></trkpt><trkpt lat="41.74329439846637" lon="12.227558474507822"><ele>2.0</ele><time>2026-03-29T08:55:44.999Z</time></trkpt><trkpt lat="41.743316856162224" lon="12.227675900013853"><ele>2.0</ele><time>2026-03-29T08:55:46.999Z</time></trkpt><trkpt lat="41.74336100322065" lon="12.227774776259581"><ele>1.9999999999999998</ele><time>2026-03-29T08:55:48.999Z</time></trkpt><trkpt lat="41.74339658536401" lon="12.227868395672141"><ele>2.0</ele><time>2026-03-29T08:55:50.999Z</time></trkpt><trkpt lat="41.74344496955035" lon="12.227938952820104"><ele>2.0</ele><time>2026-03-29T08:55:52.999Z</time></trkpt><trkpt lat="41.74348741722126" lon="12.228001786001844"><ele>1.9999999999999998</ele><time>2026-03-29T08:55:54.999Z</time></trkpt><trkpt lat="41.74354374135032" lon="12.228072222858293"><ele>2.0</ele><time>2026-03-29T08:55:57.999Z</time></trkpt><trkpt lat="41.743593527129065" lon="12.228136586572484"><ele>2.0</ele><time>2026-03-29T08:56:01.999Z</time></trkpt><trkpt lat="41.74364780313142" lon="12.228197083988533"><ele>2.333333333333333</ele><time>2026-03-29T08:56:04.999Z</time></trkpt><trkpt lat="41.74381171935354" lon="12.22854335639777"><ele>2.6666666666666665</ele><time>2026-03-29T08:56:05.999Z</time></trkpt><trkpt lat="41.743796607056204" lon="12.228627170195885"><ele>3.0</ele><time>2026-03-29T08:56:07.998Z</time></trkpt><trkpt lat="41.743767623029065" lon="12.228738222939644"><ele>3.0</ele><time>2026-03-29T08:56:09.998Z</time></trkpt><trkpt lat="41.74372037747527" lon="12.228857542223736"><ele>3.0</ele><time>2026-03-29T08:56:11.998Z</time></trkpt><trkpt lat="41.7436881798223" lon="12.228947827425198"><ele>3.0</ele><time>2026-03-29T08:56:13.998Z</time></trkpt><trkpt lat="41.7436570358438" lon="12.229035158078773"><ele>3.0</ele><time>2026-03-29T08:56:15.998Z</time></trkpt><trkpt lat="41.74362671458707" lon="12.229120181693645"><ele>3.0</ele><time>2026-03-29T08:56:17.998Z</time></trkpt><trkpt lat="41.74359928887499" lon="12.229197086041149"><ele>3.0</ele><time>2026-03-29T08:56:19.998Z</time></trkpt><trkpt lat="41.74356375511937" lon="12.229296725900474"><ele>2.8571428571428568</ele><time>2026-03-29T08:56:22.998Z</time></trkpt><trkpt lat="41.743533597529" lon="12.229381309457816"><ele>2.7142857142857144</ele><time>2026-03-29T08:56:25.998Z</time></trkpt><trkpt lat="41.74349873667021" lon="12.22947987915535"><ele>2.571428571428571</ele><time>2026-03-29T08:56:28.998Z</time></trkpt><trkpt lat="41.74347132239019" lon="12.22955739341911"><ele>2.4285714285714284</ele><time>2026-03-29T08:56:31.998Z</time></trkpt><trkpt lat="41.743442823590655" lon="12.22963797422426"><ele>2.2857142857142856</ele><time>2026-03-29T08:56:34.998Z</time></trkpt><trkpt lat="41.74341067366445" lon="12.229728878625313"><ele>2.142857142857143</ele><time>2026-03-29T08:56:37.998Z</time></trkpt><trkpt lat="41.74337789218971" lon="12.229820309898821"><ele>2.0</ele><time>2026-03-29T08:56:41.001Z</time></trkpt><trkpt lat="41.74334125567376" lon="12.229919979504977"><ele>2.4000000000000004</ele><time>2026-03-29T08:56:45.001Z</time></trkpt><trkpt lat="41.74330825663592" lon="12.230005976126664"><ele>2.8000000000000003</ele><time>2026-03-29T08:56:49.001Z</time></trkpt><trkpt lat="41.743273601407154" lon="12.230096288342494"><ele>3.2</ele><time>2026-03-29T08:56:53.001Z</time></trkpt><trkpt lat="41.743117712962444" lon="12.23016948773937"><ele>3.6</ele><time>2026-03-29T08:56:55Z</time></trkpt><trkpt lat="41.74304579610905" lon="12.230201865393768"><ele>4.0</ele><time>2026-03-29T08:57:00Z</time></trkpt><trkpt lat="41.74296508957349" lon="12.230243936821303"><ele>3.9999999999999996</ele><time>2026-03-29T08:57:04Z</time></trkpt><trkpt lat="41.74290074465675" lon="12.230277478742739"><ele>4.0</ele><time>2026-03-29T08:57:07Z</time></trkpt><trkpt lat="41.74284943618106" lon="12.230337074856044"><ele>4.0</ele><time>2026-03-29T08:57:10Z</time></trkpt><trkpt lat="41.74276874759557" lon="12.23038848327937"><ele>4.0</ele><time>2026-03-29T08:57:13Z</time></trkpt><trkpt lat="41.74270110426971" lon="12.230413163474115"><ele>3.9999999999999996</ele><time>2026-03-29T08:57:16Z</time></trkpt><trkpt lat="41.74270037884367" lon="12.230533469736857"><ele>4.0</ele><time>2026-03-29T08:57:17Z</time></trkpt><trkpt lat="41.74269553877506" lon="12.230624393927128"><ele>3.8571428571428568</ele><time>2026-03-29T08:57:19Z</time></trkpt><trkpt lat="41.742689718833375" lon="12.230712864187646"><ele>3.714285714285714</ele><time>2026-03-29T08:57:21Z</time></trkpt><trkpt lat="41.74268184590794" lon="12.230799932353808"><ele>3.571428571428571</ele><time>2026-03-29T08:57:23Z</time></trkpt><trkpt lat="41.7426710189595" lon="12.23089959290775"><ele>3.4285714285714284</ele><time>2026-03-29T08:57:25Z</time></trkpt><trkpt lat="41.742658922208584" lon="12.231002357702815"><ele>3.2857142857142856</ele><time>2026-03-29T08:57:27Z</time></trkpt><trkpt lat="41.742648345857035" lon="12.231107557537392"><ele>3.1428571428571423</ele><time>2026-03-29T08:57:28.999Z</time></trkpt><trkpt lat="41.74264025914019" lon="12.231191847226702"><ele>3.0</ele><time>2026-03-29T08:57:31.999Z</time></trkpt><trkpt lat="41.74263069273341" lon="12.231291561671538"><ele>3.0</ele><time>2026-03-29T08:57:35.999Z</time></trkpt><trkpt lat="41.742613664717084" lon="12.231413020814871"><ele>3.0</ele><time>2026-03-29T08:57:38.999Z</time></trkpt><trkpt lat="41.74260634698049" lon="12.231534009883813"><ele>3.0</ele><time>2026-03-29T08:57:41.999Z</time></trkpt><trkpt lat="41.74262344962323" lon="12.231619471446672"><ele>3.0</ele><time>2026-03-29T08:57:43.999Z</time></trkpt><trkpt lat="41.742621533327636" lon="12.231740492758265"><ele>3.0</ele><time>2026-03-29T08:57:46.999Z</time></trkpt><trkpt lat="41.74263475454997" lon="12.231828376884698"><ele>3.0</ele><time>2026-03-29T08:57:48.999Z</time></trkpt><trkpt lat="41.74264980718596" lon="12.231925496412313"><ele>2.9999999999999996</ele><time>2026-03-29T08:57:50.999Z</time></trkpt><trkpt lat="41.74266155520229" lon="12.232014866713017"><ele>3.0</ele><time>2026-03-29T08:57:52.999Z</time></trkpt><trkpt lat="41.74267984985491" lon="12.232106041415618"><ele>3.0</ele><time>2026-03-29T08:57:54.999Z</time></trkpt><trkpt lat="41.742691514374606" lon="12.232192082866355"><ele>3.0</ele><time>2026-03-29T08:57:56.999Z</time></trkpt><trkpt lat="41.74269682305476" lon="12.23228133050912"><ele>3.0</ele><time>2026-03-29T08:57:58.999Z</time></trkpt><trkpt lat="41.74271027074199" lon="12.232378057029171"><ele>2.9999999999999996</ele><time>2026-03-29T08:58:00.999Z</time></trkpt><trkpt lat="41.74271306970968" lon="12.232474237078033"><ele>3.0</ele><time>2026-03-29T08:58:02.999Z</time></trkpt><trkpt lat="41.74272345502213" lon="12.232567057183793"><ele>3.0</ele><time>2026-03-29T08:58:04.999Z</time></trkpt><trkpt lat="41.74273288612184" lon="12.232656807762316"><ele>3.0</ele><time>2026-03-29T08:58:06.998Z</time></trkpt><trkpt lat="41.74272047331663" lon="12.232764694061617"><ele>3.0</ele><time>2026-03-29T08:58:09.998Z</time></trkpt><trkpt lat="41.74264577185448" lon="12.232820973644637"><ele>3.0</ele><time>2026-03-29T08:58:12.998Z</time></trkpt><trkpt lat="41.74256192430575" lon="12.232833522054207"><ele>3.0</ele><time>2026-03-29T08:58:14.998Z</time></trkpt><trkpt lat="41.74248158823865" lon="12.232856352741175"><ele>3.0</ele><time>2026-03-29T08:58:16.998Z</time></trkpt><trkpt lat="41.742399647738864" lon="12.232872276023572"><ele>3.0</ele><time>2026-03-29T08:58:18.998Z</time></trkpt><trkpt lat="41.74232052570092" lon="12.232883493804676"><ele>3.0</ele><time>2026-03-29T08:58:20.998Z</time></trkpt><trkpt lat="41.742239479503766" lon="12.232890670797518"><ele>3.0</ele><time>2026-03-29T08:58:22.998Z</time></trkpt><trkpt lat="41.74216071134167" lon="12.23290597469102"><ele>3.0</ele><time>2026-03-29T08:58:24.998Z</time></trkpt><trkpt lat="41.742079704582316" lon="12.232930457970578"><ele>3.0</ele><time>2026-03-29T08:58:26.998Z</time></trkpt><trkpt lat="41.74199554778991" lon="12.23294772898088"><ele>3.0</ele><time>2026-03-29T08:58:28.998Z</time></trkpt><trkpt lat="41.74191599765135" lon="12.232961511934997"><ele>3.0</ele><time>2026-03-29T08:58:30.998Z</time></trkpt><trkpt lat="41.74184268627327" lon="12.232971891489022"><ele>3.0</ele><time>2026-03-29T08:58:32.998Z</time></trkpt><trkpt lat="41.74177643474054" lon="12.233015592137804"><ele>3.0</ele><time>2026-03-29T08:58:34.998Z</time></trkpt><trkpt lat="41.74176288942843" lon="12.233117910203891"><ele>3.0</ele><time>2026-03-29T08:58:36.998Z</time></trkpt><trkpt lat="41.74178770472478" lon="12.233233338866581"><ele>3.0</ele><time>2026-03-29T08:58:38.998Z</time></trkpt><trkpt lat="41.74179503139165" lon="12.23334423842538"><ele>3.0</ele><time>2026-03-29T08:58:40.998Z</time></trkpt><trkpt lat="41.74180091734709" lon="12.233454935822998"><ele>3.0</ele><time>2026-03-29T08:58:42.998Z</time></trkpt><trkpt lat="41.74179845536705" lon="12.233566795448711"><ele>3.0</ele><time>2026-03-29T08:58:44.998Z</time></trkpt><trkpt lat="41.741795369488955" lon="12.233682629766754"><ele>3.0</ele><time>2026-03-29T08:58:47Z</time></trkpt><trkpt lat="41.74180949509549" lon="12.23379915037705"><ele>3.0</ele><time>2026-03-29T08:58:49Z</time></trkpt><trkpt lat="41.74182865580645" lon="12.23392030250007"><ele>3.0</ele><time>2026-03-29T08:58:51Z</time></trkpt><trkpt lat="41.741860095099504" lon="12.234035989320368"><ele>3.0</ele><time>2026-03-29T08:58:53Z</time></trkpt><trkpt lat="41.74189227863156" lon="12.234162741816325"><ele>3.0</ele><time>2026-03-29T08:58:55Z</time></trkpt><trkpt lat="41.74192283007346" lon="12.234289861102152"><ele>3.0</ele><time>2026-03-29T08:58:57Z</time></trkpt><trkpt lat="41.7419605086429" lon="12.234419799510649"><ele>3.0</ele><time>2026-03-29T08:58:59Z</time></trkpt><trkpt lat="41.741991382730504" lon="12.234551601828239"><ele>3.0</ele><time>2026-03-29T08:59:01Z</time></trkpt><trkpt lat="41.742020785003106" lon="12.23467827104123"><ele>3.0</ele><time>2026-03-29T08:59:03Z</time></trkpt><trkpt lat="41.74204900525356" lon="12.234808134046041"><ele>3.4</ele><time>2026-03-29T08:59:05Z</time></trkpt><trkpt lat="41.742065622635856" lon="12.234934082729689"><ele>3.8</ele><time>2026-03-29T08:59:07Z</time></trkpt><trkpt lat="41.74208880461109" lon="12.235063505832558"><ele>4.2</ele><time>2026-03-29T08:59:09Z</time></trkpt><trkpt lat="41.74210342137493" lon="12.235196149597252"><ele>4.6</ele><time>2026-03-29T08:59:11Z</time></trkpt><trkpt lat="41.74210244711567" lon="12.23532641320394"><ele>5.0</ele><time>2026-03-29T08:59:13Z</time></trkpt><trkpt lat="41.74212929142223" lon="12.235444469218583"><ele>5.0</ele><time>2026-03-29T08:59:15Z</time></trkpt><trkpt lat="41.74215407330422" lon="12.235545482505131"><ele>5.0</ele><time>2026-03-29T08:59:17Z</time></trkpt><trkpt lat="41.74218930394021" lon="12.235637734296626"><ele>5.0</ele><time>2026-03-29T08:59:19Z</time></trkpt><trkpt lat="41.74222463188219" lon="12.235749205784309"><ele>5.0</ele><time>2026-03-29T08:59:21Z</time></trkpt><trkpt lat="41.74225606260681" lon="12.235870352262124"><ele>5.0</ele><time>2026-03-29T08:59:23Z</time></trkpt><trkpt lat="41.74229564310133" lon="12.235998727936689"><ele>5.0</ele><time>2026-03-29T08:59:25Z</time></trkpt><trkpt lat="41.74232616454124" lon="12.236129497292577"><ele>4.6</ele><time>2026-03-29T08:59:27Z</time></trkpt><trkpt lat="41.74235769451695" lon="12.236255109148976"><ele>4.2</ele><time>2026-03-29T08:59:29Z</time></trkpt><trkpt lat="41.74240003857831" lon="12.236380913646608"><ele>3.8</ele><time>2026-03-29T08:59:30.999Z</time></trkpt><trkpt lat="41.74243270285858" lon="12.236507969628757"><ele>3.4</ele><time>2026-03-29T08:59:32.999Z</time></trkpt><trkpt lat="41.742467584537344" lon="12.236634677099998"><ele>3.0</ele><time>2026-03-29T08:59:34.999Z</time></trkpt><trkpt lat="41.74252766667412" lon="12.236749302554637"><ele>2.6</ele><time>2026-03-29T08:59:36.999Z</time></trkpt><trkpt lat="41.74259565172673" lon="12.236850222977237"><ele>2.1999999999999997</ele><time>2026-03-29T08:59:38.999Z</time></trkpt><trkpt lat="41.74265575578178" lon="12.23695507904533"><ele>1.8</ele><time>2026-03-29T08:59:40.999Z</time></trkpt><trkpt lat="41.742707749080175" lon="12.237066466370052"><ele>1.4</ele><time>2026-03-29T08:59:42.999Z</time></trkpt><trkpt lat="41.74274997259173" lon="12.237186488277287"><ele>1.0</ele><time>2026-03-29T08:59:44.999Z</time></trkpt><trkpt lat="41.7427847628534" lon="12.23730630053883"><ele>0.4</ele><time>2026-03-29T08:59:46.999Z</time></trkpt><trkpt lat="41.74282361804193" lon="12.237428620151453"><ele>-0.19999999999999996</ele><time>2026-03-29T08:59:48.999Z</time></trkpt><trkpt lat="41.74286205725646" lon="12.237550091466463"><ele>-0.8000000000000002</ele><time>2026-03-29T08:59:50.999Z</time></trkpt><trkpt lat="41.74289825630522" lon="12.237672891386367"><ele>-1.4000000000000001</ele><time>2026-03-29T08:59:52.999Z</time></trkpt><trkpt lat="41.74294035274485" lon="12.237797038528722"><ele>-2.0</ele><time>2026-03-29T08:59:54.999Z</time></trkpt><trkpt lat="41.74297528261528" lon="12.237920511100295"><ele>-2.0</ele><time>2026-03-29T08:59:56.999Z</time></trkpt><trkpt lat="41.743016869518705" lon="12.238048069235992"><ele>-2.0</ele><time>2026-03-29T08:59:58.999Z</time></trkpt><trkpt lat="41.7430508763237" lon="12.238177482329064"><ele>-2.0</ele><time>2026-03-29T09:00:00.999Z</time></trkpt><trkpt lat="41.7430898329933" lon="12.238301026678329"><ele>-2.0</ele><time>2026-03-29T09:00:02.999Z</time></trkpt><trkpt lat="41.743128807513095" lon="12.238419346738992"><ele>-2.0</ele><time>2026-03-29T09:00:04.999Z</time></trkpt><trkpt lat="41.74316146181666" lon="12.238544584767933"><ele>-1.8</ele><time>2026-03-29T09:00:06.999Z</time></trkpt><trkpt lat="41.74320036727702" lon="12.238663049299127"><ele>-1.6</ele><time>2026-03-29T09:00:08.998Z</time></trkpt><trkpt lat="41.743237282373634" lon="12.238777884283301"><ele>-1.4000000000000001</ele><time>2026-03-29T09:00:10.998Z</time></trkpt><trkpt lat="41.74328325655054" lon="12.23889390440196"><ele>-1.2000000000000002</ele><time>2026-03-29T09:00:12.998Z</time></trkpt><trkpt lat="41.74331420606017" lon="12.23901606421514"><ele>-1.0</ele><time>2026-03-29T09:00:14.998Z</time></trkpt><trkpt lat="41.74335381536227" lon="12.2391413919442"><ele>-1.0</ele><time>2026-03-29T09:00:16.998Z</time></trkpt><trkpt lat="41.743400773158555" lon="12.239263308842906"><ele>-1.0</ele><time>2026-03-29T09:00:18.998Z</time></trkpt><trkpt lat="41.743434692055224" lon="12.239388679956576"><ele>-1.0</ele><time>2026-03-29T09:00:20.998Z</time></trkpt><trkpt lat="41.743479702495016" lon="12.239512841568551"><ele>-1.0</ele><time>2026-03-29T09:00:22.998Z</time></trkpt><trkpt lat="41.74351917325533" lon="12.239640102689501"><ele>-1.0</ele><time>2026-03-29T09:00:24.998Z</time></trkpt><trkpt lat="41.74355784196502" lon="12.239765540995391"><ele>-1.2000000000000002</ele><time>2026-03-29T09:00:26.998Z</time></trkpt><trkpt lat="41.74359481197741" lon="12.239894125007858"><ele>-1.4000000000000001</ele><time>2026-03-29T09:00:28.998Z</time></trkpt><trkpt lat="41.74363569613698" lon="12.24002077750312"><ele>-1.6</ele><time>2026-03-29T09:00:30.998Z</time></trkpt><trkpt lat="41.743672724584414" lon="12.240147500064353"><ele>-1.8</ele><time>2026-03-29T09:00:32.998Z</time></trkpt><trkpt lat="41.74371053474825" lon="12.240274464305127"><ele>-2.0</ele><time>2026-03-29T09:00:34.998Z</time></trkpt><trkpt lat="41.743749209142344" lon="12.240396633589633"><ele>-2.0</ele><time>2026-03-29T09:00:36.998Z</time></trkpt><trkpt lat="41.743786647544006" lon="12.240518248307067"><ele>-2.0</ele><time>2026-03-29T09:00:38.998Z</time></trkpt><trkpt lat="41.74382043700889" lon="12.240639097666108"><ele>-2.0</ele><time>2026-03-29T09:00:40.998Z</time></trkpt><trkpt lat="41.743857690702086" lon="12.240763786485617"><ele>-2.0</ele><time>2026-03-29T09:00:42.998Z</time></trkpt><trkpt lat="41.7438950838051" lon="12.240889918194851"><ele>-2.0</ele><time>2026-03-29T09:00:44.998Z</time></trkpt><trkpt lat="41.74393061141406" lon="12.24101753074684"><ele>-1.8</ele><time>2026-03-29T09:00:46.998Z</time></trkpt><trkpt lat="41.74396550804403" lon="12.241146988915537"><ele>-1.6</ele><time>2026-03-29T09:00:48.997Z</time></trkpt><trkpt lat="41.74399853223093" lon="12.241276601087518"><ele>-1.4000000000000001</ele><time>2026-03-29T09:00:51Z</time></trkpt><trkpt lat="41.744030335312395" lon="12.241408809974542"><ele>-1.2000000000000002</ele><time>2026-03-29T09:00:53Z</time></trkpt><trkpt lat="41.74406885714622" lon="12.241529371002692"><ele>-1.0</ele><time>2026-03-29T09:00:55Z</time></trkpt><trkpt lat="41.74416932181688" lon="12.241567036460516"><ele>-1.2000000000000002</ele><time>2026-03-29T09:00:57Z</time></trkpt><trkpt lat="41.74427254359693" lon="12.241511621101603"><ele>-1.4000000000000001</ele><time>2026-03-29T09:00:59Z</time></trkpt><trkpt lat="41.74437295739248" lon="12.241528641335423"><ele>-1.6</ele><time>2026-03-29T09:01:01Z</time></trkpt><trkpt lat="41.74441565510584" lon="12.241671838461839"><ele>-1.8</ele><time>2026-03-29T09:01:03Z</time></trkpt><trkpt lat="41.74442322161596" lon="12.241814301591088"><ele>-2.0</ele><time>2026-03-29T09:01:05Z</time></trkpt><trkpt lat="41.744442156585855" lon="12.24194869721093"><ele>-2.0</ele><time>2026-03-29T09:01:07Z</time></trkpt><trkpt lat="41.74447055672668" lon="12.242086521713718"><ele>-2.0</ele><time>2026-03-29T09:01:09Z</time></trkpt><trkpt lat="41.744498222057224" lon="12.242209293337952"><ele>-2.0</ele><time>2026-03-29T09:01:11Z</time></trkpt><trkpt lat="41.74453416426579" lon="12.242330601374508"><ele>-2.0</ele><time>2026-03-29T09:01:13Z</time></trkpt><trkpt lat="41.7445841577744" lon="12.242425960853293"><ele>-2.0</ele><time>2026-03-29T09:01:15Z</time></trkpt><trkpt lat="41.74462443754089" lon="12.242500162030387"><ele>-2.2</ele><time>2026-03-29T09:01:18Z</time></trkpt><trkpt lat="41.74466220629942" lon="12.242596426871131"><ele>-2.4000000000000004</ele><time>2026-03-29T09:01:21Z</time></trkpt><trkpt lat="41.74468574466527" lon="12.242697365182563"><ele>-2.5999999999999996</ele><time>2026-03-29T09:01:23Z</time></trkpt><trkpt lat="41.74469964968764" lon="12.242827110624031"><ele>-2.8</ele><time>2026-03-29T09:01:25Z</time></trkpt><trkpt lat="41.74471599926883" lon="12.242960140643069"><ele>-3.0</ele><time>2026-03-29T09:01:27Z</time></trkpt><trkpt lat="41.744736935713924" lon="12.243098169895156"><ele>-3.0</ele><time>2026-03-29T09:01:29Z</time></trkpt><trkpt lat="41.74475537908991" lon="12.243239020189748"><ele>-3.0</ele><time>2026-03-29T09:01:31Z</time></trkpt><trkpt lat="41.74477582774002" lon="12.243379641298771"><ele>-3.0</ele><time>2026-03-29T09:01:33Z</time></trkpt><trkpt lat="41.74480031567767" lon="12.243519205432582"><ele>-3.0</ele><time>2026-03-29T09:01:35Z</time></trkpt><trkpt lat="41.74482079658245" lon="12.243659559179523"><ele>-3.0</ele><time>2026-03-29T09:01:36.999Z</time></trkpt><trkpt lat="41.74484641630347" lon="12.243802673051942"><ele>-3.0</ele><time>2026-03-29T09:01:38.999Z</time></trkpt><trkpt lat="41.74486616166224" lon="12.24394650007541"><ele>-3.0</ele><time>2026-03-29T09:01:40.999Z</time></trkpt><trkpt lat="41.744890129293246" lon="12.244088640927178"><ele>-3.0</ele><time>2026-03-29T09:01:42.999Z</time></trkpt><trkpt lat="41.74491237892771" lon="12.244235952364368"><ele>-3.0</ele><time>2026-03-29T09:01:44.999Z</time></trkpt><trkpt lat="41.744938991460984" lon="12.244383404861953"><ele>-3.0</ele><time>2026-03-29T09:01:46.999Z</time></trkpt><trkpt lat="41.74496065914365" lon="12.244531752729323"><ele>-2.8</ele><time>2026-03-29T09:01:48.999Z</time></trkpt><trkpt lat="41.744981104257576" lon="12.244676096641735"><ele>-2.5999999999999996</ele><time>2026-03-29T09:01:50.999Z</time></trkpt><trkpt lat="41.74500151295102" lon="12.24481753401237"><ele>-2.4000000000000004</ele><time>2026-03-29T09:01:52.999Z</time></trkpt><trkpt lat="41.74501946657011" lon="12.244954804675494"><ele>-2.2</ele><time>2026-03-29T09:01:54.999Z</time></trkpt><trkpt lat="41.74504054623327" lon="12.2450898818394"><ele>-2.0</ele><time>2026-03-29T09:01:56.999Z</time></trkpt><trkpt lat="41.745061185401795" lon="12.245215881051061"><ele>-1.7142857142857142</ele><time>2026-03-29T09:01:58.999Z</time></trkpt><trkpt lat="41.74507719842044" lon="12.245329250880024"><ele>-1.4285714285714284</ele><time>2026-03-29T09:02:00.999Z</time></trkpt><trkpt lat="41.745090876302164" lon="12.245421862106644"><ele>-1.1428571428571428</ele><time>2026-03-29T09:02:02.999Z</time></trkpt><trkpt lat="41.74509109960262" lon="12.24550733424722"><ele>-0.8571428571428571</ele><time>2026-03-29T09:02:04.999Z</time></trkpt><trkpt lat="41.74506948918367" lon="12.245613591548395"><ele>-0.5714285714285714</ele><time>2026-03-29T09:02:07.999Z</time></trkpt><trkpt lat="41.745082557422975" lon="12.245707598760287"><ele>-0.2857142857142857</ele><time>2026-03-29T09:02:10.999Z</time></trkpt><trkpt lat="41.74510095907996" lon="12.245803174881152"><ele>0.0</ele><time>2026-03-29T09:02:13.999Z</time></trkpt><trkpt lat="41.7451134247548" lon="12.245900700052426"><ele>0.0</ele><time>2026-03-29T09:02:16.998Z</time></trkpt><trkpt lat="41.745131512101175" lon="12.245996524078299"><ele>0.0</ele><time>2026-03-29T09:02:19.998Z</time></trkpt><trkpt lat="41.74514563595695" lon="12.246118029295282"><ele>0.0</ele><time>2026-03-29T09:02:22.998Z</time></trkpt><trkpt lat="41.74516709678932" lon="12.246205131930882"><ele>0.0</ele><time>2026-03-29T09:02:24.998Z</time></trkpt><trkpt lat="41.745188979937524" lon="12.246323630140083"><ele>0.0</ele><time>2026-03-29T09:02:27.998Z</time></trkpt><trkpt lat="41.745210461528856" lon="12.24643380618205"><ele>0.0</ele><time>2026-03-29T09:02:30.998Z</time></trkpt><trkpt lat="41.74522848798414" lon="12.246553086429309"><ele>0.0</ele><time>2026-03-29T09:02:33.998Z</time></trkpt><trkpt lat="41.74524099656756" lon="12.24663586065439"><ele>0.0</ele><time>2026-03-29T09:02:35.998Z</time></trkpt><trkpt lat="41.74525383105675" lon="12.24671868613558"><ele>0.0</ele><time>2026-03-29T09:02:37.998Z</time></trkpt><trkpt lat="41.74526399343212" lon="12.246802553307656"><ele>0.0</ele><time>2026-03-29T09:02:39.998Z</time></trkpt><trkpt lat="41.745272762442305" lon="12.246890732355492"><ele>0.0</ele><time>2026-03-29T09:02:41.998Z</time></trkpt><trkpt lat="41.74528423138909" lon="12.24697835307789"><ele>0.0</ele><time>2026-03-29T09:02:43.998Z</time></trkpt><trkpt lat="41.74529847679034" lon="12.247062711405793"><ele>0.0</ele><time>2026-03-29T09:02:45.998Z</time></trkpt><trkpt lat="41.74531154987508" lon="12.24714708841074"><ele>0.0</ele><time>2026-03-29T09:02:47.998Z</time></trkpt><trkpt lat="41.74533628150775" lon="12.24726285451882"><ele>0.0</ele><time>2026-03-29T09:02:50.998Z</time></trkpt><trkpt lat="41.745350353802955" lon="12.247376271729333"><ele>0.0</ele><time>2026-03-29T09:02:53.997Z</time></trkpt><trkpt lat="41.745375720579425" lon="12.247490885476056"><ele>0.0</ele><time>2026-03-29T09:02:57Z</time></trkpt><trkpt lat="41.74539043053012" lon="12.247574267434034"><ele>0.0</ele><time>2026-03-29T09:02:59Z</time></trkpt><trkpt lat="41.745408128548114" lon="12.247656895895133"><ele>0.0</ele><time>2026-03-29T09:03:01Z</time></trkpt><trkpt lat="41.745424043534854" lon="12.247779220224526"><ele>0.0</ele><time>2026-03-29T09:03:04Z</time></trkpt><trkpt lat="41.745442551893454" lon="12.247899234526203"><ele>0.0</ele><time>2026-03-29T09:03:07Z</time></trkpt><trkpt lat="41.745459828441156" lon="12.248015413717464"><ele>0.0</ele><time>2026-03-29T09:03:10Z</time></trkpt><trkpt lat="41.74546848568319" lon="12.24812488832232"><ele>0.0</ele><time>2026-03-29T09:03:13Z</time></trkpt><trkpt lat="41.74548630868476" lon="12.248238726792982"><ele>0.0</ele><time>2026-03-29T09:03:16Z</time></trkpt><trkpt lat="41.745516946207175" lon="12.248343043211127"><ele>0.0</ele><time>2026-03-29T09:03:19Z</time></trkpt><trkpt lat="41.74554365101795" lon="12.248450739735514"><ele>0.0</ele><time>2026-03-29T09:03:22Z</time></trkpt><trkpt lat="41.74556367270622" lon="12.248563423158675"><ele>0.0</ele><time>2026-03-29T09:03:25Z</time></trkpt><trkpt lat="41.74558993751835" lon="12.248675027000436"><ele>0.0</ele><time>2026-03-29T09:03:28Z</time></trkpt><trkpt lat="41.745627469977954" lon="12.248792334281063"><ele>0.0</ele><time>2026-03-29T09:03:31Z</time></trkpt><trkpt lat="41.74565333922111" lon="12.248881435626744"><ele>0.0</ele><time>2026-03-29T09:03:33Z</time></trkpt><trkpt lat="41.74567896342613" lon="12.248971712531677"><ele>0.0</ele><time>2026-03-29T09:03:35Z</time></trkpt><trkpt lat="41.74570809844229" lon="12.249090624568955"><ele>0.14285714285714285</ele><time>2026-03-29T09:03:38Z</time></trkpt><trkpt lat="41.74573861780813" lon="12.249168138220345"><ele>0.2857142857142857</ele><time>2026-03-29T09:03:39.999Z</time></trkpt><trkpt lat="41.74576333468185" lon="12.249259337973808"><ele>0.42857142857142855</ele><time>2026-03-29T09:03:41.999Z</time></trkpt><trkpt lat="41.74578250353491" lon="12.249349151330044"><ele>0.5714285714285714</ele><time>2026-03-29T09:03:43.999Z</time></trkpt><trkpt lat="41.74581199676628" lon="12.249467655472719"><ele>0.7142857142857142</ele><time>2026-03-29T09:03:46.999Z</time></trkpt><trkpt lat="41.745833872423155" lon="12.249550371015276"><ele>0.8571428571428571</ele><time>2026-03-29T09:03:48.999Z</time></trkpt><trkpt lat="41.74585320465228" lon="12.249634734880303"><ele>1.0</ele><time>2026-03-29T09:03:50.999Z</time></trkpt><trkpt lat="41.745875471848976" lon="12.249719484481986"><ele>1.0</ele><time>2026-03-29T09:03:52.999Z</time></trkpt><trkpt lat="41.745896792937124" lon="12.249804610786752"><ele>0.9999999999999999</ele><time>2026-03-29T09:03:54.999Z</time></trkpt><trkpt lat="41.74591930367824" lon="12.249892518996313"><ele>1.0</ele><time>2026-03-29T09:03:56.999Z</time></trkpt><trkpt lat="41.745938019592685" lon="12.249977568428514"><ele>1.0</ele><time>2026-03-29T09:03:58.999Z</time></trkpt><trkpt lat="41.74596546901972" lon="12.250066406435412"><ele>0.9999999999999999</ele><time>2026-03-29T09:04:01.999Z</time></trkpt><trkpt lat="41.746028296750836" lon="12.250127241595447"><ele>1.0</ele><time>2026-03-29T09:04:05.999Z</time></trkpt><trkpt lat="41.74604223013839" lon="12.250212823176156"><ele>1.0</ele><time>2026-03-29T09:04:07.999Z</time></trkpt><trkpt lat="41.74604876360728" lon="12.250297130838177"><ele>1.0</ele><time>2026-03-29T09:04:09.999Z</time></trkpt><trkpt lat="41.74605981521716" lon="12.250384392046664"><ele>0.9999999999999999</ele><time>2026-03-29T09:04:11.999Z</time></trkpt><trkpt lat="41.74607572584034" lon="12.250473781970888"><ele>1.0</ele><time>2026-03-29T09:04:13.999Z</time></trkpt><trkpt lat="41.74609261917249" lon="12.250558376938095"><ele>1.0</ele><time>2026-03-29T09:04:15.999Z</time></trkpt><trkpt lat="41.746116499454885" lon="12.250675462475392"><ele>0.9999999999999999</ele><time>2026-03-29T09:04:18.998Z</time></trkpt><trkpt lat="41.74613993909854" lon="12.250758311066104"><ele>1.0</ele><time>2026-03-29T09:04:20.998Z</time></trkpt><trkpt lat="41.74617390887901" lon="12.250839795013404"><ele>1.0</ele><time>2026-03-29T09:04:22.998Z</time></trkpt><trkpt lat="41.74620849996757" lon="12.25093705946172"><ele>1.0</ele><time>2026-03-29T09:04:25.998Z</time></trkpt><trkpt lat="41.74623573974679" lon="12.251025182402026"><ele>0.9999999999999999</ele><time>2026-03-29T09:04:28.998Z</time></trkpt><trkpt lat="41.74626401142359" lon="12.251131919192074"><ele>1.0</ele><time>2026-03-29T09:04:32.998Z</time></trkpt><trkpt lat="41.74628987866349" lon="12.251213769472592"><ele>1.0</ele><time>2026-03-29T09:04:35.998Z</time></trkpt><trkpt lat="41.74630067744137" lon="12.251302629968631"><ele>0.9999999999999999</ele><time>2026-03-29T09:04:39.998Z</time></trkpt><trkpt lat="41.74630310476905" lon="12.25139538740046"><ele>1.0</ele><time>2026-03-29T09:04:43.998Z</time></trkpt><trkpt lat="41.746311673946224" lon="12.251493818196709"><ele>1.0</ele><time>2026-03-29T09:04:50.998Z</time></trkpt><trkpt lat="41.74632690622108" lon="12.251587266800856"><ele>1.0</ele><time>2026-03-29T09:04:55.998Z</time></trkpt><trkpt lat="41.74635380424145" lon="12.251669802875146"><ele>0.9999999999999999</ele><time>2026-03-29T09:05:01.997Z</time></trkpt><trkpt lat="41.746443693791534" lon="12.251696730848483"><ele>1.0</ele><time>2026-03-29T09:05:06Z</time></trkpt><trkpt lat="41.74644469815497" lon="12.251785553023883"><ele>1.0</ele><time>2026-03-29T09:05:08Z</time></trkpt><trkpt lat="41.74642784904081" lon="12.25187164746846"><ele>0.9999999999999999</ele><time>2026-03-29T09:05:11Z</time></trkpt><trkpt lat="41.74641788410201" lon="12.25197432310824"><ele>1.0</ele><time>2026-03-29T09:05:15Z</time></trkpt><trkpt lat="41.74647273511497" lon="12.252020282071692"><ele>1.0</ele><time>2026-03-29T09:05:19Z</time></trkpt><trkpt lat="41.74654048143629" lon="12.252071056302885"><ele>1.0</ele><time>2026-03-29T09:05:22Z</time></trkpt><trkpt lat="41.74651117195067" lon="12.252148344947726"><ele>0.9999999999999999</ele><time>2026-03-29T09:05:24Z</time></trkpt><trkpt lat="41.746567384141095" lon="12.252221359372822"><ele>1.0</ele><time>2026-03-29T09:05:34Z</time></trkpt><trkpt lat="41.74654542168177" lon="12.252315326856152"><ele>1.0</ele><time>2026-03-29T09:05:37Z</time></trkpt><trkpt lat="41.74654779158828" lon="12.252414522600713"><ele>0.9999999999999999</ele><time>2026-03-29T09:05:41Z</time></trkpt><trkpt lat="41.74657079772458" lon="12.252500895906895"><ele>1.0</ele><time>2026-03-29T09:05:44.999Z</time></trkpt><trkpt lat="41.7465924360523" lon="12.252606069527141"><ele>1.0</ele><time>2026-03-29T09:05:48.999Z</time></trkpt><trkpt lat="41.746630101069734" lon="12.252702527501135"><ele>1.1666666666666665</ele><time>2026-03-29T09:05:52.999Z</time></trkpt><trkpt lat="41.746659247659096" lon="12.25279880266092"><ele>1.3333333333333333</ele><time>2026-03-29T09:05:55.999Z</time></trkpt><trkpt lat="41.74669149964838" lon="12.252895245823698"><ele>1.5</ele><time>2026-03-29T09:05:58.999Z</time></trkpt><trkpt lat="41.74675173391012" lon="12.252929907689506"><ele>1.6666666666666665</ele><time>2026-03-29T09:06:01.999Z</time></trkpt><trkpt lat="41.74678599317888" lon="12.253029861178007"><ele>1.8333333333333333</ele><time>2026-03-29T09:06:04.999Z</time></trkpt><trkpt lat="41.74679348538224" lon="12.253122459081819"><ele>2.0</ele><time>2026-03-29T09:06:07.999Z</time></trkpt><trkpt lat="41.746818708809165" lon="12.253226803835107"><ele>1.9999999999999998</ele><time>2026-03-29T09:06:10.999Z</time></trkpt><trkpt lat="41.74684839881462" lon="12.253337952060695"><ele>2.0</ele><time>2026-03-29T09:06:13.999Z</time></trkpt><trkpt lat="41.746875145947605" lon="12.253445087886195"><ele>2.0</ele><time>2026-03-29T09:06:16.999Z</time></trkpt><trkpt lat="41.74690177003689" lon="12.253532943448503"><ele>2.0</ele><time>2026-03-29T09:06:18.999Z</time></trkpt><trkpt lat="41.7469199504568" lon="12.25362345958968"><ele>1.9999999999999998</ele><time>2026-03-29T09:06:20.999Z</time></trkpt><trkpt lat="41.7469519894839" lon="12.253725226327946"><ele>2.0</ele><time>2026-03-29T09:06:22.998Z</time></trkpt><trkpt lat="41.74698957884351" lon="12.253820191197308"><ele>1.8333333333333333</ele><time>2026-03-29T09:06:24.998Z</time></trkpt><trkpt lat="41.747015704890096" lon="12.253917658244925"><ele>1.6666666666666665</ele><time>2026-03-29T09:06:26.998Z</time></trkpt><trkpt lat="41.747042909374876" lon="12.254007930594568"><ele>1.5</ele><time>2026-03-29T09:06:28.998Z</time></trkpt><trkpt lat="41.74707156681601" lon="12.254091167422041"><ele>1.3333333333333333</ele><time>2026-03-29T09:06:30.998Z</time></trkpt><trkpt lat="41.74710622546475" lon="12.254203514734685"><ele>1.1666666666666665</ele><time>2026-03-29T09:06:33.998Z</time></trkpt><trkpt lat="41.747133241488235" lon="12.254299787621965"><ele>1.0</ele><time>2026-03-29T09:06:36.998Z</time></trkpt><trkpt lat="41.747158392641154" lon="12.25440350869168"><ele>0.8333333333333333</ele><time>2026-03-29T09:06:39.998Z</time></trkpt><trkpt lat="41.747171844732506" lon="12.254503859812841"><ele>0.6666666666666666</ele><time>2026-03-29T09:06:42.998Z</time></trkpt><trkpt lat="41.74720370095003" lon="12.254614439549046"><ele>0.5</ele><time>2026-03-29T09:06:45.998Z</time></trkpt><trkpt lat="41.74722400075385" lon="12.25470203804377"><ele>0.3333333333333333</ele><time>2026-03-29T09:06:47.998Z</time></trkpt><trkpt lat="41.74726296347066" lon="12.254798848251207"><ele>0.16666666666666666</ele><time>2026-03-29T09:06:50.998Z</time></trkpt><trkpt lat="41.74729987960142" lon="12.254926395256618"><ele>0.0</ele><time>2026-03-29T09:06:52.998Z</time></trkpt><trkpt lat="41.747328820359016" lon="12.255021043778346"><ele>0.0</ele><time>2026-03-29T09:06:54.998Z</time></trkpt><trkpt lat="41.74735439773683" lon="12.25511978361685"><ele>0.0</ele><time>2026-03-29T09:06:57.998Z</time></trkpt><trkpt lat="41.74739511610937" lon="12.25522444318076"><ele>0.0</ele><time>2026-03-29T09:07:00.998Z</time></trkpt><trkpt lat="41.747429553248494" lon="12.255338763961372"><ele>0.0</ele><time>2026-03-29T09:07:03.997Z</time></trkpt><trkpt lat="41.747455946939354" lon="12.255417780150298"><ele>0.0</ele><time>2026-03-29T09:07:05.997Z</time></trkpt><trkpt lat="41.74748100686059" lon="12.255499794079464"><ele>0.0</ele><time>2026-03-29T09:07:08Z</time></trkpt><trkpt lat="41.74751774606852" lon="12.25561931615841"><ele>0.0</ele><time>2026-03-29T09:07:11Z</time></trkpt><trkpt lat="41.74755612216919" lon="12.25573273810784"><ele>0.0</ele><time>2026-03-29T09:07:14Z</time></trkpt><trkpt lat="41.74757717023239" lon="12.255814400592"><ele>0.0</ele><time>2026-03-29T09:07:16Z</time></trkpt><trkpt lat="41.7476045204526" lon="12.255894667220932"><ele>0.0</ele><time>2026-03-29T09:07:18Z</time></trkpt><trkpt lat="41.74762501889796" lon="12.255980364152043"><ele>0.0</ele><time>2026-03-29T09:07:20Z</time></trkpt><trkpt lat="41.74766397679096" lon="12.256097994403836"><ele>0.0</ele><time>2026-03-29T09:07:23Z</time></trkpt><trkpt lat="41.74769499272634" lon="12.25621033538694"><ele>-0.2857142857142857</ele><time>2026-03-29T09:07:26Z</time></trkpt><trkpt lat="41.747731299740416" lon="12.256322472856171"><ele>-0.5714285714285714</ele><time>2026-03-29T09:07:29Z</time></trkpt><trkpt lat="41.74775380038269" lon="12.25641607700878"><ele>-0.8571428571428571</ele><time>2026-03-29T09:07:31Z</time></trkpt><trkpt lat="41.74777763425185" lon="12.256504998122848"><ele>-1.1428571428571428</ele><time>2026-03-29T09:07:33Z</time></trkpt><trkpt lat="41.74779428038459" lon="12.256594635240118"><ele>-1.4285714285714284</ele><time>2026-03-29T09:07:35Z</time></trkpt><trkpt lat="41.7478160553999" lon="12.256685411463367"><ele>-1.7142857142857142</ele><time>2026-03-29T09:07:37Z</time></trkpt><trkpt lat="41.74783172469249" lon="12.25677652881041"><ele>-2.0</ele><time>2026-03-29T09:07:39Z</time></trkpt><trkpt lat="41.74785003640518" lon="12.256870503332125"><ele>-1.9999999999999998</ele><time>2026-03-29T09:07:41Z</time></trkpt><trkpt lat="41.7478614298415" lon="12.256961826001618"><ele>-2.0</ele><time>2026-03-29T09:07:43Z</time></trkpt><trkpt lat="41.74785802860885" lon="12.257061535283631"><ele>-2.0</ele><time>2026-03-29T09:07:46Z</time></trkpt><trkpt lat="41.7478719804534" lon="12.257174594990358"><ele>-2.0</ele><time>2026-03-29T09:07:49Z</time></trkpt><trkpt lat="41.74786666065824" lon="12.257266523087102"><ele>-1.9999999999999998</ele><time>2026-03-29T09:07:52.999Z</time></trkpt><trkpt lat="41.747869999947305" lon="12.257363157368934"><ele>-2.0</ele><time>2026-03-29T09:07:55.999Z</time></trkpt><trkpt lat="41.74790847697103" lon="12.257457347341104"><ele>-1.4999999999999998</ele><time>2026-03-29T09:07:59.999Z</time></trkpt><trkpt lat="41.74792378675431" lon="12.257555159645097"><ele>-1.0</ele><time>2026-03-29T09:08:02.999Z</time></trkpt><trkpt lat="41.74791618669128" lon="12.25765148636906"><ele>-0.5</ele><time>2026-03-29T09:08:06.999Z</time></trkpt><trkpt lat="41.74792392244725" lon="12.257757942506094"><ele>0.0</ele><time>2026-03-29T09:08:11.999Z</time></trkpt><trkpt lat="41.747941416497206" lon="12.257847916497015"><ele>0.49999999999999994</ele><time>2026-03-29T09:08:14.999Z</time></trkpt><trkpt lat="41.74794072925336" lon="12.257964138238371"><ele>1.0</ele><time>2026-03-29T09:08:17.999Z</time></trkpt><trkpt lat="41.74794597552139" lon="12.258075485068177"><ele>1.3333333333333333</ele><time>2026-03-29T09:08:20.999Z</time></trkpt><trkpt lat="41.74794813256299" lon="12.258197059149275"><ele>1.6666666666666665</ele><time>2026-03-29T09:08:23.999Z</time></trkpt><trkpt lat="41.74796139906352" lon="12.258322205139548"><ele>2.0</ele><time>2026-03-29T09:08:26.999Z</time></trkpt><trkpt lat="41.7479707657252" lon="12.258411843637907"><ele>2.3333333333333335</ele><time>2026-03-29T09:08:28.999Z</time></trkpt><trkpt lat="41.74798685608972" lon="12.25852776763001"><ele>2.6666666666666665</ele><time>2026-03-29T09:08:31.998Z</time></trkpt><trkpt lat="41.74800074312413" lon="12.258623779983091"><ele>3.0</ele><time>2026-03-29T09:08:33.998Z</time></trkpt><trkpt lat="41.74799811176804" lon="12.25874567283538"><ele>3.0</ele><time>2026-03-29T09:08:36.998Z</time></trkpt><trkpt lat="41.74801102334464" lon="12.258847298554997"><ele>3.0</ele><time>2026-03-29T09:08:39.998Z</time></trkpt><trkpt lat="41.748013564372506" lon="12.258973513047662"><ele>3.0</ele><time>2026-03-29T09:08:42.998Z</time></trkpt><trkpt lat="41.748027989484925" lon="12.259057215924745"><ele>3.0</ele><time>2026-03-29T09:08:44.998Z</time></trkpt><trkpt lat="41.74804462953083" lon="12.259141244854002"><ele>3.0</ele><time>2026-03-29T09:08:46.998Z</time></trkpt><trkpt lat="41.74806983896363" lon="12.259263495731226"><ele>3.0</ele><time>2026-03-29T09:08:49.998Z</time></trkpt><trkpt lat="41.7481038314974" lon="12.259380024428474"><ele>2.714285714285714</ele><time>2026-03-29T09:08:52.998Z</time></trkpt><trkpt lat="41.74812126204836" lon="12.25946544025028"><ele>2.4285714285714284</ele><time>2026-03-29T09:08:54.998Z</time></trkpt><trkpt lat="41.748148582153476" lon="12.259587604679805"><ele>2.142857142857143</ele><time>2026-03-29T09:08:57.998Z</time></trkpt><trkpt lat="41.748170568372785" lon="12.259672695734452"><ele>1.857142857142857</ele><time>2026-03-29T09:08:59.998Z</time></trkpt><trkpt lat="41.74820123734785" lon="12.25976019332699"><ele>1.5714285714285712</ele><time>2026-03-29T09:09:02.998Z</time></trkpt><trkpt lat="41.74822611714538" lon="12.259856455715386"><ele>1.2857142857142856</ele><time>2026-03-29T09:09:07.998Z</time></trkpt><trkpt lat="41.74824977417363" lon="12.259936451701403"><ele>1.0</ele><time>2026-03-29T09:09:11.997Z</time></trkpt><trkpt lat="41.748274270219994" lon="12.260019396922907"><ele>0.8333333333333333</ele><time>2026-03-29T09:09:16Z</time></trkpt><trkpt lat="41.748237457711376" lon="12.260120608847572"><ele>0.6666666666666666</ele><time>2026-03-29T09:09:21Z</time></trkpt><trkpt lat="41.74825311421408" lon="12.260213042175003"><ele>0.5</ele><time>2026-03-29T09:09:23Z</time></trkpt><trkpt lat="41.74830843557341" lon="12.260285526986861"><ele>0.3333333333333333</ele><time>2026-03-29T09:09:26Z</time></trkpt><trkpt lat="41.748369576577566" lon="12.26034971346267"><ele>0.16666666666666666</ele><time>2026-03-29T09:09:29Z</time></trkpt><trkpt lat="41.74840824238292" lon="12.260417525207815"><ele>0.0</ele><time>2026-03-29T09:09:32Z</time></trkpt><trkpt lat="41.74843922457173" lon="12.260512859968285"><ele>0.0</ele><time>2026-03-29T09:09:36Z</time></trkpt><trkpt lat="41.74845183071405" lon="12.260605553395298"><ele>0.0</ele><time>2026-03-29T09:09:40Z</time></trkpt><trkpt lat="41.74849263813266" lon="12.2607055146405"><ele>0.0</ele><time>2026-03-29T09:09:44Z</time></trkpt><trkpt lat="41.7485207949582" lon="12.260794297199892"><ele>0.0</ele><time>2026-03-29T09:09:48Z</time></trkpt><trkpt lat="41.74855179110477" lon="12.260887536876716"><ele>0.0</ele><time>2026-03-29T09:09:52Z</time></trkpt><trkpt lat="41.74858155946092" lon="12.260978463249204"><ele>0.0</ele><time>2026-03-29T09:09:56Z</time></trkpt><trkpt lat="41.74860815555421" lon="12.261076454023287"><ele>0.0</ele><time>2026-03-29T09:09:59.999Z</time></trkpt><trkpt lat="41.74865185894847" lon="12.261174807474882"><ele>0.0</ele><time>2026-03-29T09:10:03.999Z</time></trkpt><trkpt lat="41.74868565080914" lon="12.261265898622874"><ele>0.0</ele><time>2026-03-29T09:10:06.999Z</time></trkpt><trkpt lat="41.74871548597516" lon="12.261365401510597"><ele>0.0</ele><time>2026-03-29T09:10:09.999Z</time></trkpt><trkpt lat="41.748747893052176" lon="12.261468310995436"><ele>0.0</ele><time>2026-03-29T09:10:12.999Z</time></trkpt><trkpt lat="41.748780060121966" lon="12.261543096110557"><ele>0.0</ele><time>2026-03-29T09:10:15.999Z</time></trkpt><trkpt lat="41.748800831815004" lon="12.26164082498534"><ele>0.14285714285714285</ele><time>2026-03-29T09:10:18.999Z</time></trkpt><trkpt lat="41.74882874054655" lon="12.261721608511854"><ele>0.2857142857142857</ele><time>2026-03-29T09:10:22.999Z</time></trkpt><trkpt lat="41.748860123641634" lon="12.261804525140775"><ele>0.42857142857142855</ele><time>2026-03-29T09:10:29.999Z</time></trkpt><trkpt lat="41.74888367935494" lon="12.261902900712672"><ele>0.5714285714285714</ele><time>2026-03-29T09:10:34.999Z</time></trkpt><trkpt lat="41.74890742924653" lon="12.262007941792298"><ele>0.7142857142857142</ele><time>2026-03-29T09:10:38.998Z</time></trkpt><trkpt lat="41.748931829111825" lon="12.262111914690198"><ele>0.8571428571428571</ele><time>2026-03-29T09:10:42.998Z</time></trkpt><trkpt lat="41.7489519295675" lon="12.262191943693292"><ele>1.0</ele><time>2026-03-29T09:10:45.998Z</time></trkpt><trkpt lat="41.74897933411418" lon="12.262289386670496"><ele>1.0</ele><time>2026-03-29T09:10:49.998Z</time></trkpt><trkpt lat="41.74899705314501" lon="12.262371351972426"><ele>0.9999999999999999</ele><time>2026-03-29T09:10:52.998Z</time></trkpt><trkpt lat="41.74901529426822" lon="12.262457726228257"><ele>1.0</ele><time>2026-03-29T09:10:55.998Z</time></trkpt><trkpt lat="41.74905107980072" lon="12.262557548409495"><ele>1.0</ele><time>2026-03-29T09:10:59.998Z</time></trkpt><trkpt lat="41.74906858244892" lon="12.262663367701062"><ele>0.9999999999999999</ele><time>2026-03-29T09:11:03.998Z</time></trkpt><trkpt lat="41.749087685710094" lon="12.262747218004007"><ele>1.0</ele><time>2026-03-29T09:11:07.998Z</time></trkpt><trkpt lat="41.74906213288689" lon="12.262858745700814"><ele>1.0</ele><time>2026-03-29T09:11:12.998Z</time></trkpt><trkpt lat="41.74908054487523" lon="12.26293955167355"><ele>1.0</ele><time>2026-03-29T09:11:14.998Z</time></trkpt><trkpt lat="41.74912173551541" lon="12.263016231701304"><ele>0.9999999999999999</ele><time>2026-03-29T09:11:17.997Z</time></trkpt><trkpt lat="41.74917230097767" lon="12.263107833548467"><ele>1.0</ele><time>2026-03-29T09:11:22Z</time></trkpt><trkpt lat="41.74921158897807" lon="12.263173778227118"><ele>1.0</ele><time>2026-03-29T09:11:31Z</time></trkpt><trkpt lat="41.74925287494811" lon="12.263252903180947"><ele>0.9999999999999999</ele><time>2026-03-29T09:11:40Z</time></trkpt><trkpt lat="41.749270823486334" lon="12.263354445839052"><ele>1.0</ele><time>2026-03-29T09:11:45Z</time></trkpt><trkpt lat="41.74929196968175" lon="12.26344460930732"><ele>1.0</ele><time>2026-03-29T09:11:49Z</time></trkpt><trkpt lat="41.74931843272958" lon="12.263544097423086"><ele>0.8571428571428571</ele><time>2026-03-29T09:11:53Z</time></trkpt><trkpt lat="41.749343670350136" lon="12.263627785914304"><ele>0.7142857142857142</ele><time>2026-03-29T09:11:56Z</time></trkpt><trkpt lat="41.74936880683758" lon="12.263708746776457"><ele>0.5714285714285714</ele><time>2026-03-29T09:11:59Z</time></trkpt><trkpt lat="41.749392549745366" lon="12.263801665926568"><ele>0.42857142857142855</ele><time>2026-03-29T09:12:02Z</time></trkpt><trkpt lat="41.749420820424156" lon="12.263895684030363"><ele>0.2857142857142857</ele><time>2026-03-29T09:12:04.999Z</time></trkpt><trkpt lat="41.74944588855712" lon="12.263983538923075"><ele>0.14285714285714285</ele><time>2026-03-29T09:12:07.999Z</time></trkpt><trkpt lat="41.749474585158865" lon="12.264076162041773"><ele>0.0</ele><time>2026-03-29T09:13:40Z</time></trkpt><trkpt lat="41.749492438115006" lon="12.264166313422091"><ele>0.0</ele><time>2026-03-29T09:13:43Z</time></trkpt><trkpt lat="41.749517477041024" lon="12.264262335201613"><ele>0.0</ele><time>2026-03-29T09:13:46Z</time></trkpt><trkpt lat="41.749542415520054" lon="12.264355769839039"><ele>0.0</ele><time>2026-03-29T09:13:49Z</time></trkpt><trkpt lat="41.7495738115118" lon="12.264462284318414"><ele>0.0</ele><time>2026-03-29T09:13:52Z</time></trkpt><trkpt lat="41.749603685349335" lon="12.264578080493418"><ele>0.0</ele><time>2026-03-29T09:13:55Z</time></trkpt><trkpt lat="41.74962736320526" lon="12.264657348349555"><ele>0.0</ele><time>2026-03-29T09:13:57Z</time></trkpt><trkpt lat="41.74964933317796" lon="12.264742430929536"><ele>0.14285714285714285</ele><time>2026-03-29T09:13:59Z</time></trkpt><trkpt lat="41.749671357851845" lon="12.264825011244959"><ele>0.2857142857142857</ele><time>2026-03-29T09:14:01Z</time></trkpt><trkpt lat="41.74969474914568" lon="12.264912186412337"><ele>0.42857142857142855</ele><time>2026-03-29T09:14:02.999Z</time></trkpt><trkpt lat="41.74971281410212" lon="12.265005425260993"><ele>0.5714285714285714</ele><time>2026-03-29T09:14:04.999Z</time></trkpt><trkpt lat="41.74973861471121" lon="12.265097633375994"><ele>0.7142857142857142</ele><time>2026-03-29T09:14:06.999Z</time></trkpt><trkpt lat="41.7497653665303" lon="12.265197419723966"><ele>0.8571428571428571</ele><time>2026-03-29T09:14:08.999Z</time></trkpt><trkpt lat="41.74979423852674" lon="12.265298431628109"><ele>1.0</ele><time>2026-03-29T09:14:10.999Z</time></trkpt><trkpt lat="41.749826760496404" lon="12.265403714150505"><ele>0.9999999999999999</ele><time>2026-03-29T09:14:12.999Z</time></trkpt><trkpt lat="41.74985395953099" lon="12.265507078582226"><ele>1.0</ele><time>2026-03-29T09:14:14.999Z</time></trkpt><trkpt lat="41.74988302891953" lon="12.265617717944403"><ele>1.0</ele><time>2026-03-29T09:14:16.999Z</time></trkpt><trkpt lat="41.74991426370956" lon="12.265726015775721"><ele>1.0</ele><time>2026-03-29T09:14:18.999Z</time></trkpt><trkpt lat="41.749942225185016" lon="12.265834354159924"><ele>0.9999999999999999</ele><time>2026-03-29T09:14:20.999Z</time></trkpt><trkpt lat="41.74997172849354" lon="12.265939771362023"><ele>1.0</ele><time>2026-03-29T09:14:22.999Z</time></trkpt><trkpt lat="41.75000243265367" lon="12.266044287158087"><ele>0.8333333333333333</ele><time>2026-03-29T09:14:24.999Z</time></trkpt><trkpt lat="41.75003286436166" lon="12.266145804695798"><ele>0.6666666666666666</ele><time>2026-03-29T09:14:26.999Z</time></trkpt><trkpt lat="41.75005547073976" lon="12.26625153547543"><ele>0.5</ele><time>2026-03-29T09:14:28.999Z</time></trkpt><trkpt lat="41.750083236859254" lon="12.266359749942081"><ele>0.3333333333333333</ele><time>2026-03-29T09:14:30.999Z</time></trkpt><trkpt lat="41.75011270368581" lon="12.266462964650788"><ele>0.16666666666666666</ele><time>2026-03-29T09:14:32.999Z</time></trkpt><trkpt lat="41.75014412173257" lon="12.266560903149683"><ele>0.0</ele><time>2026-03-29T09:14:34.999Z</time></trkpt><trkpt lat="41.75017513708875" lon="12.266661065995905"><ele>-0.16666666666666666</ele><time>2026-03-29T09:14:36.999Z</time></trkpt><trkpt lat="41.75020962224528" lon="12.266759425280986"><ele>-0.3333333333333333</ele><time>2026-03-29T09:14:38.999Z</time></trkpt><trkpt lat="41.75023477522746" lon="12.266855973147646"><ele>-0.5</ele><time>2026-03-29T09:14:40.999Z</time></trkpt><trkpt lat="41.750253216947975" lon="12.26695314252986"><ele>-0.6666666666666666</ele><time>2026-03-29T09:14:42.999Z</time></trkpt><trkpt lat="41.75028812327402" lon="12.267049003244349"><ele>-0.8333333333333333</ele><time>2026-03-29T09:14:44.998Z</time></trkpt><trkpt lat="41.750322373587785" lon="12.267153035959305"><ele>-1.0</ele><time>2026-03-29T09:14:46.998Z</time></trkpt><trkpt lat="41.75034887678356" lon="12.267253923571984"><ele>-0.9999999999999999</ele><time>2026-03-29T09:14:48.998Z</time></trkpt><trkpt lat="41.750382739428744" lon="12.267361220985737"><ele>-1.0</ele><time>2026-03-29T09:14:50.998Z</time></trkpt><trkpt lat="41.75041744674972" lon="12.267468187683201"><ele>-1.0</ele><time>2026-03-29T09:14:52.998Z</time></trkpt><trkpt lat="41.75045368631957" lon="12.267576195913444"><ele>-1.0</ele><time>2026-03-29T09:14:54.998Z</time></trkpt><trkpt lat="41.75049015894951" lon="12.267682863241678"><ele>-0.9999999999999999</ele><time>2026-03-29T09:14:56.998Z</time></trkpt><trkpt lat="41.75052840431562" lon="12.267789570589402"><ele>-1.0</ele><time>2026-03-29T09:14:58.998Z</time></trkpt><trkpt lat="41.75056214160775" lon="12.26790027484836"><ele>-0.9999999999999999</ele><time>2026-03-29T09:15:00.998Z</time></trkpt><trkpt lat="41.75059427047884" lon="12.268006816753672"><ele>-1.0</ele><time>2026-03-29T09:15:02.998Z</time></trkpt><trkpt lat="41.750630756548844" lon="12.26810657259189"><ele>-1.0</ele><time>2026-03-29T09:15:04.998Z</time></trkpt><trkpt lat="41.750658267895666" lon="12.26820593073803"><ele>-1.0</ele><time>2026-03-29T09:15:06.998Z</time></trkpt><trkpt lat="41.75068806195051" lon="12.268309572426462"><ele>-0.9999999999999999</ele><time>2026-03-29T09:15:08.998Z</time></trkpt><trkpt lat="41.75072319922965" lon="12.268404185150532"><ele>-1.0</ele><time>2026-03-29T09:15:10.998Z</time></trkpt><trkpt lat="41.75075114665741" lon="12.26849972267811"><ele>-0.9999999999999999</ele><time>2026-03-29T09:15:12.998Z</time></trkpt><trkpt lat="41.75078211860559" lon="12.268601547145"><ele>-1.0</ele><time>2026-03-29T09:15:14.998Z</time></trkpt><trkpt lat="41.75081156078358" lon="12.268708364298764"><ele>-1.0</ele><time>2026-03-29T09:15:16.998Z</time></trkpt><trkpt lat="41.75083822863902" lon="12.268817186819728"><ele>-1.0</ele><time>2026-03-29T09:15:18.998Z</time></trkpt><trkpt lat="41.7508775973211" lon="12.268927179729136"><ele>-0.9999999999999999</ele><time>2026-03-29T09:15:20.998Z</time></trkpt><trkpt lat="41.75091204243513" lon="12.269031951624696"><ele>-1.0</ele><time>2026-03-29T09:15:22.998Z</time></trkpt><trkpt lat="41.75094720865052" lon="12.269133098243934"><ele>-0.8333333333333333</ele><time>2026-03-29T09:15:24.997Z</time></trkpt><trkpt lat="41.75097666497382" lon="12.269232083391962"><ele>-0.6666666666666666</ele><time>2026-03-29T09:15:26.997Z</time></trkpt><trkpt lat="41.75101319086343" lon="12.26933699838838"><ele>-0.5</ele><time>2026-03-29T09:15:28.997Z</time></trkpt><trkpt lat="41.75104911084307" lon="12.269439039487327"><ele>-0.3333333333333333</ele><time>2026-03-29T09:15:31Z</time></trkpt><trkpt lat="41.75108768337938" lon="12.269538335367661"><ele>-0.16666666666666666</ele><time>2026-03-29T09:15:33Z</time></trkpt><trkpt lat="41.7511231156866" lon="12.269630298578269"><ele>0.0</ele><time>2026-03-29T09:15:35Z</time></trkpt><trkpt lat="41.75115637959358" lon="12.269727067808892"><ele>0.3333333333333333</ele><time>2026-03-29T09:15:37Z</time></trkpt><trkpt lat="41.75118641951807" lon="12.269819385402062"><ele>0.6666666666666666</ele><time>2026-03-29T09:15:39Z</time></trkpt><trkpt lat="41.75121953349488" lon="12.26991279802955"><ele>1.0</ele><time>2026-03-29T09:15:41Z</time></trkpt><trkpt lat="41.7512512583048" lon="12.27000954805775"><ele>1.3333333333333333</ele><time>2026-03-29T09:15:43Z</time></trkpt><trkpt lat="41.751291134925495" lon="12.270101753222134"><ele>1.6666666666666665</ele><time>2026-03-29T09:15:45Z</time></trkpt><trkpt lat="41.75133410027571" lon="12.270203686355435"><ele>2.0</ele><time>2026-03-29T09:15:47Z</time></trkpt><trkpt lat="41.7513750110364" lon="12.270296791250578"><ele>1.9999999999999998</ele><time>2026-03-29T09:15:49Z</time></trkpt><trkpt lat="41.75141599141449" lon="12.270397806179396"><ele>2.0</ele><time>2026-03-29T09:15:51Z</time></trkpt><trkpt lat="41.751454529423526" lon="12.270489223440837"><ele>2.0</ele><time>2026-03-29T09:15:53Z</time></trkpt><trkpt lat="41.751492261851496" lon="12.27058590789216"><ele>2.0</ele><time>2026-03-29T09:15:55Z</time></trkpt><trkpt lat="41.75153383665905" lon="12.2706810388351"><ele>1.9999999999999998</ele><time>2026-03-29T09:15:57Z</time></trkpt><trkpt lat="41.75157371221896" lon="12.270779320620068"><ele>2.0</ele><time>2026-03-29T09:15:59Z</time></trkpt><trkpt lat="41.75161363948478" lon="12.270871166438633"><ele>1.8333333333333333</ele><time>2026-03-29T09:16:01Z</time></trkpt><trkpt lat="41.75166100379382" lon="12.27095889208097"><ele>1.6666666666666665</ele><time>2026-03-29T09:16:03Z</time></trkpt><trkpt lat="41.751698840561104" lon="12.27105920489926"><ele>1.5</ele><time>2026-03-29T09:16:05Z</time></trkpt><trkpt lat="41.75173325136314" lon="12.271157066451924"><ele>1.3333333333333333</ele><time>2026-03-29T09:16:07Z</time></trkpt><trkpt lat="41.75176815051579" lon="12.271255381563048"><ele>1.1666666666666665</ele><time>2026-03-29T09:16:09Z</time></trkpt><trkpt lat="41.75180653447816" lon="12.271346236036237"><ele>1.0</ele><time>2026-03-29T09:16:11Z</time></trkpt><trkpt lat="41.75184543803832" lon="12.271440064228694"><ele>1.1666666666666665</ele><time>2026-03-29T09:16:13Z</time></trkpt><trkpt lat="41.75188658678626" lon="12.271527546982055"><ele>1.3333333333333333</ele><time>2026-03-29T09:16:15Z</time></trkpt><trkpt lat="41.751920816539304" lon="12.271623369531946"><ele>1.5</ele><time>2026-03-29T09:16:16.999Z</time></trkpt><trkpt lat="41.75195289501178" lon="12.271718235770459"><ele>1.6666666666666665</ele><time>2026-03-29T09:16:18.999Z</time></trkpt><trkpt lat="41.7519875385532" lon="12.271817121034436"><ele>1.8333333333333333</ele><time>2026-03-29T09:16:20.999Z</time></trkpt><trkpt lat="41.75202197088671" lon="12.27191516702885"><ele>2.0</ele><time>2026-03-29T09:16:22.999Z</time></trkpt><trkpt lat="41.75206274054529" lon="12.272014788766334"><ele>1.9999999999999998</ele><time>2026-03-29T09:16:24.999Z</time></trkpt><trkpt lat="41.75209736520601" lon="12.272106823609855"><ele>2.0</ele><time>2026-03-29T09:16:26.999Z</time></trkpt><trkpt lat="41.752129596116625" lon="12.272200847107301"><ele>2.0</ele><time>2026-03-29T09:16:28.999Z</time></trkpt><trkpt lat="41.75215716375846" lon="12.272296928247918"><ele>2.0</ele><time>2026-03-29T09:16:30.999Z</time></trkpt><trkpt lat="41.75218877419706" lon="12.272395993468718"><ele>1.9999999999999998</ele><time>2026-03-29T09:16:32.999Z</time></trkpt><trkpt lat="41.75222666841966" lon="12.272486681961311"><ele>2.0</ele><time>2026-03-29T09:16:34.999Z</time></trkpt><trkpt lat="41.75226954745109" lon="12.272572456211702"><ele>1.9999999999999998</ele><time>2026-03-29T09:16:36.999Z</time></trkpt><trkpt lat="41.75230363190647" lon="12.272664002542795"><ele>2.0</ele><time>2026-03-29T09:16:38.999Z</time></trkpt><trkpt lat="41.75233934036527" lon="12.272748274484199"><ele>2.0</ele><time>2026-03-29T09:16:40.999Z</time></trkpt><trkpt lat="41.75237384810112" lon="12.272838673514173"><ele>2.0</ele><time>2026-03-29T09:16:42.999Z</time></trkpt><trkpt lat="41.75241272656982" lon="12.272927698995415"><ele>1.9999999999999998</ele><time>2026-03-29T09:16:44.999Z</time></trkpt><trkpt lat="41.75245119283813" lon="12.273022205449182"><ele>2.0</ele><time>2026-03-29T09:16:46.999Z</time></trkpt><trkpt lat="41.75248664269873" lon="12.273113008094686"><ele>2.0</ele><time>2026-03-29T09:16:48.999Z</time></trkpt><trkpt lat="41.752517966266225" lon="12.27320718609466"><ele>1.9999999999999998</ele><time>2026-03-29T09:16:50.999Z</time></trkpt><trkpt lat="41.75256024207395" lon="12.273293714234127"><ele>2.0</ele><time>2026-03-29T09:16:52.999Z</time></trkpt><trkpt lat="41.75259348402802" lon="12.2733695199606"><ele>2.0</ele><time>2026-03-29T09:16:54.999Z</time></trkpt><trkpt lat="41.752629612886054" lon="12.273449142277576"><ele>1.9999999999999998</ele><time>2026-03-29T09:16:56.998Z</time></trkpt><trkpt lat="41.75266601622336" lon="12.273533491713765"><ele>2.0</ele><time>2026-03-29T09:16:58.998Z</time></trkpt><trkpt lat="41.7527025697143" lon="12.273610459748244"><ele>2.0</ele><time>2026-03-29T09:17:00.998Z</time></trkpt><trkpt lat="41.752741930145675" lon="12.273686517966212"><ele>2.333333333333333</ele><time>2026-03-29T09:17:02.998Z</time></trkpt><trkpt lat="41.75277596109689" lon="12.273771082525037"><ele>2.6666666666666665</ele><time>2026-03-29T09:17:04.998Z</time></trkpt><trkpt lat="41.752816770582406" lon="12.273864176815046"><ele>3.0</ele><time>2026-03-29T09:17:06.998Z</time></trkpt><trkpt lat="41.75285633749864" lon="12.273948560073213"><ele>3.333333333333333</ele><time>2026-03-29T09:17:08.998Z</time></trkpt><trkpt lat="41.75289744460437" lon="12.27403466332527"><ele>3.6666666666666665</ele><time>2026-03-29T09:17:10.998Z</time></trkpt><trkpt lat="41.75293978566822" lon="12.274123164967778"><ele>4.0</ele><time>2026-03-29T09:17:12.998Z</time></trkpt><trkpt lat="41.75297617128677" lon="12.274210047736625"><ele>3.9999999999999996</ele><time>2026-03-29T09:17:14.998Z</time></trkpt><trkpt lat="41.75301565363836" lon="12.274291325683327"><ele>4.0</ele><time>2026-03-29T09:17:16.998Z</time></trkpt><trkpt lat="41.753055436794185" lon="12.27437679780581"><ele>4.0</ele><time>2026-03-29T09:17:18.998Z</time></trkpt><trkpt lat="41.75309403636957" lon="12.274460067099572"><ele>4.0</ele><time>2026-03-29T09:17:20.998Z</time></trkpt><trkpt lat="41.753136622752706" lon="12.274548196010333"><ele>3.9999999999999996</ele><time>2026-03-29T09:17:22.998Z</time></trkpt><trkpt lat="41.75318214856912" lon="12.274636588364395"><ele>4.0</ele><time>2026-03-29T09:17:24.998Z</time></trkpt><trkpt lat="41.75322072954429" lon="12.274730534443316"><ele>3.833333333333333</ele><time>2026-03-29T09:17:26.998Z</time></trkpt><trkpt lat="41.75326383984408" lon="12.27481996878046"><ele>3.6666666666666665</ele><time>2026-03-29T09:17:28.998Z</time></trkpt><trkpt lat="41.75330608117472" lon="12.274910773330895"><ele>3.5</ele><time>2026-03-29T09:17:30.998Z</time></trkpt><trkpt lat="41.753350820092145" lon="12.275008523355925"><ele>3.333333333333333</ele><time>2026-03-29T09:17:32.998Z</time></trkpt><trkpt lat="41.75339265960872" lon="12.275106824442119"><ele>3.1666666666666665</ele><time>2026-03-29T09:17:34.998Z</time></trkpt><trkpt lat="41.753434957352454" lon="12.275199631309784"><ele>3.0</ele><time>2026-03-29T09:17:37Z</time></trkpt><trkpt lat="41.7534736750898" lon="12.275292374717619"><ele>3.0</ele><time>2026-03-29T09:17:39Z</time></trkpt><trkpt lat="41.7535125253593" lon="12.275390163367787"><ele>3.0</ele><time>2026-03-29T09:17:41Z</time></trkpt><trkpt lat="41.753549298034876" lon="12.275490831605808"><ele>3.0</ele><time>2026-03-29T09:17:43Z</time></trkpt><trkpt lat="41.75358076926531" lon="12.275592841571589"><ele>3.0</ele><time>2026-03-29T09:17:45Z</time></trkpt><trkpt lat="41.75361473692461" lon="12.275690436999342"><ele>3.0</ele><time>2026-03-29T09:17:47Z</time></trkpt><trkpt lat="41.75365002178734" lon="12.27579045796264"><ele>3.0</ele><time>2026-03-29T09:17:49Z</time></trkpt><trkpt lat="41.75368551533526" lon="12.275889028551218"><ele>3.0</ele><time>2026-03-29T09:17:51Z</time></trkpt><trkpt lat="41.753716723177156" lon="12.275988797126479"><ele>3.0</ele><time>2026-03-29T09:17:53Z</time></trkpt><trkpt lat="41.75374794565089" lon="12.276084564732805"><ele>3.0</ele><time>2026-03-29T09:17:55Z</time></trkpt><trkpt lat="41.75378096405813" lon="12.276185422137718"><ele>3.0</ele><time>2026-03-29T09:17:57Z</time></trkpt><trkpt lat="41.753814673227254" lon="12.276278273919962"><ele>3.0</ele><time>2026-03-29T09:17:59Z</time></trkpt><trkpt lat="41.75384950166011" lon="12.27638137699946"><ele>3.0</ele><time>2026-03-29T09:18:01Z</time></trkpt><trkpt lat="41.753879739291946" lon="12.27648955351566"><ele>3.0</ele><time>2026-03-29T09:18:03Z</time></trkpt><trkpt lat="41.75391221375375" lon="12.276593520994531"><ele>3.0</ele><time>2026-03-29T09:18:05Z</time></trkpt><trkpt lat="41.753944132464376" lon="12.276693832788645"><ele>3.0</ele><time>2026-03-29T09:18:07Z</time></trkpt><trkpt lat="41.753980610917395" lon="12.27680226748684"><ele>3.0</ele><time>2026-03-29T09:18:09Z</time></trkpt><trkpt lat="41.75401959644567" lon="12.276907134528113"><ele>3.0</ele><time>2026-03-29T09:18:11Z</time></trkpt><trkpt lat="41.75407308756523" lon="12.276994666901395"><ele>3.0</ele><time>2026-03-29T09:18:13Z</time></trkpt><trkpt lat="41.75414885625682" lon="12.277051407550397"><ele>2.9999999999999996</ele><time>2026-03-29T09:18:15Z</time></trkpt><trkpt lat="41.75421841784665" lon="12.277103874749955"><ele>3.0</ele><time>2026-03-29T09:18:16.999Z</time></trkpt><trkpt lat="41.75428130417439" lon="12.27715417656846"><ele>3.0</ele><time>2026-03-29T09:18:18.999Z</time></trkpt><trkpt lat="41.754341708887864" lon="12.277201239757083"><ele>3.0</ele><time>2026-03-29T09:18:20.999Z</time></trkpt><trkpt lat="41.75441251983651" lon="12.27725803616227"><ele>3.0</ele><time>2026-03-29T09:18:23.999Z</time></trkpt><trkpt lat="41.75446607741861" lon="12.277313841385148"><ele>2.9999999999999996</ele><time>2026-03-29T09:18:28.999Z</time></trkpt><trkpt lat="41.75452570495022" lon="12.277283927796063"><ele>3.0</ele><time>2026-03-29T09:18:31.999Z</time></trkpt><trkpt lat="41.75455484756592" lon="12.277190168371371"><ele>3.5</ele><time>2026-03-29T09:18:33.999Z</time></trkpt><trkpt lat="41.75458152718909" lon="12.277089274644704"><ele>4.0</ele><time>2026-03-29T09:18:35.999Z</time></trkpt><trkpt lat="41.75461166009359" lon="12.276986057018513"><ele>4.5</ele><time>2026-03-29T09:18:37.999Z</time></trkpt><trkpt lat="41.75466594460913" lon="12.276893924083744"><ele>5.0</ele><time>2026-03-29T09:18:40.999Z</time></trkpt><trkpt lat="41.75471388653528" lon="12.276964694403027"><ele>5.5</ele><time>2026-03-29T09:18:42.999Z</time></trkpt><trkpt lat="41.75469157054157" lon="12.277075921680726"><ele>6.0</ele><time>2026-03-29T09:18:44.999Z</time></trkpt><trkpt lat="41.75467789465915" lon="12.277171533795492"><ele>5.5</ele><time>2026-03-29T09:18:46.999Z</time></trkpt><trkpt lat="41.75466687766291" lon="12.277273565263368"><ele>5.0</ele><time>2026-03-29T09:18:48.999Z</time></trkpt><trkpt lat="41.75466344459559" lon="12.277377845226223"><ele>4.5</ele><time>2026-03-29T09:18:50.999Z</time></trkpt><trkpt lat="41.75465781607619" lon="12.277474854633235"><ele>4.0</ele><time>2026-03-29T09:18:52.999Z</time></trkpt><trkpt lat="41.7546585951481" lon="12.277563678043572"><ele>3.5</ele><time>2026-03-29T09:18:54.998Z</time></trkpt><trkpt lat="41.75466995144473" lon="12.277675621048202"><ele>3.0</ele><time>2026-03-29T09:18:57.998Z</time></trkpt><trkpt lat="41.754674959232325" lon="12.277773095964145"><ele>3.0</ele><time>2026-03-29T09:18:59.998Z</time></trkpt><trkpt lat="41.754650749006004" lon="12.277893218336153"><ele>3.0</ele><time>2026-03-29T09:19:02.998Z</time></trkpt><trkpt lat="41.75463652052398" lon="12.278013576669046"><ele>3.0</ele><time>2026-03-29T09:19:05.998Z</time></trkpt><trkpt lat="41.75461921743959" lon="12.278119422626991"><ele>3.0</ele><time>2026-03-29T09:19:08.998Z</time></trkpt><trkpt lat="41.754609309293194" lon="12.278227593564184"><ele>3.0</ele><time>2026-03-29T09:19:11.998Z</time></trkpt><trkpt lat="41.754616590922204" lon="12.278323117519674"><ele>3.0</ele><time>2026-03-29T09:19:14.998Z</time></trkpt><trkpt lat="41.75466988135202" lon="12.278387637160206"><ele>3.0</ele><time>2026-03-29T09:19:17.998Z</time></trkpt><trkpt lat="41.75472122785217" lon="12.278469002089581"><ele>3.0</ele><time>2026-03-29T09:19:20.998Z</time></trkpt><trkpt lat="41.754775286998" lon="12.278565827873585"><ele>3.0</ele><time>2026-03-29T09:19:23.998Z</time></trkpt><trkpt lat="41.754815276199984" lon="12.278636645684763"><ele>3.0</ele><time>2026-03-29T09:19:25.998Z</time></trkpt><trkpt lat="41.75486915809721" lon="12.278731569697227"><ele>3.0</ele><time>2026-03-29T09:19:28.998Z</time></trkpt><trkpt lat="41.75491324871326" lon="12.278816108999255"><ele>3.0</ele><time>2026-03-29T09:19:31.998Z</time></trkpt><trkpt lat="41.75494416788507" lon="12.278889742557872"><ele>3.3333333333333335</ele><time>2026-03-29T09:19:33.998Z</time></trkpt><trkpt lat="41.754995731342355" lon="12.278990040710564"><ele>3.666666666666667</ele><time>2026-03-29T09:19:36.997Z</time></trkpt><trkpt lat="41.755041515123025" lon="12.27908699656565"><ele>4.0</ele><time>2026-03-29T09:19:39.997Z</time></trkpt><trkpt lat="41.75506888883553" lon="12.279188318261674"><ele>4.333333333333334</ele><time>2026-03-29T09:19:43Z</time></trkpt><trkpt lat="41.75510462108677" lon="12.27930005524854"><ele>4.666666666666667</ele><time>2026-03-29T09:19:46Z</time></trkpt><trkpt lat="41.75515787675377" lon="12.27939498737831"><ele>5.0</ele><time>2026-03-29T09:19:49Z</time></trkpt><trkpt lat="41.7551967100822" lon="12.279497651273013"><ele>4.833333333333334</ele><time>2026-03-29T09:19:52Z</time></trkpt><trkpt lat="41.75524146507835" lon="12.279595196756826"><ele>4.666666666666667</ele><time>2026-03-29T09:19:55Z</time></trkpt><trkpt lat="41.75529972812935" lon="12.279687653984857"><ele>4.5</ele><time>2026-03-29T09:19:58Z</time></trkpt><trkpt lat="41.75533791618955" lon="12.27980240687896"><ele>4.333333333333333</ele><time>2026-03-29T09:20:01Z</time></trkpt><trkpt lat="41.75538226906588" lon="12.279903561538859"><ele>4.166666666666666</ele><time>2026-03-29T09:20:04Z</time></trkpt><trkpt lat="41.75542440049472" lon="12.279968025530868"><ele>4.0</ele><time>2026-03-29T09:20:06Z</time></trkpt><trkpt lat="41.755471163858" lon="12.280066987432937"><ele>4.0</ele><time>2026-03-29T09:20:09Z</time></trkpt><trkpt lat="41.75550533721723" lon="12.280138499794475"><ele>3.9999999999999996</ele><time>2026-03-29T09:20:11Z</time></trkpt><trkpt lat="41.75554017721589" lon="12.280213120958942"><ele>4.0</ele><time>2026-03-29T09:20:13Z</time></trkpt><trkpt lat="41.75556644565319" lon="12.280295144133865"><ele>4.0</ele><time>2026-03-29T09:20:15Z</time></trkpt><trkpt lat="41.75559637667226" lon="12.280375660649632"><ele>3.9999999999999996</ele><time>2026-03-29T09:20:17Z</time></trkpt><trkpt lat="41.75562866397826" lon="12.280453775543018"><ele>4.0</ele><time>2026-03-29T09:20:19Z</time></trkpt><trkpt lat="41.75566072412807" lon="12.280527843122574"><ele>4.0</ele><time>2026-03-29T09:20:21Z</time></trkpt><trkpt lat="41.75572631764767" lon="12.280590915333383"><ele>3.833333333333333</ele><time>2026-03-29T09:20:24Z</time></trkpt><trkpt lat="41.75579277079133" lon="12.280673473623494"><ele>3.6666666666666665</ele><time>2026-03-29T09:20:27Z</time></trkpt><trkpt lat="41.75582589938261" lon="12.28074788404567"><ele>3.5</ele><time>2026-03-29T09:20:29Z</time></trkpt><trkpt lat="41.75586585954864" lon="12.280820535714765"><ele>3.333333333333333</ele><time>2026-03-29T09:20:31Z</time></trkpt><trkpt lat="41.755921974558355" lon="12.280917273378336"><ele>3.1666666666666665</ele><time>2026-03-29T09:20:33.999Z</time></trkpt><trkpt lat="41.75596537715914" lon="12.280999233477875"><ele>3.0</ele><time>2026-03-29T09:20:36.999Z</time></trkpt><trkpt lat="41.756033058151445" lon="12.281077501683502"><ele>3.0</ele><time>2026-03-29T09:20:39.999Z</time></trkpt><trkpt lat="41.7561087506865" lon="12.281151102191822"><ele>3.0</ele><time>2026-03-29T09:20:42.999Z</time></trkpt><trkpt lat="41.75617515612593" lon="12.281228844831682"><ele>3.0</ele><time>2026-03-29T09:20:45.999Z</time></trkpt><trkpt lat="41.75623576323045" lon="12.281306328570022"><ele>3.0</ele><time>2026-03-29T09:20:48.999Z</time></trkpt><trkpt lat="41.75630472874645" lon="12.281391518567983"><ele>3.0</ele><time>2026-03-29T09:20:51.999Z</time></trkpt><trkpt lat="41.75634884419585" lon="12.281453668044193"><ele>3.0</ele><time>2026-03-29T09:20:53.999Z</time></trkpt><trkpt lat="41.75640856748637" lon="12.281538600597187"><ele>3.0</ele><time>2026-03-29T09:20:56.999Z</time></trkpt><trkpt lat="41.75647427528734" lon="12.281605391652086"><ele>3.0</ele><time>2026-03-29T09:20:59.999Z</time></trkpt><trkpt lat="41.75653309344594" lon="12.281677135966664"><ele>3.0</ele><time>2026-03-29T09:21:02.999Z</time></trkpt><trkpt lat="41.75656147055315" lon="12.281763511179324"><ele>3.0</ele><time>2026-03-29T09:21:05.999Z</time></trkpt><trkpt lat="41.75660251440194" lon="12.281869228031084"><ele>3.0</ele><time>2026-03-29T09:21:08.999Z</time></trkpt><trkpt lat="41.75664328989011" lon="12.281943889751181"><ele>3.0</ele><time>2026-03-29T09:21:10.999Z</time></trkpt><trkpt lat="41.75669857346332" lon="12.282029738809843"><ele>3.0</ele><time>2026-03-29T09:21:12.999Z</time></trkpt><trkpt lat="41.75673195253865" lon="12.28215268014056"><ele>3.0</ele><time>2026-03-29T09:21:14.998Z</time></trkpt><trkpt lat="41.75681284750758" lon="12.282248160797742"><ele>3.0</ele><time>2026-03-29T09:21:16.998Z</time></trkpt><trkpt lat="41.756801042203065" lon="12.282390300520474"><ele>3.0</ele><time>2026-03-29T09:21:18.998Z</time></trkpt><trkpt lat="41.75671222250203" lon="12.282461890729206"><ele>3.0</ele><time>2026-03-29T09:21:20.998Z</time></trkpt><trkpt lat="41.75664519583696" lon="12.282529032301216"><ele>2.8571428571428568</ele><time>2026-03-29T09:21:22.998Z</time></trkpt><trkpt lat="41.7565853460543" lon="12.282586393049451"><ele>2.7142857142857144</ele><time>2026-03-29T09:21:24.998Z</time></trkpt><trkpt lat="41.75652214087577" lon="12.282620206260065"><ele>2.571428571428571</ele><time>2026-03-29T09:21:26.998Z</time></trkpt><trkpt lat="41.75649272203433" lon="12.28269962893403"><ele>2.4285714285714284</ele><time>2026-03-29T09:21:28.998Z</time></trkpt><trkpt lat="41.75648443436244" lon="12.282813650407926"><ele>2.2857142857142856</ele><time>2026-03-29T09:21:31.998Z</time></trkpt><trkpt lat="41.756477240422676" lon="12.282917470907316"><ele>2.142857142857143</ele><time>2026-03-29T09:21:35.998Z</time></trkpt><trkpt lat="41.756459832671055" lon="12.283016701444424"><ele>2.0</ele><time>2026-03-29T09:21:39.998Z</time></trkpt><trkpt lat="41.75639545757331" lon="12.283057742431946"><ele>1.857142857142857</ele><time>2026-03-29T09:21:42.998Z</time></trkpt><trkpt lat="41.756335975881385" lon="12.283105612187553"><ele>1.714285714285714</ele><time>2026-03-29T09:21:45.998Z</time></trkpt><trkpt lat="41.75628355190712" lon="12.283158617410692"><ele>1.5714285714285714</ele><time>2026-03-29T09:21:49.001Z</time></trkpt><trkpt lat="41.75622696429931" lon="12.283223029354794"><ele>1.4285714285714284</ele><time>2026-03-29T09:21:53.001Z</time></trkpt><trkpt lat="41.75617241159823" lon="12.283277363672816"><ele>1.2857142857142856</ele><time>2026-03-29T09:21:58.001Z</time></trkpt><trkpt lat="41.75612672032215" lon="12.283361844467764"><ele>1.1428571428571428</ele><time>2026-03-29T09:22:04Z</time></trkpt><trkpt lat="41.75609200067576" lon="12.28343618225771"><ele>1.0</ele><time>2026-03-29T09:22:07Z</time></trkpt><trkpt lat="41.75605259373656" lon="12.283532429590185"><ele>1.0</ele><time>2026-03-29T09:22:11Z</time></trkpt><trkpt lat="41.75603635365483" lon="12.283614489887809"><ele>0.9999999999999999</ele><time>2026-03-29T09:22:15Z</time></trkpt><trkpt lat="41.75601863379238" lon="12.28369875300384"><ele>1.0</ele><time>2026-03-29T09:22:23Z</time></trkpt><trkpt lat="41.756057450147175" lon="12.28361813677407"><ele>1.0</ele><time>2026-03-29T09:22:27Z</time></trkpt><trkpt lat="41.75607092430714" lon="12.283534699425967"><ele>0.9999999999999999</ele><time>2026-03-29T09:22:30Z</time></trkpt><trkpt lat="41.75608186705299" lon="12.283449724233378"><ele>1.0</ele><time>2026-03-29T09:22:33Z</time></trkpt><trkpt lat="41.756092025485444" lon="12.28335779153392"><ele>1.0</ele><time>2026-03-29T09:22:37Z</time></trkpt><trkpt lat="41.756140016255934" lon="12.283290929133496"><ele>1.0</ele><time>2026-03-29T09:22:41.999Z</time></trkpt><trkpt lat="41.75619620514319" lon="12.28323985334979"><ele>0.9999999999999999</ele><time>2026-03-29T09:22:45.999Z</time></trkpt><trkpt lat="41.75626469430987" lon="12.283158725127965"><ele>1.0</ele><time>2026-03-29T09:22:48.999Z</time></trkpt><trkpt lat="41.75632573861285" lon="12.283093358022006"><ele>1.0</ele><time>2026-03-29T09:22:50.999Z</time></trkpt><trkpt lat="41.75639492119887" lon="12.283053351470635"><ele>0.9999999999999999</ele><time>2026-03-29T09:22:52.999Z</time></trkpt><trkpt lat="41.75645525202141" lon="12.283010739324439"><ele>1.0</ele><time>2026-03-29T09:22:54.999Z</time></trkpt><trkpt lat="41.75650933197399" lon="12.28296321722009"><ele>1.0</ele><time>2026-03-29T09:22:57.999Z</time></trkpt><trkpt lat="41.75656422014141" lon="12.283023530118534"><ele>1.0</ele><time>2026-03-29T09:23:01.999Z</time></trkpt><trkpt lat="41.75659848959461" lon="12.283102329621935"><ele>0.9999999999999999</ele><time>2026-03-29T09:23:04.999Z</time></trkpt><trkpt lat="41.756643859058784" lon="12.283176832623436"><ele>1.0</ele><time>2026-03-29T09:23:07.999Z</time></trkpt><trkpt lat="41.75668924147797" lon="12.283276139992696"><ele>1.0</ele><time>2026-03-29T09:23:10.999Z</time></trkpt><trkpt lat="41.756722407618895" lon="12.283353876209821"><ele>0.9999999999999999</ele><time>2026-03-29T09:23:13.999Z</time></trkpt><trkpt lat="41.756771471293504" lon="12.283413487764566"><ele>1.0</ele><time>2026-03-29T09:23:19.999Z</time></trkpt><trkpt lat="41.75671358108678" lon="12.28335473546335"><ele>1.0</ele><time>2026-03-29T09:25:16.999Z</time></trkpt><trkpt lat="41.75668101601437" lon="12.283280161698231"><ele>1.0</ele><time>2026-03-29T09:25:19.999Z</time></trkpt><trkpt lat="41.756644132632786" lon="12.283202547542018"><ele>0.9999999999999999</ele><time>2026-03-29T09:25:22.999Z</time></trkpt><trkpt lat="41.756613788926266" lon="12.283126229026468"><ele>1.0</ele><time>2026-03-29T09:25:25.998Z</time></trkpt><trkpt lat="41.75657278602652" lon="12.283034769534972"><ele>1.0</ele><time>2026-03-29T09:25:29.998Z</time></trkpt><trkpt lat="41.75653582573188" lon="12.282952829811133"><ele>0.9999999999999999</ele><time>2026-03-29T09:25:32.998Z</time></trkpt><trkpt lat="41.75651064845548" lon="12.282866926765346"><ele>1.0</ele><time>2026-03-29T09:25:35.998Z</time></trkpt><trkpt lat="41.75647560512354" lon="12.28277018703288"><ele>1.0</ele><time>2026-03-29T09:25:39.998Z</time></trkpt><trkpt lat="41.75648830470981" lon="12.282682989885027"><ele>1.0</ele><time>2026-03-29T09:25:42.998Z</time></trkpt><trkpt lat="41.7565411855102" lon="12.282628433213045"><ele>0.9999999999999999</ele><time>2026-03-29T09:25:45.998Z</time></trkpt><trkpt lat="41.75660134409937" lon="12.282570015353148"><ele>1.0</ele><time>2026-03-29T09:25:49.998Z</time></trkpt><trkpt lat="41.75666381770456" lon="12.2825138600405"><ele>1.0</ele><time>2026-03-29T09:25:53.998Z</time></trkpt><trkpt lat="41.75671948512998" lon="12.28246292620003"><ele>0.9999999999999999</ele><time>2026-03-29T09:25:56.998Z</time></trkpt><trkpt lat="41.756772965223085" lon="12.282395609606006"><ele>1.0</ele><time>2026-03-29T09:26:01.001Z</time></trkpt><trkpt lat="41.75683944473547" lon="12.282347827165104"><ele>1.0</ele><time>2026-03-29T09:26:05.001Z</time></trkpt><trkpt lat="41.75689544525515" lon="12.28229145729413"><ele>1.0</ele><time>2026-03-29T09:26:09Z</time></trkpt><trkpt lat="41.75696758893842" lon="12.282296806914315"><ele>0.9999999999999999</ele><time>2026-03-29T09:26:13Z</time></trkpt><trkpt lat="41.757030841463674" lon="12.282349751613383"><ele>1.0</ele><time>2026-03-29T09:26:16.999Z</time></trkpt><trkpt lat="41.75709790985749" lon="12.282390280750892"><ele>1.0</ele><time>2026-03-29T09:26:20.999Z</time></trkpt><trkpt lat="41.75715585673746" lon="12.282453094586575"><ele>0.9999999999999999</ele><time>2026-03-29T09:26:24.999Z</time></trkpt><trkpt lat="41.75722377099108" lon="12.282502764278204"><ele>1.0</ele><time>2026-03-29T09:26:29.999Z</time></trkpt><trkpt lat="41.7572969379989" lon="12.28252367444681"><ele>1.0</ele><time>2026-03-29T09:26:33.999Z</time></trkpt><trkpt lat="41.75736842753967" lon="12.282566367149656"><ele>1.0</ele><time>2026-03-29T09:26:37.999Z</time></trkpt><trkpt lat="41.75743138594603" lon="12.282565153123304"><ele>0.9999999999999999</ele><time>2026-03-29T09:26:41.999Z</time></trkpt><trkpt lat="41.75751084646596" lon="12.28257196857682"><ele>1.0</ele><time>2026-03-29T09:26:45.999Z</time></trkpt><trkpt lat="41.75755942457532" lon="12.282667603573666"><ele>1.0</ele><time>2026-03-29T09:28:02.997Z</time></trkpt><trkpt lat="41.757494894326925" lon="12.28263383004609"><ele>0.9999999999999999</ele><time>2026-03-29T09:28:39.999Z</time></trkpt><trkpt lat="41.75743210449957" lon="12.282596610819777"><ele>1.0</ele><time>2026-03-29T09:28:47.999Z</time></trkpt><trkpt lat="41.757372723760575" lon="12.282565163051451"><ele>1.0</ele><time>2026-03-29T09:28:55.999Z</time></trkpt><trkpt lat="41.75731027981016" lon="12.282534148217287"><ele>1.0</ele><time>2026-03-29T09:29:03.998Z</time></trkpt><trkpt lat="41.757250211939756" lon="12.282498288794036"><ele>0.9999999999999999</ele><time>2026-03-29T09:29:11.998Z</time></trkpt><trkpt lat="41.75719383609837" lon="12.28244115753381"><ele>1.0</ele><time>2026-03-29T09:29:20.998Z</time></trkpt><trkpt lat="41.757137173596696" lon="12.282403840883864"><ele>1.0</ele><time>2026-03-29T09:29:28.998Z</time></trkpt><trkpt lat="41.75708324144846" lon="12.282359871131879"><ele>0.9999999999999999</ele><time>2026-03-29T09:29:36.998Z</time></trkpt><trkpt lat="41.75702141563447" lon="12.282319335280919"><ele>1.0</ele><time>2026-03-29T09:29:44.997Z</time></trkpt><trkpt lat="41.756963906294104" lon="12.282274797290183"><ele>1.0</ele><time>2026-03-29T09:29:52.997Z</time></trkpt><trkpt lat="41.7569020654816" lon="12.282230987463512"><ele>1.2857142857142856</ele><time>2026-03-29T09:30:00.997Z</time></trkpt><trkpt lat="41.75684253788523" lon="12.282182811998183"><ele>1.5714285714285712</ele><time>2026-03-29T09:30:08.997Z</time></trkpt><trkpt lat="41.75679306341709" lon="12.282128297694694"><ele>1.857142857142857</ele><time>2026-03-29T09:30:16Z</time></trkpt><trkpt lat="41.75674200084747" lon="12.28206672011383"><ele>2.142857142857143</ele><time>2026-03-29T09:30:24Z</time></trkpt><trkpt lat="41.756692107749465" lon="12.281997356012692"><ele>2.4285714285714284</ele><time>2026-03-29T09:30:32.999Z</time></trkpt><trkpt lat="41.756646272073944" lon="12.281938184139612"><ele>2.714285714285714</ele><time>2026-03-29T09:30:39.999Z</time></trkpt><trkpt lat="41.75663263650065" lon="12.281854258173096"><ele>3.0</ele><time>2026-03-29T09:30:46.999Z</time></trkpt><trkpt lat="41.756694443328506" lon="12.2818279510655"><ele>2.9999999999999996</ele><time>2026-03-29T09:31:17.998Z</time></trkpt><trkpt lat="41.75673634305657" lon="12.281900506146895"><ele>3.0</ele><time>2026-03-29T09:31:21.998Z</time></trkpt><trkpt lat="41.756791765075164" lon="12.281964047319178"><ele>3.0</ele><time>2026-03-29T09:31:25.998Z</time></trkpt><trkpt lat="41.75685396742921" lon="12.282028640677188"><ele>3.0</ele><time>2026-03-29T09:31:29.998Z</time></trkpt><trkpt lat="41.75690254850761" lon="12.28208733386366"><ele>3.0</ele><time>2026-03-29T09:31:32.998Z</time></trkpt><trkpt lat="41.75696617753198" lon="12.282128501685472"><ele>2.9999999999999996</ele><time>2026-03-29T09:31:35.998Z</time></trkpt><trkpt lat="41.757029575199034" lon="12.282191305440824"><ele>3.0</ele><time>2026-03-29T09:31:38.998Z</time></trkpt><trkpt lat="41.757093236380044" lon="12.282253432435873"><ele>2.714285714285714</ele><time>2026-03-29T09:31:41.998Z</time></trkpt><trkpt lat="41.75714633137655" lon="12.282303381687397"><ele>2.4285714285714284</ele><time>2026-03-29T09:31:44.998Z</time></trkpt><trkpt lat="41.75720047079321" lon="12.282355851612683"><ele>2.142857142857143</ele><time>2026-03-29T09:31:48.997Z</time></trkpt><trkpt lat="41.75725754523755" lon="12.282394214515472"><ele>1.857142857142857</ele><time>2026-03-29T09:31:51.997Z</time></trkpt><trkpt lat="41.75731859366627" lon="12.28243267084818"><ele>1.5714285714285712</ele><time>2026-03-29T09:31:54.997Z</time></trkpt><trkpt lat="41.757397063228815" lon="12.28246887754965"><ele>1.2857142857142856</ele><time>2026-03-29T09:31:58.997Z</time></trkpt><trkpt lat="41.75747646573972" lon="12.282504278243982"><ele>1.0</ele><time>2026-03-29T09:32:02.997Z</time></trkpt><trkpt lat="41.75755102495479" lon="12.282541935148936"><ele>1.0</ele><time>2026-03-29T09:32:06.997Z</time></trkpt><trkpt lat="41.75761158133436" lon="12.28257574090426"><ele>0.9999999999999999</ele><time>2026-03-29T09:32:09.997Z</time></trkpt><trkpt lat="41.75767272926484" lon="12.282596235997024"><ele>1.0</ele><time>2026-03-29T09:32:12.997Z</time></trkpt><trkpt lat="41.757735646169415" lon="12.282616696186404"><ele>1.0</ele><time>2026-03-29T09:32:15.997Z</time></trkpt><trkpt lat="41.75780593772643" lon="12.282642377673984"><ele>0.9999999999999999</ele><time>2026-03-29T09:32:19Z</time></trkpt><trkpt lat="41.7578970374933" lon="12.282665185472982"><ele>1.0</ele><time>2026-03-29T09:32:22Z</time></trkpt><trkpt lat="41.757970452961295" lon="12.282684447043637"><ele>1.0</ele><time>2026-03-29T09:32:24Z</time></trkpt><trkpt lat="41.758040114434486" lon="12.282701396800203"><ele>1.0</ele><time>2026-03-29T09:32:26Z</time></trkpt><trkpt lat="41.758107826695074" lon="12.282710116900658"><ele>0.9999999999999999</ele><time>2026-03-29T09:32:28Z</time></trkpt><trkpt lat="41.75817477132774" lon="12.282719125978696"><ele>1.0</ele><time>2026-03-29T09:32:30Z</time></trkpt><trkpt lat="41.758238121564546" lon="12.282731651591593"><ele>1.0</ele><time>2026-03-29T09:32:32Z</time></trkpt><trkpt lat="41.7583040675828" lon="12.28273576521672"><ele>0.9999999999999999</ele><time>2026-03-29T09:32:33.999Z</time></trkpt><trkpt lat="41.758396066907395" lon="12.282736944690544"><ele>1.0</ele><time>2026-03-29T09:32:36.999Z</time></trkpt><trkpt lat="41.75846234810084" lon="12.282735548511745"><ele>1.0</ele><time>2026-03-29T09:32:38.999Z</time></trkpt><trkpt lat="41.75853243544714" lon="12.282732420170966"><ele>1.2857142857142856</ele><time>2026-03-29T09:32:40.999Z</time></trkpt><trkpt lat="41.75859831748324" lon="12.282731570523232"><ele>1.5714285714285712</ele><time>2026-03-29T09:32:42.999Z</time></trkpt><trkpt lat="41.75866416613656" lon="12.282719294971184"><ele>1.857142857142857</ele><time>2026-03-29T09:32:44.999Z</time></trkpt><trkpt lat="41.75873032719248" lon="12.28271423404645"><ele>2.142857142857143</ele><time>2026-03-29T09:32:46.999Z</time></trkpt><trkpt lat="41.75879556910505" lon="12.282705482190673"><ele>2.4285714285714284</ele><time>2026-03-29T09:32:48.999Z</time></trkpt><trkpt lat="41.758859194564934" lon="12.282690020115345"><ele>2.714285714285714</ele><time>2026-03-29T09:32:50.999Z</time></trkpt><trkpt lat="41.758924971002784" lon="12.282673087044666"><ele>3.0</ele><time>2026-03-29T09:32:52.999Z</time></trkpt><trkpt lat="41.75898830297375" lon="12.282655053312704"><ele>2.9999999999999996</ele><time>2026-03-29T09:32:54.999Z</time></trkpt><trkpt lat="41.75905474996974" lon="12.282630377092556"><ele>3.0</ele><time>2026-03-29T09:32:56.999Z</time></trkpt><trkpt lat="41.759119938659516" lon="12.282611505991541"><ele>3.0</ele><time>2026-03-29T09:32:58.999Z</time></trkpt><trkpt lat="41.759187514084076" lon="12.282591001754987"><ele>3.0</ele><time>2026-03-29T09:33:00.999Z</time></trkpt><trkpt lat="41.75925493611658" lon="12.282569255491012"><ele>3.0</ele><time>2026-03-29T09:33:02.999Z</time></trkpt><trkpt lat="41.7593143288085" lon="12.282537246215629"><ele>2.9999999999999996</ele><time>2026-03-29T09:33:04.999Z</time></trkpt><trkpt lat="41.759401050885444" lon="12.282491541673425"><ele>3.0</ele><time>2026-03-29T09:33:07.999Z</time></trkpt><trkpt lat="41.75946624814718" lon="12.282476438158456"><ele>3.0</ele><time>2026-03-29T09:33:09.999Z</time></trkpt><trkpt lat="41.75953092291979" lon="12.282445688831773"><ele>3.0</ele><time>2026-03-29T09:33:11.999Z</time></trkpt><trkpt lat="41.759591365082194" lon="12.282414914734948"><ele>3.0</ele><time>2026-03-29T09:33:13.998Z</time></trkpt><trkpt lat="41.7596675373952" lon="12.282357267171742"><ele>3.0</ele><time>2026-03-29T09:33:16.998Z</time></trkpt><trkpt lat="41.75974373189732" lon="12.282295361853983"><ele>3.0</ele><time>2026-03-29T09:33:19.998Z</time></trkpt><trkpt lat="41.759827609397874" lon="12.282236255653181"><ele>3.0</ele><time>2026-03-29T09:33:22.998Z</time></trkpt><trkpt lat="41.759882409124074" lon="12.282193506276625"><ele>3.1428571428571423</ele><time>2026-03-29T09:33:24.998Z</time></trkpt><trkpt lat="41.759940569323916" lon="12.282144212611609"><ele>3.2857142857142856</ele><time>2026-03-29T09:33:26.998Z</time></trkpt><trkpt lat="41.75999796751538" lon="12.282099532082617"><ele>3.4285714285714284</ele><time>2026-03-29T09:33:28.998Z</time></trkpt><trkpt lat="41.760058308218824" lon="12.282049939390767"><ele>3.571428571428571</ele><time>2026-03-29T09:33:30.998Z</time></trkpt><trkpt lat="41.76011097146905" lon="12.281999181815104"><ele>3.714285714285714</ele><time>2026-03-29T09:33:32.998Z</time></trkpt><trkpt lat="41.76016548284379" lon="12.281950117778734"><ele>3.8571428571428568</ele><time>2026-03-29T09:33:34.998Z</time></trkpt><trkpt lat="41.76023976596005" lon="12.281874116547085"><ele>4.0</ele><time>2026-03-29T09:33:37.998Z</time></trkpt><trkpt lat="41.760292896093176" lon="12.281822076430975"><ele>4.0</ele><time>2026-03-29T09:33:39.998Z</time></trkpt><trkpt lat="41.760346301205416" lon="12.281774852744046"><ele>3.9999999999999996</ele><time>2026-03-29T09:33:41.998Z</time></trkpt><trkpt lat="41.760426858779724" lon="12.281708729578984"><ele>4.0</ele><time>2026-03-29T09:33:44.998Z</time></trkpt><trkpt lat="41.76048325711039" lon="12.281666170114159"><ele>4.0</ele><time>2026-03-29T09:33:46.998Z</time></trkpt><trkpt lat="41.76053943090684" lon="12.281618862776567"><ele>3.9999999999999996</ele><time>2026-03-29T09:33:48.998Z</time></trkpt><trkpt lat="41.76059327704873" lon="12.281565993901008"><ele>4.0</ele><time>2026-03-29T09:33:50.997Z</time></trkpt><trkpt lat="41.76064568812788" lon="12.281513079656476"><ele>4.0</ele><time>2026-03-29T09:33:52.997Z</time></trkpt><trkpt lat="41.760699133374786" lon="12.281463917511694"><ele>3.9999999999999996</ele><time>2026-03-29T09:33:54.997Z</time></trkpt><trkpt lat="41.76077765840331" lon="12.281394109706321"><ele>4.0</ele><time>2026-03-29T09:33:57.997Z</time></trkpt><trkpt lat="41.760848241144124" lon="12.281316965707129"><ele>4.0</ele><time>2026-03-29T09:34:00.997Z</time></trkpt><trkpt lat="41.760923503157606" lon="12.281247134720322"><ele>4.0</ele><time>2026-03-29T09:34:03.997Z</time></trkpt><trkpt lat="41.76097626410198" lon="12.281199634084723"><ele>3.9999999999999996</ele><time>2026-03-29T09:34:05.997Z</time></trkpt><trkpt lat="41.76105426764009" lon="12.281129431887845"><ele>4.0</ele><time>2026-03-29T09:34:08.997Z</time></trkpt><trkpt lat="41.76110829198553" lon="12.281083033157287"><ele>4.0</ele><time>2026-03-29T09:34:10.997Z</time></trkpt><trkpt lat="41.76116328737841" lon="12.28103445445715"><ele>3.9999999999999996</ele><time>2026-03-29T09:34:12.997Z</time></trkpt><trkpt lat="41.76121678905391" lon="12.280986632346012"><ele>4.0</ele><time>2026-03-29T09:34:14.997Z</time></trkpt><trkpt lat="41.76127112478156" lon="12.280930392170388"><ele>4.0</ele><time>2026-03-29T09:34:16.997Z</time></trkpt><trkpt lat="41.76132502485476" lon="12.280877182811626"><ele>3.9999999999999996</ele><time>2026-03-29T09:34:18.997Z</time></trkpt><trkpt lat="41.7613825616823" lon="12.280826669620472"><ele>4.0</ele><time>2026-03-29T09:34:20.997Z</time></trkpt><trkpt lat="41.76144024991203" lon="12.280770311921334"><ele>4.0</ele><time>2026-03-29T09:34:23Z</time></trkpt><trkpt lat="41.76150129141318" lon="12.28071511001453"><ele>4.0</ele><time>2026-03-29T09:34:25Z</time></trkpt><trkpt lat="41.7615594811397" lon="12.280662381877345"><ele>3.9999999999999996</ele><time>2026-03-29T09:34:27Z</time></trkpt><trkpt lat="41.76161804376685" lon="12.28060658978568"><ele>4.0</ele><time>2026-03-29T09:34:29Z</time></trkpt><trkpt lat="41.76167351723857" lon="12.280553701843756"><ele>4.0</ele><time>2026-03-29T09:34:31Z</time></trkpt><trkpt lat="41.76173277584856" lon="12.280503974337822"><ele>3.9999999999999996</ele><time>2026-03-29T09:34:33Z</time></trkpt><trkpt lat="41.76179116733322" lon="12.280446450216283"><ele>4.0</ele><time>2026-03-29T09:34:35Z</time></trkpt><trkpt lat="41.761851335944996" lon="12.280398476700052"><ele>4.0</ele><time>2026-03-29T09:34:37Z</time></trkpt><trkpt lat="41.761905056694" lon="12.28034228094301"><ele>3.4999999999999996</ele><time>2026-03-29T09:34:39Z</time></trkpt><trkpt lat="41.761956257255115" lon="12.280289135699903"><ele>3.0</ele><time>2026-03-29T09:34:40.999Z</time></trkpt><trkpt lat="41.76201145454949" lon="12.280238127679466"><ele>2.5</ele><time>2026-03-29T09:34:42.999Z</time></trkpt><trkpt lat="41.762063880431256" lon="12.280182654830066"><ele>2.0</ele><time>2026-03-29T09:34:44.999Z</time></trkpt><trkpt lat="41.76213243953034" lon="12.2801041697654"><ele>1.5</ele><time>2026-03-29T09:34:47.999Z</time></trkpt><trkpt lat="41.76218858367138" lon="12.280049380486677"><ele>1.0</ele><time>2026-03-29T09:34:49.999Z</time></trkpt><trkpt lat="41.76227442663439" lon="12.279984429900534"><ele>0.9999999999999999</ele><time>2026-03-29T09:34:52.999Z</time></trkpt><trkpt lat="41.76234576121002" lon="12.279923703827091"><ele>1.0</ele><time>2026-03-29T09:34:55.999Z</time></trkpt><trkpt lat="41.76240479466428" lon="12.279872183255735"><ele>1.0</ele><time>2026-03-29T09:34:58.999Z</time></trkpt><trkpt lat="41.76246556222447" lon="12.279809273454068"><ele>1.0</ele><time>2026-03-29T09:35:01.999Z</time></trkpt><trkpt lat="41.762526205551325" lon="12.27974925260126"><ele>0.9999999999999999</ele><time>2026-03-29T09:35:04.999Z</time></trkpt><trkpt lat="41.762592169185524" lon="12.279686902970152"><ele>1.0</ele><time>2026-03-29T09:35:07.999Z</time></trkpt><trkpt lat="41.76266212876401" lon="12.279619776447712"><ele>1.3333333333333333</ele><time>2026-03-29T09:35:10.999Z</time></trkpt><trkpt lat="41.76273197509642" lon="12.279549333163626"><ele>1.6666666666666665</ele><time>2026-03-29T09:35:13.999Z</time></trkpt><trkpt lat="41.76280829086454" lon="12.279478301967234"><ele>2.0</ele><time>2026-03-29T09:35:16.999Z</time></trkpt><trkpt lat="41.76287669266184" lon="12.279407043213658"><ele>2.3333333333333335</ele><time>2026-03-29T09:35:19.999Z</time></trkpt><trkpt lat="41.76294745887574" lon="12.279342055902248"><ele>2.6666666666666665</ele><time>2026-03-29T09:35:22.998Z</time></trkpt><trkpt lat="41.763014058164664" lon="12.279278411472463"><ele>3.0</ele><time>2026-03-29T09:35:25.998Z</time></trkpt><trkpt lat="41.763069577095834" lon="12.279230493525823"><ele>3.0</ele><time>2026-03-29T09:35:27.998Z</time></trkpt><trkpt lat="41.763141269422626" lon="12.279165201066602"><ele>3.0</ele><time>2026-03-29T09:35:30.998Z</time></trkpt><trkpt lat="41.76321451833219" lon="12.279098464514451"><ele>3.0</ele><time>2026-03-29T09:35:33.998Z</time></trkpt><trkpt lat="41.76328730707067" lon="12.279029895674336"><ele>3.0</ele><time>2026-03-29T09:35:36.998Z</time></trkpt><trkpt lat="41.76336571303381" lon="12.278974854857424"><ele>3.0</ele><time>2026-03-29T09:35:39.998Z</time></trkpt><trkpt lat="41.763437838797486" lon="12.278913341837738"><ele>3.0</ele><time>2026-03-29T09:35:42.998Z</time></trkpt><trkpt lat="41.763510731269754" lon="12.278851508725035"><ele>2.8333333333333335</ele><time>2026-03-29T09:35:45.998Z</time></trkpt><trkpt lat="41.763582239789386" lon="12.278790941384678"><ele>2.6666666666666665</ele><time>2026-03-29T09:35:48.998Z</time></trkpt><trkpt lat="41.76365310903528" lon="12.27873121990221"><ele>2.5</ele><time>2026-03-29T09:35:51.998Z</time></trkpt><trkpt lat="41.76372431325329" lon="12.278673869132517"><ele>2.333333333333333</ele><time>2026-03-29T09:35:54.998Z</time></trkpt><trkpt lat="41.76379689525051" lon="12.27860912205166"><ele>2.1666666666666665</ele><time>2026-03-29T09:35:57.998Z</time></trkpt><trkpt lat="41.76387650519331" lon="12.278561953168355"><ele>2.0</ele><time>2026-03-29T09:36:00.997Z</time></trkpt><trkpt lat="41.76395222775971" lon="12.278502031475538"><ele>1.9999999999999998</ele><time>2026-03-29T09:36:03.997Z</time></trkpt><trkpt lat="41.76402840765758" lon="12.278442229103948"><ele>2.0</ele><time>2026-03-29T09:36:06.997Z</time></trkpt><trkpt lat="41.76410613566447" lon="12.278379755714152"><ele>2.0</ele><time>2026-03-29T09:36:09.997Z</time></trkpt><trkpt lat="41.76418665913057" lon="12.278325986857439"><ele>2.0</ele><time>2026-03-29T09:36:12.997Z</time></trkpt><trkpt lat="41.76426962651757" lon="12.278266445102467"><ele>1.9999999999999998</ele><time>2026-03-29T09:36:15.997Z</time></trkpt><trkpt lat="41.76432475119834" lon="12.27822136564268"><ele>2.0</ele><time>2026-03-29T09:36:17.997Z</time></trkpt><trkpt lat="41.76438329425028" lon="12.278186335119534"><ele>1.9999999999999998</ele><time>2026-03-29T09:36:19.997Z</time></trkpt><trkpt lat="41.764462463694585" lon="12.278126064446209"><ele>2.0</ele><time>2026-03-29T09:36:22.997Z</time></trkpt><trkpt lat="41.76454710784577" lon="12.27807837037964"><ele>2.0</ele><time>2026-03-29T09:36:25.997Z</time></trkpt><trkpt lat="41.76462030407933" lon="12.278019018686317"><ele>2.0</ele><time>2026-03-29T09:36:29Z</time></trkpt><trkpt lat="41.764695616416404" lon="12.277964426425758"><ele>1.9999999999999998</ele><time>2026-03-29T09:36:32Z</time></trkpt><trkpt lat="41.764770285224245" lon="12.277914134496923"><ele>2.0</ele><time>2026-03-29T09:36:35Z</time></trkpt><trkpt lat="41.76485199545933" lon="12.277862401712277"><ele>2.1666666666666665</ele><time>2026-03-29T09:36:38Z</time></trkpt><trkpt lat="41.764932001851136" lon="12.27780533219315"><ele>2.333333333333333</ele><time>2026-03-29T09:36:41Z</time></trkpt><trkpt lat="41.7650058922727" lon="12.277740777324285"><ele>2.5</ele><time>2026-03-29T09:36:44Z</time></trkpt><trkpt lat="41.76508414556782" lon="12.27768565506891"><ele>2.6666666666666665</ele><time>2026-03-29T09:36:47Z</time></trkpt><trkpt lat="41.76516231785555" lon="12.277643277606845"><ele>2.8333333333333335</ele><time>2026-03-29T09:36:49.999Z</time></trkpt><trkpt lat="41.76524129766624" lon="12.277593486500045"><ele>3.0</ele><time>2026-03-29T09:36:52.999Z</time></trkpt><trkpt lat="41.7653175559961" lon="12.277541903618463"><ele>3.1666666666666665</ele><time>2026-03-29T09:36:55.999Z</time></trkpt><trkpt lat="41.765399562316304" lon="12.277495579145029"><ele>3.333333333333333</ele><time>2026-03-29T09:36:58.999Z</time></trkpt><trkpt lat="41.765480412688206" lon="12.277459807264028"><ele>3.5</ele><time>2026-03-29T09:37:01.999Z</time></trkpt><trkpt lat="41.765563710906235" lon="12.27744160492561"><ele>3.6666666666666665</ele><time>2026-03-29T09:37:04.999Z</time></trkpt><trkpt lat="41.765646520172524" lon="12.277421731944395"><ele>3.833333333333333</ele><time>2026-03-29T09:37:07.999Z</time></trkpt><trkpt lat="41.765718862128665" lon="12.277401672779472"><ele>4.0</ele><time>2026-03-29T09:37:10.999Z</time></trkpt><trkpt lat="41.76578527963444" lon="12.277382207098817"><ele>3.9999999999999996</ele><time>2026-03-29T09:37:14.999Z</time></trkpt><trkpt lat="41.76585775490737" lon="12.277384786930563"><ele>4.0</ele><time>2026-03-29T09:37:20.999Z</time></trkpt><trkpt lat="41.76591033822564" lon="12.277456943934967"><ele>4.0</ele><time>2026-03-29T09:37:24.999Z</time></trkpt><trkpt lat="41.76598072588317" lon="12.277426282739171"><ele>4.0</ele><time>2026-03-29T09:37:26.998Z</time></trkpt><trkpt lat="41.76606114119287" lon="12.277414380790368"><ele>3.9999999999999996</ele><time>2026-03-29T09:37:29.998Z</time></trkpt><trkpt lat="41.76614209057083" lon="12.277406808254828"><ele>4.0</ele><time>2026-03-29T09:37:32.998Z</time></trkpt><trkpt lat="41.76621988507768" lon="12.277390192614197"><ele>4.0</ele><time>2026-03-29T09:37:36.998Z</time></trkpt><trkpt lat="41.76627693880628" lon="12.277350520595057"><ele>3.9999999999999996</ele><time>2026-03-29T09:37:40.998Z</time></trkpt><trkpt lat="41.76623712005672" lon="12.277416805356886"><ele>4.0</ele><time>2026-03-29T09:37:45.998Z</time></trkpt><trkpt lat="41.76617197773632" lon="12.277414114614073"><ele>4.0</ele><time>2026-03-29T09:37:50.998Z</time></trkpt><trkpt lat="41.766097157342976" lon="12.277375236701534"><ele>3.9999999999999996</ele><time>2026-03-29T09:37:55.998Z</time></trkpt><trkpt lat="41.76601593298953" lon="12.277381450813314"><ele>4.0</ele><time>2026-03-29T09:37:59.998Z</time></trkpt><trkpt lat="41.765947001487206" lon="12.277384372725493"><ele>4.0</ele><time>2026-03-29T09:38:17.997Z</time></trkpt><trkpt lat="41.76587366298715" lon="12.277390622372037"><ele>4.0</ele><time>2026-03-29T09:38:31.997Z</time></trkpt><trkpt lat="41.76593890984842" lon="12.27735752060611"><ele>3.9999999999999996</ele><time>2026-03-29T09:38:52Z</time></trkpt><trkpt lat="41.766004911176985" lon="12.277327650929276"><ele>4.0</ele><time>2026-03-29T09:38:57.999Z</time></trkpt><trkpt lat="41.766056636161316" lon="12.277384635846031"><ele>4.0</ele><time>2026-03-29T09:39:02.999Z</time></trkpt><trkpt lat="41.766138255975015" lon="12.27740389586962"><ele>3.9999999999999996</ele><time>2026-03-29T09:39:06.999Z</time></trkpt><trkpt lat="41.76621765697454" lon="12.277384023804936"><ele>4.0</ele><time>2026-03-29T09:39:09.999Z</time></trkpt><trkpt lat="41.766293516161596" lon="12.277369790322014"><ele>4.0</ele><time>2026-03-29T09:39:11.999Z</time></trkpt><trkpt lat="41.76637629850592" lon="12.277347931094566"><ele>3.8571428571428568</ele><time>2026-03-29T09:39:13.999Z</time></trkpt><trkpt lat="41.76646085827032" lon="12.277338865350172"><ele>3.714285714285714</ele><time>2026-03-29T09:39:15.999Z</time></trkpt><trkpt lat="41.766539138269614" lon="12.277320687478744"><ele>3.571428571428571</ele><time>2026-03-29T09:39:17.999Z</time></trkpt><trkpt lat="41.766612176195274" lon="12.277305548603643"><ele>3.4285714285714284</ele><time>2026-03-29T09:39:19.999Z</time></trkpt><trkpt lat="41.76668360064182" lon="12.27729127006798"><ele>3.2857142857142856</ele><time>2026-03-29T09:39:21.999Z</time></trkpt><trkpt lat="41.76675053356181" lon="12.277279637392274"><ele>3.1428571428571423</ele><time>2026-03-29T09:39:23.999Z</time></trkpt><trkpt lat="41.766815626048405" lon="12.277267190898097"><ele>3.0</ele><time>2026-03-29T09:39:25.999Z</time></trkpt><trkpt lat="41.76690291029649" lon="12.277246173455346"><ele>3.0</ele><time>2026-03-29T09:39:28.999Z</time></trkpt><trkpt lat="41.766980711474794" lon="12.277227030483514"><ele>3.0</ele><time>2026-03-29T09:39:31.999Z</time></trkpt><trkpt lat="41.767052231788306" lon="12.277220495085775"><ele>3.0</ele><time>2026-03-29T09:39:34.998Z</time></trkpt><trkpt lat="41.76712668310208" lon="12.277193110931345"><ele>3.0</ele><time>2026-03-29T09:39:37.998Z</time></trkpt><trkpt lat="41.76721678022404" lon="12.277162996909581"><ele>3.0</ele><time>2026-03-29T09:39:40.998Z</time></trkpt><trkpt lat="41.767283844307336" lon="12.277145185952085"><ele>3.0</ele><time>2026-03-29T09:39:42.998Z</time></trkpt><trkpt lat="41.76735739977245" lon="12.277133245953374"><ele>3.0</ele><time>2026-03-29T09:39:44.998Z</time></trkpt><trkpt lat="41.767429502724234" lon="12.277125283804187"><ele>3.0</ele><time>2026-03-29T09:39:46.998Z</time></trkpt><trkpt lat="41.767496404149874" lon="12.277123516611045"><ele>3.0</ele><time>2026-03-29T09:39:48.998Z</time></trkpt><trkpt lat="41.767590510019446" lon="12.277129682511411"><ele>3.0</ele><time>2026-03-29T09:39:51.998Z</time></trkpt><trkpt lat="41.7676796707808" lon="12.277122635821799"><ele>3.0</ele><time>2026-03-29T09:39:54.998Z</time></trkpt><trkpt lat="41.767771958686374" lon="12.277132955383996"><ele>3.0</ele><time>2026-03-29T09:39:57.998Z</time></trkpt><trkpt lat="41.767847329493684" lon="12.277147415311983"><ele>2.8571428571428568</ele><time>2026-03-29T09:39:59.998Z</time></trkpt><trkpt lat="41.7679184292105" lon="12.27718368833027"><ele>2.7142857142857144</ele><time>2026-03-29T09:40:01.998Z</time></trkpt><trkpt lat="41.76798178342784" lon="12.277218787498649"><ele>2.571428571428571</ele><time>2026-03-29T09:40:03.998Z</time></trkpt><trkpt lat="41.76804771748405" lon="12.277204339676189"><ele>2.4285714285714284</ele><time>2026-03-29T09:40:05.998Z</time></trkpt><trkpt lat="41.76807281842056" lon="12.277124277066573"><ele>2.2857142857142856</ele><time>2026-03-29T09:40:07.998Z</time></trkpt><trkpt lat="41.76801186332542" lon="12.277051097318964"><ele>2.142857142857143</ele><time>2026-03-29T09:40:09.998Z</time></trkpt><trkpt lat="41.76793593399852" lon="12.27705470204967"><ele>2.0</ele><time>2026-03-29T09:40:11.998Z</time></trkpt><trkpt lat="41.767857744414854" lon="12.277009284104455"><ele>1.9999999999999998</ele><time>2026-03-29T09:40:14.997Z</time></trkpt><trkpt lat="41.767797438076876" lon="12.276977130941264"><ele>2.0</ele><time>2026-03-29T09:40:17.997Z</time></trkpt><trkpt lat="41.767747399555844" lon="12.276885917005963"><ele>2.0</ele><time>2026-03-29T09:40:20.997Z</time></trkpt><trkpt lat="41.76767578261743" lon="12.276765999373128"><ele>2.0</ele><time>2026-03-29T09:40:22.997Z</time></trkpt><trkpt lat="41.767633537039025" lon="12.276688360412946"><ele>1.9999999999999998</ele><time>2026-03-29T09:40:23.997Z</time></trkpt><trkpt lat="41.767588292746034" lon="12.27661175775396"><ele>2.0</ele><time>2026-03-29T09:40:24.997Z</time></trkpt><trkpt lat="41.76754196521113" lon="12.2765360704349"><ele>2.142857142857143</ele><time>2026-03-29T09:40:25.997Z</time></trkpt><trkpt lat="41.76749867823074" lon="12.276461970893827"><ele>2.2857142857142856</ele><time>2026-03-29T09:40:26.997Z</time></trkpt><trkpt lat="41.767457372150176" lon="12.276387432712639"><ele>2.4285714285714284</ele><time>2026-03-29T09:40:27.997Z</time></trkpt><trkpt lat="41.767415903725336" lon="12.276315857545812"><ele>2.571428571428571</ele><time>2026-03-29T09:40:28.997Z</time></trkpt><trkpt lat="41.76737256883687" lon="12.276245584376094"><ele>2.7142857142857144</ele><time>2026-03-29T09:40:29.997Z</time></trkpt><trkpt lat="41.76733139236417" lon="12.276176011465212"><ele>2.8571428571428568</ele><time>2026-03-29T09:40:30.997Z</time></trkpt><trkpt lat="41.76729232382407" lon="12.27610484143084"><ele>3.0</ele><time>2026-03-29T09:40:31.997Z</time></trkpt><trkpt lat="41.76725426837887" lon="12.27603579778159"><ele>2.25</ele><time>2026-03-29T09:40:32.997Z</time></trkpt><trkpt lat="41.76717926210217" lon="12.275903228208168"><ele>1.5</ele><time>2026-03-29T09:40:34.997Z</time></trkpt><trkpt lat="41.76710487537436" lon="12.275772175138941"><ele>0.75</ele><time>2026-03-29T09:40:36.997Z</time></trkpt><trkpt lat="41.76703616410841" lon="12.275638796764154"><ele>0.0</ele><time>2026-03-29T09:40:38.997Z</time></trkpt><trkpt lat="41.76696134579997" lon="12.275512090073942"><ele>0.0</ele><time>2026-03-29T09:40:41Z</time></trkpt><trkpt lat="41.76688996830446" lon="12.275382107920565"><ele>0.0</ele><time>2026-03-29T09:40:43Z</time></trkpt><trkpt lat="41.76681796748212" lon="12.275252507349029"><ele>0.0</ele><time>2026-03-29T09:40:45Z</time></trkpt><trkpt lat="41.76674540388289" lon="12.27512496763786"><ele>0.0</ele><time>2026-03-29T09:40:47Z</time></trkpt><trkpt lat="41.76667956964483" lon="12.274993688322535"><ele>0.25</ele><time>2026-03-29T09:40:49Z</time></trkpt><trkpt lat="41.76660585956828" lon="12.274871641258331"><ele>0.5</ele><time>2026-03-29T09:40:51Z</time></trkpt><trkpt lat="41.766536739684675" lon="12.274749086489074"><ele>0.75</ele><time>2026-03-29T09:40:53Z</time></trkpt><trkpt lat="41.76646673579832" lon="12.27462449591159"><ele>1.0</ele><time>2026-03-29T09:40:55Z</time></trkpt><trkpt lat="41.76639637216324" lon="12.274501675520611"><ele>1.25</ele><time>2026-03-29T09:40:57Z</time></trkpt><trkpt lat="41.766324822440666" lon="12.274380929455107"><ele>1.5</ele><time>2026-03-29T09:40:59Z</time></trkpt><trkpt lat="41.766254468402785" lon="12.27425770705021"><ele>1.75</ele><time>2026-03-29T09:41:01Z</time></trkpt><trkpt lat="41.76618371289079" lon="12.274128815462447"><ele>2.0</ele><time>2026-03-29T09:41:02.999Z</time></trkpt><trkpt lat="41.76611478197247" lon="12.274003653107348"><ele>1.75</ele><time>2026-03-29T09:41:04.999Z</time></trkpt><trkpt lat="41.766042415091654" lon="12.273877892588729"><ele>1.5</ele><time>2026-03-29T09:41:06.999Z</time></trkpt><trkpt lat="41.76597239469485" lon="12.273750719908039"><ele>1.25</ele><time>2026-03-29T09:41:08.999Z</time></trkpt><trkpt lat="41.76590759063534" lon="12.273622469670883"><ele>1.0</ele><time>2026-03-29T09:41:10.999Z</time></trkpt><trkpt lat="41.76583546142049" lon="12.2734944506938"><ele>1.0</ele><time>2026-03-29T09:41:12.999Z</time></trkpt><trkpt lat="41.76576728960825" lon="12.273374095807263"><ele>1.0</ele><time>2026-03-29T09:41:14.999Z</time></trkpt><trkpt lat="41.765702789842926" lon="12.273254791497319"><ele>1.0</ele><time>2026-03-29T09:41:16.999Z</time></trkpt><trkpt lat="41.7656347019212" lon="12.27314394452651"><ele>1.0</ele><time>2026-03-29T09:41:18.999Z</time></trkpt><trkpt lat="41.765576096237055" lon="12.27302913463801"><ele>1.0</ele><time>2026-03-29T09:41:20.999Z</time></trkpt><trkpt lat="41.76550212920478" lon="12.27294264219561"><ele>1.0</ele><time>2026-03-29T09:41:22.999Z</time></trkpt><trkpt lat="41.76552808434134" lon="12.272811744103995"><ele>1.0</ele><time>2026-03-29T09:41:24.999Z</time></trkpt><trkpt lat="41.76558494681007" lon="12.272773265958673"><ele>1.0</ele><time>2026-03-29T09:41:25.999Z</time></trkpt><trkpt lat="41.76567767860972" lon="12.27268691703861"><ele>1.0</ele><time>2026-03-29T09:41:27.999Z</time></trkpt><trkpt lat="41.76576398593449" lon="12.272599480820626"><ele>1.0</ele><time>2026-03-29T09:41:29.999Z</time></trkpt><trkpt lat="41.76585182641084" lon="12.272510518214242"><ele>1.0</ele><time>2026-03-29T09:41:31.999Z</time></trkpt><trkpt lat="41.76594207457959" lon="12.272420887122012"><ele>1.0</ele><time>2026-03-29T09:41:33.999Z</time></trkpt><trkpt lat="41.766033566967536" lon="12.272323686626898"><ele>1.0</ele><time>2026-03-29T09:41:35.999Z</time></trkpt><trkpt lat="41.766125424081906" lon="12.272233016829814"><ele>1.0</ele><time>2026-03-29T09:41:37.999Z</time></trkpt><trkpt lat="41.766215694370665" lon="12.272143092677947"><ele>1.25</ele><time>2026-03-29T09:41:39.999Z</time></trkpt><trkpt lat="41.76632075588411" lon="12.272048702630082"><ele>1.5</ele><time>2026-03-29T09:41:41.998Z</time></trkpt><trkpt lat="41.76640243636787" lon="12.271959143489179"><ele>1.75</ele><time>2026-03-29T09:41:43.998Z</time></trkpt><trkpt lat="41.766490886699465" lon="12.27186238176169"><ele>2.0</ele><time>2026-03-29T09:41:45.998Z</time></trkpt><trkpt lat="41.76657753059431" lon="12.271769329937962"><ele>2.0</ele><time>2026-03-29T09:41:47.998Z</time></trkpt><trkpt lat="41.76666688544879" lon="12.271676634076695"><ele>2.0</ele><time>2026-03-29T09:41:49.998Z</time></trkpt><trkpt lat="41.76675793398371" lon="12.271589443936296"><ele>2.0</ele><time>2026-03-29T09:41:51.998Z</time></trkpt><trkpt lat="41.766845553749356" lon="12.27148768139675"><ele>2.0</ele><time>2026-03-29T09:41:53.998Z</time></trkpt><trkpt lat="41.766958446542674" lon="12.27141145926211"><ele>2.2</ele><time>2026-03-29T09:41:55.998Z</time></trkpt><trkpt lat="41.76703993595913" lon="12.271317019986453"><ele>2.4000000000000004</ele><time>2026-03-29T09:41:57.998Z</time></trkpt><trkpt lat="41.76713422621043" lon="12.271222376187216"><ele>2.5999999999999996</ele><time>2026-03-29T09:41:59.998Z</time></trkpt><trkpt lat="41.7672216209859" lon="12.271134017841021"><ele>2.8</ele><time>2026-03-29T09:42:01.998Z</time></trkpt><trkpt lat="41.767316135573" lon="12.271058824860525"><ele>3.0</ele><time>2026-03-29T09:42:03.998Z</time></trkpt><trkpt lat="41.76739784431456" lon="12.27095141659416"><ele>3.0</ele><time>2026-03-29T09:42:05.998Z</time></trkpt><trkpt lat="41.76748455398234" lon="12.270852245712828"><ele>3.0</ele><time>2026-03-29T09:42:07.998Z</time></trkpt><trkpt lat="41.767571934104645" lon="12.27076864141243"><ele>3.0</ele><time>2026-03-29T09:42:09.998Z</time></trkpt><trkpt lat="41.76766183286559" lon="12.270679670627356"><ele>3.0</ele><time>2026-03-29T09:42:11.998Z</time></trkpt><trkpt lat="41.76775150637799" lon="12.270593197702459"><ele>3.0</ele><time>2026-03-29T09:42:13.998Z</time></trkpt><trkpt lat="41.76784093742723" lon="12.270497861141182"><ele>2.6</ele><time>2026-03-29T09:42:15.998Z</time></trkpt><trkpt lat="41.76792929795331" lon="12.270404903893649"><ele>2.1999999999999997</ele><time>2026-03-29T09:42:17.998Z</time></trkpt><trkpt lat="41.768019083790335" lon="12.270315122980554"><ele>1.8</ele><time>2026-03-29T09:42:19.997Z</time></trkpt><trkpt lat="41.76810005817296" lon="12.2702402239816"><ele>1.4</ele><time>2026-03-29T09:42:21.997Z</time></trkpt><trkpt lat="41.768155351421946" lon="12.270179171789783"><ele>1.0</ele><time>2026-03-29T09:42:22.997Z</time></trkpt><trkpt lat="41.76824153907591" lon="12.270087796076167"><ele>1.0</ele><time>2026-03-29T09:42:24.997Z</time></trkpt><trkpt lat="41.76832821093123" lon="12.26999355746885"><ele>1.0</ele><time>2026-03-29T09:42:26.997Z</time></trkpt><trkpt lat="41.76841966491065" lon="12.269902645513149"><ele>1.0</ele><time>2026-03-29T09:42:28.997Z</time></trkpt><trkpt lat="41.76851340935574" lon="12.269809591638591"><ele>1.0</ele><time>2026-03-29T09:42:30.997Z</time></trkpt><trkpt lat="41.76860090222636" lon="12.269714485273061"><ele>1.0</ele><time>2026-03-29T09:42:32.997Z</time></trkpt><trkpt lat="41.76868884052047" lon="12.269624182373738"><ele>1.0</ele><time>2026-03-29T09:42:34.997Z</time></trkpt><trkpt lat="41.76877820759512" lon="12.269527402531612"><ele>1.0</ele><time>2026-03-29T09:42:36.997Z</time></trkpt><trkpt lat="41.76886884133167" lon="12.269442308956576"><ele>1.0</ele><time>2026-03-29T09:42:38.997Z</time></trkpt><trkpt lat="41.76896416609631" lon="12.269350581165826"><ele>1.0</ele><time>2026-03-29T09:42:40.997Z</time></trkpt><trkpt lat="41.769057011339875" lon="12.269259328470746"><ele>1.0</ele><time>2026-03-29T09:42:42.997Z</time></trkpt><trkpt lat="41.76914865071213" lon="12.269169259944215"><ele>1.0</ele><time>2026-03-29T09:42:44.997Z</time></trkpt><trkpt lat="41.76923700434923" lon="12.269079879300921"><ele>1.0</ele><time>2026-03-29T09:42:47Z</time></trkpt><trkpt lat="41.769326848730145" lon="12.268994882997289"><ele>1.0</ele><time>2026-03-29T09:42:49Z</time></trkpt><trkpt lat="41.76941854933939" lon="12.268894822509928"><ele>1.25</ele><time>2026-03-29T09:42:51Z</time></trkpt><trkpt lat="41.76950837028131" lon="12.268806004128088"><ele>1.5</ele><time>2026-03-29T09:42:53Z</time></trkpt><trkpt lat="41.76960399453765" lon="12.268704551386211"><ele>1.75</ele><time>2026-03-29T09:42:55Z</time></trkpt><trkpt lat="41.76969835843167" lon="12.26860845610623"><ele>2.0</ele><time>2026-03-29T09:42:57Z</time></trkpt><trkpt lat="41.76979236569037" lon="12.26851561775666"><ele>2.0</ele><time>2026-03-29T09:42:59Z</time></trkpt><trkpt lat="41.7698868721804" lon="12.268422955685647"><ele>2.0</ele><time>2026-03-29T09:43:01Z</time></trkpt><trkpt lat="41.7699796497935" lon="12.26832717009943"><ele>2.0</ele><time>2026-03-29T09:43:03Z</time></trkpt><trkpt lat="41.77006128325673" lon="12.268233415868101"><ele>2.0</ele><time>2026-03-29T09:43:05Z</time></trkpt><trkpt lat="41.77011297635605" lon="12.268182949237227"><ele>2.0</ele><time>2026-03-29T09:43:06Z</time></trkpt><trkpt lat="41.77021010410174" lon="12.268093015727953"><ele>2.25</ele><time>2026-03-29T09:43:08Z</time></trkpt><trkpt lat="41.770302178670384" lon="12.268002244782219"><ele>2.5</ele><time>2026-03-29T09:43:09.999Z</time></trkpt><trkpt lat="41.77039750405087" lon="12.267905612105036"><ele>2.75</ele><time>2026-03-29T09:43:11.999Z</time></trkpt><trkpt lat="41.7704938173081" lon="12.26781484800804"><ele>3.0</ele><time>2026-03-29T09:43:13.999Z</time></trkpt><trkpt lat="41.77058441425727" lon="12.267721580748713"><ele>3.0</ele><time>2026-03-29T09:43:15.999Z</time></trkpt><trkpt lat="41.770672512591254" lon="12.267632245837328"><ele>3.0</ele><time>2026-03-29T09:43:17.999Z</time></trkpt><trkpt lat="41.770755581371105" lon="12.267534015519265"><ele>3.0</ele><time>2026-03-29T09:43:19.999Z</time></trkpt><trkpt lat="41.77084132231287" lon="12.267444638962237"><ele>3.0</ele><time>2026-03-29T09:43:21.999Z</time></trkpt><trkpt lat="41.77093301213778" lon="12.267354918649318"><ele>3.0</ele><time>2026-03-29T09:43:23.999Z</time></trkpt><trkpt lat="41.77101986187688" lon="12.267263196159618"><ele>3.0</ele><time>2026-03-29T09:43:25.999Z</time></trkpt><trkpt lat="41.77110554660847" lon="12.267174081691232"><ele>3.0</ele><time>2026-03-29T09:43:27.999Z</time></trkpt><trkpt lat="41.771197048917415" lon="12.267089121232232"><ele>3.0</ele><time>2026-03-29T09:43:29.999Z</time></trkpt><trkpt lat="41.77128050035895" lon="12.267003618884328"><ele>3.0</ele><time>2026-03-29T09:43:31.999Z</time></trkpt><trkpt lat="41.77137655586718" lon="12.266913359739643"><ele>3.0</ele><time>2026-03-29T09:43:33.999Z</time></trkpt><trkpt lat="41.771458533727795" lon="12.266819085006569"><ele>3.0</ele><time>2026-03-29T09:43:35.999Z</time></trkpt><trkpt lat="41.77154263678991" lon="12.266729361544908"><ele>3.0</ele><time>2026-03-29T09:43:37.999Z</time></trkpt><trkpt lat="41.771630419310355" lon="12.266643688470948"><ele>3.0</ele><time>2026-03-29T09:43:39.999Z</time></trkpt><trkpt lat="41.77171713677288" lon="12.26655802640465"><ele>3.0</ele><time>2026-03-29T09:43:41.999Z</time></trkpt><trkpt lat="41.77180334761886" lon="12.266474390062276"><ele>3.0</ele><time>2026-03-29T09:43:43.999Z</time></trkpt><trkpt lat="41.771888318230964" lon="12.266389079373612"><ele>3.2</ele><time>2026-03-29T09:43:45.999Z</time></trkpt><trkpt lat="41.77197176966419" lon="12.266306460422689"><ele>3.4</ele><time>2026-03-29T09:43:47.998Z</time></trkpt><trkpt lat="41.77205430445351" lon="12.266226605345183"><ele>3.6000000000000005</ele><time>2026-03-29T09:43:49.998Z</time></trkpt><trkpt lat="41.77213398527328" lon="12.266145962251061"><ele>3.8000000000000003</ele><time>2026-03-29T09:43:51.998Z</time></trkpt><trkpt lat="41.772206086889454" lon="12.266067632901805"><ele>4.0</ele><time>2026-03-29T09:43:53.998Z</time></trkpt><trkpt lat="41.772277917195716" lon="12.265989181195476"><ele>3.9999999999999996</ele><time>2026-03-29T09:43:55.998Z</time></trkpt><trkpt lat="41.77232341711605" lon="12.26590219153183"><ele>4.0</ele><time>2026-03-29T09:43:57.998Z</time></trkpt><trkpt lat="41.772296163254964" lon="12.265798684997286"><ele>4.0</ele><time>2026-03-29T09:43:59.998Z</time></trkpt><trkpt lat="41.77224320198989" lon="12.265737087853706"><ele>4.0</ele><time>2026-03-29T09:44:01.998Z</time></trkpt><trkpt lat="41.77221130632578" lon="12.265663473583555"><ele>3.9999999999999996</ele><time>2026-03-29T09:44:03.998Z</time></trkpt><trkpt lat="41.77217044544802" lon="12.265560089591764"><ele>4.0</ele><time>2026-03-29T09:44:06.998Z</time></trkpt><trkpt lat="41.772111831533536" lon="12.265468212494653"><ele>3.833333333333333</ele><time>2026-03-29T09:44:09.998Z</time></trkpt><trkpt lat="41.7720529645654" lon="12.26537130589356"><ele>3.6666666666666665</ele><time>2026-03-29T09:44:12.998Z</time></trkpt><trkpt lat="41.771994856696395" lon="12.265287085492988"><ele>3.5</ele><time>2026-03-29T09:44:15.998Z</time></trkpt><trkpt lat="41.771950220890666" lon="12.265198803851916"><ele>3.333333333333333</ele><time>2026-03-29T09:44:18.998Z</time></trkpt><trkpt lat="41.77189581942621" lon="12.265102295960265"><ele>3.1666666666666665</ele><time>2026-03-29T09:44:21.998Z</time></trkpt><trkpt lat="41.77185361342921" lon="12.265008902029773"><ele>3.0</ele><time>2026-03-29T09:44:24.998Z</time></trkpt><trkpt lat="41.77180888361964" lon="12.264947276694633"><ele>3.0</ele><time>2026-03-29T09:44:26.998Z</time></trkpt><trkpt lat="41.77176136221692" lon="12.26486044496727"><ele>3.0</ele><time>2026-03-29T09:44:29.997Z</time></trkpt><trkpt lat="41.77171381822012" lon="12.264786775792732"><ele>3.0</ele><time>2026-03-29T09:44:32.997Z</time></trkpt><trkpt lat="41.77167041990292" lon="12.264707624055164"><ele>3.0</ele><time>2026-03-29T09:44:35.997Z</time></trkpt><trkpt lat="41.77162374201296" lon="12.26461636568355"><ele>3.0</ele><time>2026-03-29T09:44:38.997Z</time></trkpt><trkpt lat="41.771575345643214" lon="12.264528729250548"><ele>3.0</ele><time>2026-03-29T09:44:41.997Z</time></trkpt><trkpt lat="41.771522259050975" lon="12.26442793926768"><ele>3.0</ele><time>2026-03-29T09:44:44.997Z</time></trkpt><trkpt lat="41.77146637221513" lon="12.264345840304346"><ele>3.0</ele><time>2026-03-29T09:44:47.997Z</time></trkpt><trkpt lat="41.77141698407632" lon="12.264245573907665"><ele>3.0</ele><time>2026-03-29T09:44:50.997Z</time></trkpt><trkpt lat="41.77136122026728" lon="12.264162910689919"><ele>3.0</ele><time>2026-03-29T09:44:54Z</time></trkpt><trkpt lat="41.77131592327977" lon="12.264080055221802"><ele>3.0</ele><time>2026-03-29T09:44:57Z</time></trkpt><trkpt lat="41.77126759047227" lon="12.263995338465588"><ele>3.0</ele><time>2026-03-29T09:45:00Z</time></trkpt><trkpt lat="41.77122578315008" lon="12.2639139055788"><ele>3.1428571428571423</ele><time>2026-03-29T09:45:03Z</time></trkpt><trkpt lat="41.77118205657689" lon="12.263836763371781"><ele>3.2857142857142856</ele><time>2026-03-29T09:45:06Z</time></trkpt><trkpt lat="41.77113519440797" lon="12.263754281466706"><ele>3.4285714285714284</ele><time>2026-03-29T09:45:09Z</time></trkpt><trkpt lat="41.771095618955464" lon="12.263679356838429"><ele>3.571428571428571</ele><time>2026-03-29T09:45:12Z</time></trkpt><trkpt lat="41.77105556202234" lon="12.263612627189326"><ele>3.714285714285714</ele><time>2026-03-29T09:45:14.999Z</time></trkpt><trkpt lat="41.77099982025858" lon="12.263550985543578"><ele>3.8571428571428568</ele><time>2026-03-29T09:45:18.999Z</time></trkpt><trkpt lat="41.77095978559658" lon="12.263472716213922"><ele>4.0</ele><time>2026-03-29T09:45:31.999Z</time></trkpt><trkpt lat="41.770924186977446" lon="12.263401955812018"><ele>4.0</ele><time>2026-03-29T09:45:35.999Z</time></trkpt><trkpt lat="41.770873748995704" lon="12.263325178490984"><ele>3.9999999999999996</ele><time>2026-03-29T09:46:16.998Z</time></trkpt><trkpt lat="41.770839369705634" lon="12.263252152143576"><ele>4.0</ele><time>2026-03-29T09:46:20.998Z</time></trkpt><trkpt lat="41.77080006656375" lon="12.263185160828302"><ele>4.0</ele><time>2026-03-29T09:46:24.998Z</time></trkpt><trkpt lat="41.77075351166957" lon="12.263110373708692"><ele>3.9999999999999996</ele><time>2026-03-29T09:46:29.998Z</time></trkpt><trkpt lat="41.7707247025399" lon="12.263033111590788"><ele>4.0</ele><time>2026-03-29T09:46:35.997Z</time></trkpt><trkpt lat="41.77066285559596" lon="12.262972709651551"><ele>4.0</ele><time>2026-03-29T09:46:41.997Z</time></trkpt><trkpt lat="41.77062951916041" lon="12.262894122877654"><ele>3.9999999999999996</ele><time>2026-03-29T09:46:44.997Z</time></trkpt><trkpt lat="41.77057378060919" lon="12.262822836667635"><ele>4.0</ele><time>2026-03-29T09:46:47.997Z</time></trkpt><trkpt lat="41.770519097906586" lon="12.262737472612564"><ele>4.0</ele><time>2026-03-29T09:46:50.997Z</time></trkpt><trkpt lat="41.770478306645884" lon="12.262655219874452"><ele>4.0</ele><time>2026-03-29T09:46:53.997Z</time></trkpt><trkpt lat="41.77045323299989" lon="12.262551282374211"><ele>3.9999999999999996</ele><time>2026-03-29T09:46:56.997Z</time></trkpt><trkpt lat="41.77051923127624" lon="12.2624852862232"><ele>4.0</ele><time>2026-03-29T09:47:00Z</time></trkpt><trkpt lat="41.77058976183285" lon="12.262435062291548"><ele>4.0</ele><time>2026-03-29T09:47:03Z</time></trkpt><trkpt lat="41.77064618657426" lon="12.26239020850661"><ele>3.9999999999999996</ele><time>2026-03-29T09:47:05Z</time></trkpt><trkpt lat="41.770703133764016" lon="12.26233732347218"><ele>4.0</ele><time>2026-03-29T09:47:07Z</time></trkpt><trkpt lat="41.77076548656677" lon="12.262287948790672"><ele>4.0</ele><time>2026-03-29T09:47:09Z</time></trkpt><trkpt lat="41.77082563561992" lon="12.262222875024646"><ele>3.9999999999999996</ele><time>2026-03-29T09:47:11Z</time></trkpt><trkpt lat="41.77088541112587" lon="12.262163551599173"><ele>4.0</ele><time>2026-03-29T09:47:13Z</time></trkpt><trkpt lat="41.77094655330399" lon="12.262109745832333"><ele>4.0</ele><time>2026-03-29T09:47:15Z</time></trkpt><trkpt lat="41.77100489155249" lon="12.262056879436969"><ele>4.5</ele><time>2026-03-29T09:47:17Z</time></trkpt><trkpt lat="41.7710725562645" lon="12.261990144731518"><ele>5.0</ele><time>2026-03-29T09:47:19Z</time></trkpt><trkpt lat="41.771130840990075" lon="12.261938619475826"><ele>5.5</ele><time>2026-03-29T09:47:21Z</time></trkpt><trkpt lat="41.77119246482381" lon="12.261886223868578"><ele>6.0</ele><time>2026-03-29T09:47:23Z</time></trkpt><trkpt lat="41.771265859157594" lon="12.261839541717617"><ele>6.500000000000001</ele><time>2026-03-29T09:47:24.999Z</time></trkpt><trkpt lat="41.771342307376734" lon="12.261801322271285"><ele>7.0</ele><time>2026-03-29T09:47:26.999Z</time></trkpt><trkpt lat="41.771423280209184" lon="12.261780027511595"><ele>7.000000000000001</ele><time>2026-03-29T09:47:28.999Z</time></trkpt><trkpt lat="41.771502711896225" lon="12.261755798317488"><ele>7.0</ele><time>2026-03-29T09:47:30.999Z</time></trkpt><trkpt lat="41.77158069631211" lon="12.261730667727797"><ele>7.0</ele><time>2026-03-29T09:47:32.999Z</time></trkpt><trkpt lat="41.77165669605834" lon="12.261707624064005"><ele>7.0</ele><time>2026-03-29T09:47:34.999Z</time></trkpt><trkpt lat="41.771730536622265" lon="12.261678347611314"><ele>7.000000000000001</ele><time>2026-03-29T09:47:36.999Z</time></trkpt><trkpt lat="41.77179585917133" lon="12.261656138285645"><ele>7.0</ele><time>2026-03-29T09:47:38.999Z</time></trkpt><trkpt lat="41.77186636239381" lon="12.261639371449505"><ele>7.0</ele><time>2026-03-29T09:47:40.999Z</time></trkpt><trkpt lat="41.77193740898965" lon="12.261605404508009"><ele>7.0</ele><time>2026-03-29T09:47:42.999Z</time></trkpt><trkpt lat="41.77200195568571" lon="12.26157737566301"><ele>7.0</ele><time>2026-03-29T09:47:44.999Z</time></trkpt><trkpt lat="41.772073948183824" lon="12.261542232221663"><ele>7.0</ele><time>2026-03-29T09:47:46.999Z</time></trkpt><trkpt lat="41.77213976763022" lon="12.261538280362522"><ele>7.0</ele><time>2026-03-29T09:47:48.999Z</time></trkpt><trkpt lat="41.77221644983521" lon="12.261513855124111"><ele>7.0</ele><time>2026-03-29T09:47:50.999Z</time></trkpt><trkpt lat="41.77228888859457" lon="12.261487820372682"><ele>7.0</ele><time>2026-03-29T09:47:52.999Z</time></trkpt><trkpt lat="41.77236089757996" lon="12.261475284434521"><ele>7.000000000000001</ele><time>2026-03-29T09:47:54.999Z</time></trkpt><trkpt lat="41.77244120024188" lon="12.261459447455715"><ele>7.0</ele><time>2026-03-29T09:47:56.999Z</time></trkpt><trkpt lat="41.77251371175184" lon="12.261425234096635"><ele>7.0</ele><time>2026-03-29T09:47:58.999Z</time></trkpt><trkpt lat="41.77258347717748" lon="12.261386055488554"><ele>7.0</ele><time>2026-03-29T09:48:00.999Z</time></trkpt><trkpt lat="41.77264853090995" lon="12.261354022128746"><ele>7.000000000000001</ele><time>2026-03-29T09:48:02.999Z</time></trkpt><trkpt lat="41.77271307581136" lon="12.261325420999027"><ele>7.0</ele><time>2026-03-29T09:48:04.998Z</time></trkpt><trkpt lat="41.772793884652124" lon="12.261303445880085"><ele>7.285714285714286</ele><time>2026-03-29T09:48:07.998Z</time></trkpt><trkpt lat="41.772872942642216" lon="12.261285522899167"><ele>7.571428571428571</ele><time>2026-03-29T09:48:10.998Z</time></trkpt><trkpt lat="41.77291364201261" lon="12.261211950758684"><ele>7.857142857142858</ele><time>2026-03-29T09:48:13.998Z</time></trkpt><trkpt lat="41.77291016306308" lon="12.261124635100149"><ele>8.142857142857142</ele><time>2026-03-29T09:48:15.998Z</time></trkpt><trkpt lat="41.77288359097232" lon="12.261038939892787"><ele>8.428571428571429</ele><time>2026-03-29T09:48:17.998Z</time></trkpt><trkpt lat="41.77285293138594" lon="12.260947422256814"><ele>8.714285714285715</ele><time>2026-03-29T09:48:19.998Z</time></trkpt><trkpt lat="41.77282309026556" lon="12.260853068003026"><ele>9.0</ele><time>2026-03-29T09:48:21.998Z</time></trkpt><trkpt lat="41.772800775280906" lon="12.260756973097886"><ele>9.0</ele><time>2026-03-29T09:48:23.998Z</time></trkpt><trkpt lat="41.77278057992766" lon="12.26065935834146"><ele>9.0</ele><time>2026-03-29T09:48:25.998Z</time></trkpt><trkpt lat="41.77275864307012" lon="12.260557413402791"><ele>9.0</ele><time>2026-03-29T09:48:27.998Z</time></trkpt><trkpt lat="41.772729380337665" lon="12.260443574094682"><ele>9.0</ele><time>2026-03-29T09:48:29.998Z</time></trkpt><trkpt lat="41.77271143250325" lon="12.2603138054478"><ele>9.0</ele><time>2026-03-29T09:48:31.998Z</time></trkpt><trkpt lat="41.772682322546764" lon="12.260191241171164"><ele>9.0</ele><time>2026-03-29T09:48:33.998Z</time></trkpt><trkpt lat="41.77264766561854" lon="12.260055314800537"><ele>8.6</ele><time>2026-03-29T09:48:35.998Z</time></trkpt><trkpt lat="41.7726210507932" lon="12.259924848187504"><ele>8.2</ele><time>2026-03-29T09:48:37.998Z</time></trkpt><trkpt lat="41.77259057128883" lon="12.259801696961716"><ele>7.799999999999999</ele><time>2026-03-29T09:48:39.998Z</time></trkpt><trkpt lat="41.772560346081185" lon="12.259680748855608"><ele>7.3999999999999995</ele><time>2026-03-29T09:48:41.998Z</time></trkpt><trkpt lat="41.77253229099436" lon="12.259564226712758"><ele>7.0</ele><time>2026-03-29T09:48:43.997Z</time></trkpt><trkpt lat="41.77250724204454" lon="12.259451320806395"><ele>6.833333333333334</ele><time>2026-03-29T09:48:45.997Z</time></trkpt><trkpt lat="41.77248538676151" lon="12.25934543776838"><ele>6.666666666666667</ele><time>2026-03-29T09:48:47.997Z</time></trkpt><trkpt lat="41.77246434147746" lon="12.25923779040044"><ele>6.5</ele><time>2026-03-29T09:48:49.997Z</time></trkpt><trkpt lat="41.772440883093346" lon="12.259134280625254"><ele>6.333333333333334</ele><time>2026-03-29T09:48:51.997Z</time></trkpt><trkpt lat="41.772416699521706" lon="12.259031127281544"><ele>6.166666666666667</ele><time>2026-03-29T09:48:53.997Z</time></trkpt><trkpt lat="41.77238839461796" lon="12.258912360851474"><ele>6.0</ele><time>2026-03-29T09:48:55.997Z</time></trkpt><trkpt lat="41.77236296590132" lon="12.25878490292196"><ele>6.0</ele><time>2026-03-29T09:48:57.997Z</time></trkpt><trkpt lat="41.772333623917945" lon="12.258661585188737"><ele>6.0</ele><time>2026-03-29T09:48:59.997Z</time></trkpt><trkpt lat="41.77230439326634" lon="12.258532983751419"><ele>6.0</ele><time>2026-03-29T09:49:01.997Z</time></trkpt><trkpt lat="41.77227743656572" lon="12.2584125173512"><ele>6.0</ele><time>2026-03-29T09:49:03.997Z</time></trkpt><trkpt lat="41.7722476172278" lon="12.258299018432693"><ele>6.0</ele><time>2026-03-29T09:49:06Z</time></trkpt><trkpt lat="41.772223290936296" lon="12.258188226415857"><ele>6.199999999999999</ele><time>2026-03-29T09:49:08Z</time></trkpt><trkpt lat="41.77219487564941" lon="12.258059394852816"><ele>6.3999999999999995</ele><time>2026-03-29T09:49:10Z</time></trkpt><trkpt lat="41.77216420177204" lon="12.257924997419845"><ele>6.6</ele><time>2026-03-29T09:49:12Z</time></trkpt><trkpt lat="41.772136642763236" lon="12.25779069712662"><ele>6.8</ele><time>2026-03-29T09:49:14Z</time></trkpt><trkpt lat="41.77211032079122" lon="12.257661309970102"><ele>7.0</ele><time>2026-03-29T09:49:16Z</time></trkpt><trkpt lat="41.7720814725655" lon="12.2575351563683"><ele>7.0</ele><time>2026-03-29T09:49:18Z</time></trkpt><trkpt lat="41.77205600056893" lon="12.257411341724511"><ele>6.999999999999999</ele><time>2026-03-29T09:49:20Z</time></trkpt><trkpt lat="41.7720288097961" lon="12.257293792320711"><ele>6.999999999999999</ele><time>2026-03-29T09:49:22Z</time></trkpt><trkpt lat="41.77199687892761" lon="12.25715910546481"><ele>7.0</ele><time>2026-03-29T09:49:24Z</time></trkpt><trkpt lat="41.77196771187138" lon="12.25701632091259"><ele>7.0</ele><time>2026-03-29T09:49:26Z</time></trkpt><trkpt lat="41.77192835835771" lon="12.256862357635995"><ele>6.8</ele><time>2026-03-29T09:49:28Z</time></trkpt><trkpt lat="41.77189625958802" lon="12.25670605135411"><ele>6.6</ele><time>2026-03-29T09:49:30Z</time></trkpt><trkpt lat="41.77186366557432" lon="12.256571962813211"><ele>6.3999999999999995</ele><time>2026-03-29T09:49:31.999Z</time></trkpt><trkpt lat="41.77183822182141" lon="12.25645137980486"><ele>6.199999999999999</ele><time>2026-03-29T09:49:33.999Z</time></trkpt><trkpt lat="41.77181190310964" lon="12.256333018333867"><ele>6.0</ele><time>2026-03-29T09:49:35.999Z</time></trkpt><trkpt lat="41.77178077036392" lon="12.256209148975639"><ele>5.3999999999999995</ele><time>2026-03-29T09:49:37.999Z</time></trkpt><trkpt lat="41.77174901203107" lon="12.256086794713049"><ele>4.8</ele><time>2026-03-29T09:49:39.999Z</time></trkpt><trkpt lat="41.77172028264041" lon="12.255964338032424"><ele>4.199999999999999</ele><time>2026-03-29T09:49:41.999Z</time></trkpt><trkpt lat="41.77169770430051" lon="12.255849101456185"><ele>3.5999999999999996</ele><time>2026-03-29T09:49:43.999Z</time></trkpt><trkpt lat="41.77167029939521" lon="12.255735360201147"><ele>3.0</ele><time>2026-03-29T09:49:45.999Z</time></trkpt><trkpt lat="41.771651745417905" lon="12.255623843825122"><ele>3.0</ele><time>2026-03-29T09:49:47.999Z</time></trkpt><trkpt lat="41.77163021345904" lon="12.255523324757416"><ele>3.0</ele><time>2026-03-29T09:49:49.999Z</time></trkpt><trkpt lat="41.771613784424524" lon="12.255437901943028"><ele>3.0</ele><time>2026-03-29T09:49:51.999Z</time></trkpt><trkpt lat="41.77159536786051" lon="12.255325046986977"><ele>3.0</ele><time>2026-03-29T09:49:54.999Z</time></trkpt><trkpt lat="41.77156597251087" lon="12.25521947618444"><ele>3.0</ele><time>2026-03-29T09:49:57.999Z</time></trkpt><trkpt lat="41.771543944071865" lon="12.255128725723507"><ele>3.0</ele><time>2026-03-29T09:49:59.999Z</time></trkpt><trkpt lat="41.77152441125524" lon="12.255017035591145"><ele>3.0</ele><time>2026-03-29T09:50:01.999Z</time></trkpt><trkpt lat="41.77149127520728" lon="12.254891861007529"><ele>3.0</ele><time>2026-03-29T09:50:03.999Z</time></trkpt><trkpt lat="41.771462750008645" lon="12.254759431090106"><ele>3.0</ele><time>2026-03-29T09:50:05.999Z</time></trkpt><trkpt lat="41.771434794374244" lon="12.254618725655272"><ele>3.0</ele><time>2026-03-29T09:50:07.999Z</time></trkpt><trkpt lat="41.771403239827336" lon="12.25447821518843"><ele>3.0</ele><time>2026-03-29T09:50:09.999Z</time></trkpt><trkpt lat="41.7713738372588" lon="12.254330881528453"><ele>3.0</ele><time>2026-03-29T09:50:11.998Z</time></trkpt><trkpt lat="41.77133603752715" lon="12.254186449167078"><ele>3.0</ele><time>2026-03-29T09:50:13.998Z</time></trkpt><trkpt lat="41.77129247367117" lon="12.254050518429771"><ele>3.0</ele><time>2026-03-29T09:50:15.998Z</time></trkpt><trkpt lat="41.771260678248254" lon="12.25390009880882"><ele>3.0</ele><time>2026-03-29T09:50:17.998Z</time></trkpt><trkpt lat="41.77123162886137" lon="12.253742602956384"><ele>3.25</ele><time>2026-03-29T09:50:19.998Z</time></trkpt><trkpt lat="41.77120038448872" lon="12.25360263713756"><ele>3.5</ele><time>2026-03-29T09:50:21.998Z</time></trkpt><trkpt lat="41.771160912822225" lon="12.25344645676756"><ele>3.75</ele><time>2026-03-29T09:50:23.998Z</time></trkpt><trkpt lat="41.77112826145494" lon="12.253291659568125"><ele>4.0</ele><time>2026-03-29T09:50:25.998Z</time></trkpt><trkpt lat="41.77109347551851" lon="12.253141335562113"><ele>4.0</ele><time>2026-03-29T09:50:27.998Z</time></trkpt><trkpt lat="41.77105958901812" lon="12.252987731397747"><ele>4.0</ele><time>2026-03-29T09:50:29.998Z</time></trkpt><trkpt lat="41.77102038308674" lon="12.252844381815887"><ele>4.0</ele><time>2026-03-29T09:50:31.998Z</time></trkpt><trkpt lat="41.77099407536988" lon="12.252679025740308"><ele>4.0</ele><time>2026-03-29T09:50:33.998Z</time></trkpt><trkpt lat="41.77096100733512" lon="12.25253150114457"><ele>4.0</ele><time>2026-03-29T09:50:35.998Z</time></trkpt><trkpt lat="41.77092856947355" lon="12.252384421803388"><ele>4.0</ele><time>2026-03-29T09:50:37.998Z</time></trkpt><trkpt lat="41.77089201006119" lon="12.252235972163763"><ele>4.0</ele><time>2026-03-29T09:50:39.998Z</time></trkpt><trkpt lat="41.77085776962431" lon="12.252087946619856"><ele>4.0</ele><time>2026-03-29T09:50:41.998Z</time></trkpt><trkpt lat="41.770818649815986" lon="12.251935872201988"><ele>4.2</ele><time>2026-03-29T09:50:43.998Z</time></trkpt><trkpt lat="41.770782324790154" lon="12.25179682720669"><ele>4.4</ele><time>2026-03-29T09:50:45.998Z</time></trkpt><trkpt lat="41.77075238382035" lon="12.251648866047658"><ele>4.6</ele><time>2026-03-29T09:50:47.998Z</time></trkpt><trkpt lat="41.77072297633532" lon="12.251515394435579"><ele>4.8</ele><time>2026-03-29T09:50:49.998Z</time></trkpt><trkpt lat="41.77069915810292" lon="12.2513904331526"><ele>5.0</ele><time>2026-03-29T09:50:51.997Z</time></trkpt><trkpt lat="41.77066871670879" lon="12.251263463283191"><ele>5.2</ele><time>2026-03-29T09:50:53.997Z</time></trkpt><trkpt lat="41.770642022852044" lon="12.251148401520567"><ele>5.4</ele><time>2026-03-29T09:50:55.997Z</time></trkpt><trkpt lat="41.77061678088192" lon="12.251024274502974"><ele>5.6</ele><time>2026-03-29T09:50:57.997Z</time></trkpt><trkpt lat="41.77059317936951" lon="12.25090246369048"><ele>5.8</ele><time>2026-03-29T09:50:59.997Z</time></trkpt><trkpt lat="41.770567434806495" lon="12.250787824196783"><ele>6.0</ele><time>2026-03-29T09:51:01.997Z</time></trkpt><trkpt lat="41.77054484164999" lon="12.250677980214293"><ele>5.857142857142857</ele><time>2026-03-29T09:51:03.997Z</time></trkpt><trkpt lat="41.77051828179537" lon="12.250577266859372"><ele>5.714285714285714</ele><time>2026-03-29T09:51:05.997Z</time></trkpt><trkpt lat="41.77049599970929" lon="12.250484940197316"><ele>5.571428571428571</ele><time>2026-03-29T09:51:07.997Z</time></trkpt><trkpt lat="41.77047242857407" lon="12.250394179941335"><ele>5.428571428571429</ele><time>2026-03-29T09:51:10Z</time></trkpt><trkpt lat="41.770454089460024" lon="12.250299095843603"><ele>5.285714285714286</ele><time>2026-03-29T09:51:12Z</time></trkpt><trkpt lat="41.77043356292647" lon="12.25020763165575"><ele>5.142857142857142</ele><time>2026-03-29T09:51:14Z</time></trkpt><trkpt lat="41.770412140628856" lon="12.250118410275759"><ele>5.0</ele><time>2026-03-29T09:51:16Z</time></trkpt><trkpt lat="41.77039196345184" lon="12.2500304790714"><ele>5.0</ele><time>2026-03-29T09:51:18Z</time></trkpt><trkpt lat="41.770363670859815" lon="12.249912400625867"><ele>5.0</ele><time>2026-03-29T09:51:21Z</time></trkpt><trkpt lat="41.77034228344171" lon="12.249809221095473"><ele>5.0</ele><time>2026-03-29T09:51:24Z</time></trkpt><trkpt lat="41.770318914438285" lon="12.249712398266324"><ele>5.0</ele><time>2026-03-29T09:51:27Z</time></trkpt><trkpt lat="41.77029915466412" lon="12.249620869603085"><ele>5.0</ele><time>2026-03-29T09:51:30Z</time></trkpt><trkpt lat="41.77028112111017" lon="12.249535385061"><ele>5.0</ele><time>2026-03-29T09:51:33Z</time></trkpt><trkpt lat="41.77026009717724" lon="12.24943978306614"><ele>4.857142857142857</ele><time>2026-03-29T09:51:36Z</time></trkpt><trkpt lat="41.7702377421722" lon="12.249359955810643"><ele>4.714285714285714</ele><time>2026-03-29T09:51:37.999Z</time></trkpt><trkpt lat="41.770218019214575" lon="12.249270630665997"><ele>4.571428571428571</ele><time>2026-03-29T09:51:39.999Z</time></trkpt><trkpt lat="41.77020014091758" lon="12.249182608074417"><ele>4.428571428571429</ele><time>2026-03-29T09:51:41.999Z</time></trkpt><trkpt lat="41.770180314242886" lon="12.249097997897572"><ele>4.285714285714286</ele><time>2026-03-29T09:51:43.999Z</time></trkpt><trkpt lat="41.770156576177925" lon="12.248987117726797"><ele>4.142857142857142</ele><time>2026-03-29T09:51:46.999Z</time></trkpt><trkpt lat="41.77011991026393" lon="12.248905091042475"><ele>4.0</ele><time>2026-03-29T09:55:25Z</time></trkpt><trkpt lat="41.77010612123232" lon="12.24880225371969"><ele>3.9999999999999996</ele><time>2026-03-29T09:55:28Z</time></trkpt><trkpt lat="41.77008550770978" lon="12.248716938630668"><ele>4.0</ele><time>2026-03-29T09:55:30Z</time></trkpt><trkpt lat="41.77006232468478" lon="12.248623828683963"><ele>4.0</ele><time>2026-03-29T09:55:32Z</time></trkpt><trkpt lat="41.770036818230956" lon="12.24851852961321"><ele>4.0</ele><time>2026-03-29T09:55:34Z</time></trkpt><trkpt lat="41.770016178428854" lon="12.2484035862579"><ele>3.9999999999999996</ele><time>2026-03-29T09:55:36Z</time></trkpt><trkpt lat="41.76998808430077" lon="12.24828646096557"><ele>4.0</ele><time>2026-03-29T09:55:38Z</time></trkpt><trkpt lat="41.769959614998925" lon="12.248161836037982"><ele>3.8000000000000003</ele><time>2026-03-29T09:55:40Z</time></trkpt><trkpt lat="41.769928681168224" lon="12.248031994793681"><ele>3.6000000000000005</ele><time>2026-03-29T09:55:42Z</time></trkpt><trkpt lat="41.76989740861771" lon="12.247909339959202"><ele>3.4</ele><time>2026-03-29T09:55:44Z</time></trkpt><trkpt lat="41.76987239854725" lon="12.24779094137633"><ele>3.2</ele><time>2026-03-29T09:55:46Z</time></trkpt><trkpt lat="41.769847253161394" lon="12.247672341848913"><ele>3.0</ele><time>2026-03-29T09:55:48Z</time></trkpt><trkpt lat="41.76982284138544" lon="12.247557656772477"><ele>3.0</ele><time>2026-03-29T09:55:50Z</time></trkpt><trkpt lat="41.76980180371011" lon="12.247444516397767"><ele>3.0</ele><time>2026-03-29T09:55:52Z</time></trkpt><trkpt lat="41.76977492155404" lon="12.24732825705096"><ele>3.0</ele><time>2026-03-29T09:55:53.999Z</time></trkpt><trkpt lat="41.76974538022232" lon="12.247204499187555"><ele>3.0</ele><time>2026-03-29T09:55:55.999Z</time></trkpt><trkpt lat="41.76972213013431" lon="12.247075924428849"><ele>3.0</ele><time>2026-03-29T09:55:57.999Z</time></trkpt><trkpt lat="41.76968786798941" lon="12.246941163947378"><ele>3.0</ele><time>2026-03-29T09:55:59.999Z</time></trkpt><trkpt lat="41.76966264332325" lon="12.246805396213412"><ele>3.0</ele><time>2026-03-29T09:56:01.999Z</time></trkpt><trkpt lat="41.76962543922518" lon="12.246653364608905"><ele>3.0</ele><time>2026-03-29T09:56:03.999Z</time></trkpt><trkpt lat="41.76959016717495" lon="12.2464983990722"><ele>3.0</ele><time>2026-03-29T09:56:05.999Z</time></trkpt><trkpt lat="41.769550166403235" lon="12.246346027798836"><ele>3.0</ele><time>2026-03-29T09:56:07.999Z</time></trkpt><trkpt lat="41.7695340036079" lon="12.246263749502326"><ele>3.0</ele><time>2026-03-29T09:56:08.999Z</time></trkpt><trkpt lat="41.76950020712203" lon="12.246106163778459"><ele>3.0</ele><time>2026-03-29T09:56:10.999Z</time></trkpt><trkpt lat="41.76946646615937" lon="12.245950926165495"><ele>3.0</ele><time>2026-03-29T09:56:12.999Z</time></trkpt><trkpt lat="41.76943689971342" lon="12.24579269025635"><ele>3.0</ele><time>2026-03-29T09:56:14.999Z</time></trkpt><trkpt lat="41.76940846193569" lon="12.245632940485692"><ele>3.0</ele><time>2026-03-29T09:56:16.999Z</time></trkpt><trkpt lat="41.76937910136432" lon="12.245477438779632"><ele>3.0</ele><time>2026-03-29T09:56:18.999Z</time></trkpt><trkpt lat="41.7693592025153" lon="12.245318006762435"><ele>3.0</ele><time>2026-03-29T09:56:20.999Z</time></trkpt><trkpt lat="41.76934073399415" lon="12.245160360009358"><ele>3.0</ele><time>2026-03-29T09:56:22.999Z</time></trkpt><trkpt lat="41.76932899325589" lon="12.245001016529342"><ele>3.0</ele><time>2026-03-29T09:56:24.999Z</time></trkpt><trkpt lat="41.76932221776132" lon="12.244843913746891"><ele>3.0</ele><time>2026-03-29T09:56:26.999Z</time></trkpt><trkpt lat="41.769321746514045" lon="12.2446809966881"><ele>3.0</ele><time>2026-03-29T09:56:28.999Z</time></trkpt><trkpt lat="41.769326729334146" lon="12.244518705737399"><ele>3.0</ele><time>2026-03-29T09:56:30.999Z</time></trkpt><trkpt lat="41.769327280191575" lon="12.244359624035715"><ele>3.0</ele><time>2026-03-29T09:56:32.998Z</time></trkpt><trkpt lat="41.769333225625594" lon="12.244204383958227"><ele>3.0</ele><time>2026-03-29T09:56:34.998Z</time></trkpt><trkpt lat="41.76933788318994" lon="12.244050062419857"><ele>3.0</ele><time>2026-03-29T09:56:36.998Z</time></trkpt><trkpt lat="41.769356796628756" lon="12.243896775587089"><ele>3.0</ele><time>2026-03-29T09:56:38.998Z</time></trkpt><trkpt lat="41.769371696250175" lon="12.243742567832447"><ele>2.75</ele><time>2026-03-29T09:56:40.998Z</time></trkpt><trkpt lat="41.76939533838888" lon="12.243586585763474"><ele>2.5</ele><time>2026-03-29T09:56:42.998Z</time></trkpt><trkpt lat="41.7694227066748" lon="12.243433289562383"><ele>2.25</ele><time>2026-03-29T09:56:44.998Z</time></trkpt><trkpt lat="41.76945094255602" lon="12.243285508491587"><ele>2.0</ele><time>2026-03-29T09:56:46.998Z</time></trkpt><trkpt lat="41.76948437292541" lon="12.243132386526296"><ele>2.0</ele><time>2026-03-29T09:56:48.998Z</time></trkpt><trkpt lat="41.769526374231674" lon="12.242988228091018"><ele>2.0</ele><time>2026-03-29T09:56:50.998Z</time></trkpt><trkpt lat="41.76956591855045" lon="12.242844040446471"><ele>2.0</ele><time>2026-03-29T09:56:52.998Z</time></trkpt><trkpt lat="41.76961185668231" lon="12.24270551361835"><ele>2.0</ele><time>2026-03-29T09:56:54.998Z</time></trkpt><trkpt lat="41.769657730428364" lon="12.242568333637085"><ele>2.0</ele><time>2026-03-29T09:56:56.998Z</time></trkpt><trkpt lat="41.76970358876121" lon="12.242432815600932"><ele>2.0</ele><time>2026-03-29T09:56:58.998Z</time></trkpt><trkpt lat="41.7697554692062" lon="12.242289358331334"><ele>2.0</ele><time>2026-03-29T09:57:00.998Z</time></trkpt><trkpt lat="41.76980842882875" lon="12.242145495650183"><ele>2.0</ele><time>2026-03-29T09:57:02.998Z</time></trkpt><trkpt lat="41.76986038113566" lon="12.242008120380296"><ele>2.25</ele><time>2026-03-29T09:57:04.998Z</time></trkpt><trkpt lat="41.769908101470854" lon="12.241861496760576"><ele>2.5</ele><time>2026-03-29T09:57:06.998Z</time></trkpt><trkpt lat="41.76995959500004" lon="12.241720420420775"><ele>2.75</ele><time>2026-03-29T09:57:08.998Z</time></trkpt><trkpt lat="41.77001090654968" lon="12.241577319215798"><ele>3.0</ele><time>2026-03-29T09:57:10.998Z</time></trkpt><trkpt lat="41.77006009228125" lon="12.241434049380095"><ele>3.0</ele><time>2026-03-29T09:57:12.997Z</time></trkpt><trkpt lat="41.77010730614899" lon="12.241288891536016"><ele>3.0</ele><time>2026-03-29T09:57:14.997Z</time></trkpt><trkpt lat="41.77015764551855" lon="12.241143256466476"><ele>3.0</ele><time>2026-03-29T09:57:16.997Z</time></trkpt><trkpt lat="41.770211822387594" lon="12.240999356015793"><ele>3.0</ele><time>2026-03-29T09:57:18.997Z</time></trkpt><trkpt lat="41.77025812134122" lon="12.240857388751737"><ele>2.5</ele><time>2026-03-29T09:57:20.997Z</time></trkpt><trkpt lat="41.77030983190785" lon="12.240716341018098"><ele>2.0</ele><time>2026-03-29T09:57:22.997Z</time></trkpt><trkpt lat="41.7703581458874" lon="12.240573525473378"><ele>1.5</ele><time>2026-03-29T09:57:24.997Z</time></trkpt><trkpt lat="41.770408958715905" lon="12.240434443593294"><ele>1.0</ele><time>2026-03-29T09:57:27Z</time></trkpt><trkpt lat="41.77045939251263" lon="12.24029777372195"><ele>1.8</ele><time>2026-03-29T09:57:29Z</time></trkpt><trkpt lat="41.77050113853094" lon="12.240160079464742"><ele>2.6</ele><time>2026-03-29T09:57:31Z</time></trkpt><trkpt lat="41.77054804728705" lon="12.240030670384364"><ele>3.4</ele><time>2026-03-29T09:57:33Z</time></trkpt><trkpt lat="41.77057028607398" lon="12.239948533731427"><ele>4.2</ele><time>2026-03-29T09:57:34Z</time></trkpt><trkpt lat="41.770621717267694" lon="12.239795537438146"><ele>5.0</ele><time>2026-03-29T09:57:36Z</time></trkpt><trkpt lat="41.77067588552669" lon="12.239649988247308"><ele>5.2</ele><time>2026-03-29T09:57:38Z</time></trkpt><trkpt lat="41.77072946756906" lon="12.23950158594255"><ele>5.4</ele><time>2026-03-29T09:57:40Z</time></trkpt><trkpt lat="41.77077984309682" lon="12.23935392243824"><ele>5.6</ele><time>2026-03-29T09:57:42Z</time></trkpt><trkpt lat="41.770789267267546" lon="12.239268800517475"><ele>5.8</ele><time>2026-03-29T09:57:43Z</time></trkpt><trkpt lat="41.7708190659625" lon="12.239113326670793"><ele>6.0</ele><time>2026-03-29T09:57:45Z</time></trkpt><trkpt lat="41.770824331332456" lon="12.239025842569667"><ele>5.6</ele><time>2026-03-29T09:57:46Z</time></trkpt><trkpt lat="41.77083731876877" lon="12.238856827290947"><ele>5.199999999999999</ele><time>2026-03-29T09:57:48Z</time></trkpt><trkpt lat="41.77086257938099" lon="12.238700435012241"><ele>4.800000000000001</ele><time>2026-03-29T09:57:50Z</time></trkpt><trkpt lat="41.770865211648804" lon="12.238613101446497"><ele>4.4</ele><time>2026-03-29T09:57:51Z</time></trkpt><trkpt lat="41.770880205403955" lon="12.238450379444268"><ele>4.0</ele><time>2026-03-29T09:57:53Z</time></trkpt><trkpt lat="41.770893827811825" lon="12.238287407257632"><ele>3.5</ele><time>2026-03-29T09:57:55Z</time></trkpt><trkpt lat="41.77090023271832" lon="12.238120175444552"><ele>3.0</ele><time>2026-03-29T09:57:57Z</time></trkpt><trkpt lat="41.77091425384082" lon="12.237959175683818"><ele>2.5</ele><time>2026-03-29T09:57:59Z</time></trkpt><trkpt lat="41.770925672572076" lon="12.237813843138305"><ele>2.0</ele><time>2026-03-29T09:58:00.999Z</time></trkpt><trkpt lat="41.77094127854378" lon="12.237658983110817"><ele>2.0</ele><time>2026-03-29T09:58:02.999Z</time></trkpt><trkpt lat="41.77095639523154" lon="12.237507534663969"><ele>2.0</ele><time>2026-03-29T09:58:04.999Z</time></trkpt><trkpt lat="41.770970224521406" lon="12.237352848310184"><ele>2.0</ele><time>2026-03-29T09:58:06.999Z</time></trkpt><trkpt lat="41.770980698185284" lon="12.237194533766798"><ele>2.0</ele><time>2026-03-29T09:58:08.999Z</time></trkpt><trkpt lat="41.77099253394689" lon="12.237038044055897"><ele>1.75</ele><time>2026-03-29T09:58:10.999Z</time></trkpt><trkpt lat="41.771032778101784" lon="12.236884400140722"><ele>1.5</ele><time>2026-03-29T09:58:12.999Z</time></trkpt><trkpt lat="41.7710829762337" lon="12.23674841388538"><ele>1.25</ele><time>2026-03-29T09:58:14.999Z</time></trkpt><trkpt lat="41.77109810401247" lon="12.236594267398855"><ele>1.0</ele><time>2026-03-29T09:58:16.999Z</time></trkpt><trkpt lat="41.771086646755414" lon="12.236447122732445"><ele>1.0</ele><time>2026-03-29T09:58:18.999Z</time></trkpt><trkpt lat="41.77106489102498" lon="12.236285462884526"><ele>1.0</ele><time>2026-03-29T09:58:20.999Z</time></trkpt><trkpt lat="41.77105444040963" lon="12.236124156684742"><ele>1.0</ele><time>2026-03-29T09:58:22.999Z</time></trkpt><trkpt lat="41.771053306304665" lon="12.235966396294195"><ele>1.0</ele><time>2026-03-29T09:58:24.999Z</time></trkpt><trkpt lat="41.77105928165431" lon="12.235815541446927"><ele>0.9999999999999999</ele><time>2026-03-29T09:58:26.999Z</time></trkpt><trkpt lat="41.77107219867403" lon="12.235683312589646"><ele>1.0</ele><time>2026-03-29T09:58:28.999Z</time></trkpt><trkpt lat="41.77108735761762" lon="12.235560697687525"><ele>1.0</ele><time>2026-03-29T09:58:30.999Z</time></trkpt><trkpt lat="41.771102272433005" lon="12.23546284179276"><ele>1.0</ele><time>2026-03-29T09:58:32.999Z</time></trkpt><trkpt lat="41.77112148332652" lon="12.23537703436821"><ele>0.9999999999999999</ele><time>2026-03-29T09:58:34.999Z</time></trkpt><trkpt lat="41.77114831978131" lon="12.235299114803793"><ele>1.0</ele><time>2026-03-29T09:58:36.999Z</time></trkpt><trkpt lat="41.77116918213247" lon="12.235211699738182"><ele>1.0</ele><time>2026-03-29T09:58:38.999Z</time></trkpt><trkpt lat="41.771188739491045" lon="12.23511814908613"><ele>0.9999999999999999</ele><time>2026-03-29T09:58:40.998Z</time></trkpt><trkpt lat="41.77118842742603" lon="12.235027215456912"><ele>1.0</ele><time>2026-03-29T09:58:42.998Z</time></trkpt><trkpt lat="41.771220158469355" lon="12.235103331927434"><ele>1.0</ele><time>2026-03-29T09:58:49.998Z</time></trkpt><trkpt lat="41.77125945885326" lon="12.23517175154297"><ele>0.9999999999999999</ele><time>2026-03-29T09:58:52.998Z</time></trkpt><trkpt lat="41.771294470179505" lon="12.235082855488844"><ele>1.0</ele><time>2026-03-29T09:58:59.998Z</time></trkpt><trkpt lat="41.77130922910313" lon="12.23498986486114"><ele>1.0</ele><time>2026-03-29T09:59:03.998Z</time></trkpt><trkpt lat="41.771290460555534" lon="12.234892821310085"><ele>0.6666666666666666</ele><time>2026-03-29T09:59:06.998Z</time></trkpt><trkpt lat="41.77126406113673" lon="12.234798847869"><ele>0.3333333333333333</ele><time>2026-03-29T09:59:09.998Z</time></trkpt><trkpt lat="41.77124216080082" lon="12.234682798874585"><ele>0.0</ele><time>2026-03-29T09:59:12.998Z</time></trkpt><trkpt lat="41.771231791142284" lon="12.234596047527909"><ele>-0.3333333333333333</ele><time>2026-03-29T09:59:14.998Z</time></trkpt><trkpt lat="41.77122559803307" lon="12.234496673867184"><ele>-0.6666666666666666</ele><time>2026-03-29T09:59:16.998Z</time></trkpt><trkpt lat="41.771209322496645" lon="12.234379000925902"><ele>-1.0</ele><time>2026-03-29T09:59:18.998Z</time></trkpt><trkpt lat="41.771191276936165" lon="12.234261519807964"><ele>-0.9999999999999999</ele><time>2026-03-29T09:59:20.997Z</time></trkpt><trkpt lat="41.77117440613868" lon="12.2341285668388"><ele>-1.0</ele><time>2026-03-29T09:59:22.997Z</time></trkpt><trkpt lat="41.77115276317051" lon="12.234004137945421"><ele>-1.0</ele><time>2026-03-29T09:59:24.997Z</time></trkpt><trkpt lat="41.771136188394465" lon="12.233889731124982"><ele>-1.0</ele><time>2026-03-29T09:59:26.997Z</time></trkpt><trkpt lat="41.77112986187198" lon="12.233775654453122"><ele>-0.9999999999999999</ele><time>2026-03-29T09:59:28.997Z</time></trkpt><trkpt lat="41.77112768064698" lon="12.233670853750178"><ele>-1.0</ele><time>2026-03-29T09:59:30.997Z</time></trkpt><trkpt lat="41.771118851817654" lon="12.233575246525785"><ele>-0.8333333333333333</ele><time>2026-03-29T09:59:33Z</time></trkpt><trkpt lat="41.77111169476337" lon="12.233459489786634"><ele>-0.6666666666666666</ele><time>2026-03-29T09:59:36Z</time></trkpt><trkpt lat="41.771101182935965" lon="12.233345889947579"><ele>-0.5</ele><time>2026-03-29T09:59:39Z</time></trkpt><trkpt lat="41.77109292444313" lon="12.233245118125943"><ele>-0.3333333333333333</ele><time>2026-03-29T09:59:42Z</time></trkpt><trkpt lat="41.77108046525438" lon="12.233142733882744"><ele>-0.16666666666666666</ele><time>2026-03-29T09:59:47Z</time></trkpt><trkpt lat="41.77106358683829" lon="12.233014740416179"><ele>0.0</ele><time>2026-03-29T09:59:50Z</time></trkpt><trkpt lat="41.77105457423721" lon="12.23290013694132"><ele>0.3333333333333333</ele><time>2026-03-29T09:59:52Z</time></trkpt><trkpt lat="41.77104452872909" lon="12.232773057050917"><ele>0.6666666666666666</ele><time>2026-03-29T09:59:54Z</time></trkpt><trkpt lat="41.77103532909424" lon="12.232646691637932"><ele>1.0</ele><time>2026-03-29T09:59:56Z</time></trkpt><trkpt lat="41.77103018928374" lon="12.232528009551586"><ele>1.3333333333333333</ele><time>2026-03-29T09:59:58Z</time></trkpt><trkpt lat="41.77101647601314" lon="12.232417430529173"><ele>1.6666666666666665</ele><time>2026-03-29T10:00:00Z</time></trkpt><trkpt lat="41.77101249407867" lon="12.232315360278257"><ele>2.0</ele><time>2026-03-29T10:00:02Z</time></trkpt><trkpt lat="41.77100032308086" lon="12.23221901606995"><ele>2.0</ele><time>2026-03-29T10:00:04Z</time></trkpt><trkpt lat="41.77099318455413" lon="12.232125931197023"><ele>1.9999999999999998</ele><time>2026-03-29T10:00:06Z</time></trkpt><trkpt lat="41.77099721300728" lon="12.232038767863125"><ele>2.0</ele><time>2026-03-29T10:00:07.999Z</time></trkpt><trkpt lat="41.77097558051546" lon="12.231921595106167"><ele>2.0</ele><time>2026-03-29T10:00:10.999Z</time></trkpt><trkpt lat="41.770965640800455" lon="12.231816118449622"><ele>1.9999999999999998</ele><time>2026-03-29T10:00:13.999Z</time></trkpt><trkpt lat="41.77095952067739" lon="12.23171803617018"><ele>2.0</ele><time>2026-03-29T10:00:16.999Z</time></trkpt><trkpt lat="41.77095132476183" lon="12.231628900894997"><ele>2.0</ele><time>2026-03-29T10:00:19.999Z</time></trkpt><trkpt lat="41.77094548797828" lon="12.231528632901801"><ele>1.6666666666666665</ele><time>2026-03-29T10:00:23.999Z</time></trkpt><trkpt lat="41.7709367310118" lon="12.231430426688076"><ele>1.3333333333333333</ele><time>2026-03-29T10:00:28.999Z</time></trkpt><trkpt lat="41.77092595775629" lon="12.23131281191025"><ele>1.0</ele><time>2026-03-29T10:00:32.999Z</time></trkpt><trkpt lat="41.77091686864343" lon="12.231195787835782"><ele>0.6666666666666666</ele><time>2026-03-29T10:00:35.999Z</time></trkpt><trkpt lat="41.77090817841897" lon="12.231103732427732"><ele>0.3333333333333333</ele><time>2026-03-29T10:00:37.999Z</time></trkpt><trkpt lat="41.77090137351749" lon="12.231005650243434"><ele>0.0</ele><time>2026-03-29T10:00:39.999Z</time></trkpt><trkpt lat="41.77089404752112" lon="12.230904445402272"><ele>0.0</ele><time>2026-03-29T10:00:41.999Z</time></trkpt><trkpt lat="41.77088422111921" lon="12.230792236350984"><ele>0.0</ele><time>2026-03-29T10:00:43.999Z</time></trkpt><trkpt lat="41.77087460074991" lon="12.23067159997422"><ele>0.0</ele><time>2026-03-29T10:00:45.999Z</time></trkpt><trkpt lat="41.770862856708" lon="12.230545361644312"><ele>0.0</ele><time>2026-03-29T10:00:47.998Z</time></trkpt><trkpt lat="41.77085458815815" lon="12.230412518639083"><ele>0.0</ele><time>2026-03-29T10:00:49.998Z</time></trkpt><trkpt lat="41.770839632591795" lon="12.230272501834254"><ele>-0.2</ele><time>2026-03-29T10:00:51.998Z</time></trkpt><trkpt lat="41.77082553430652" lon="12.230141250660017"><ele>-0.4</ele><time>2026-03-29T10:00:53.998Z</time></trkpt><trkpt lat="41.77081709218324" lon="12.230002386592414"><ele>-0.6000000000000001</ele><time>2026-03-29T10:00:55.998Z</time></trkpt><trkpt lat="41.77080615619197" lon="12.2298705170471"><ele>-0.8</ele><time>2026-03-29T10:00:57.998Z</time></trkpt><trkpt lat="41.77079220163722" lon="12.229745064166389"><ele>-1.0</ele><time>2026-03-29T10:00:59.998Z</time></trkpt><trkpt lat="41.770779575666495" lon="12.229629109287393"><ele>-0.9999999999999999</ele><time>2026-03-29T10:01:01.998Z</time></trkpt><trkpt lat="41.770776452373354" lon="12.229532051350523"><ele>-1.0</ele><time>2026-03-29T10:01:03.998Z</time></trkpt><trkpt lat="41.77068903386401" lon="12.229430141484741"><ele>-1.0</ele><time>2026-03-29T10:01:06.998Z</time></trkpt><trkpt lat="41.77068144241071" lon="12.229330078531278"><ele>-1.0</ele><time>2026-03-29T10:01:08.998Z</time></trkpt><trkpt lat="41.77067308313422" lon="12.229225420393423"><ele>-0.9999999999999999</ele><time>2026-03-29T10:01:10.998Z</time></trkpt><trkpt lat="41.77066470418929" lon="12.229120516003958"><ele>-1.0</ele><time>2026-03-29T10:01:12.998Z</time></trkpt><trkpt lat="41.77065584099675" lon="12.229009548801947"><ele>-0.9999999999999999</ele><time>2026-03-29T10:01:14.998Z</time></trkpt><trkpt lat="41.77064614994839" lon="12.228893808285967"><ele>-1.0</ele><time>2026-03-29T10:01:16.998Z</time></trkpt><trkpt lat="41.77063619515557" lon="12.228774410920243"><ele>-1.0</ele><time>2026-03-29T10:01:18.998Z</time></trkpt><trkpt lat="41.77062607324411" lon="12.228653009143562"><ele>-1.0</ele><time>2026-03-29T10:01:20.998Z</time></trkpt><trkpt lat="41.77061899565715" lon="12.228538371817214"><ele>-0.9999999999999999</ele><time>2026-03-29T10:01:22.998Z</time></trkpt><trkpt lat="41.77061316298246" lon="12.228431488046851"><ele>-1.0</ele><time>2026-03-29T10:01:24.998Z</time></trkpt><trkpt lat="41.77060856047274" lon="12.22833594762919"><ele>-0.9999999999999999</ele><time>2026-03-29T10:01:26.997Z</time></trkpt><trkpt lat="41.77060362752657" lon="12.228228008606767"><ele>-1.0</ele><time>2026-03-29T10:01:29.997Z</time></trkpt><trkpt lat="41.77059768554827" lon="12.228097990684937"><ele>-1.0</ele><time>2026-03-29T10:01:32.997Z</time></trkpt><trkpt lat="41.77059233922302" lon="12.22799146046488"><ele>-1.0</ele><time>2026-03-29T10:01:34.997Z</time></trkpt><trkpt lat="41.77058584327037" lon="12.227869466459852"><ele>-0.9999999999999999</ele><time>2026-03-29T10:01:36.997Z</time></trkpt><trkpt lat="41.77057832821213" lon="12.227747754144051"><ele>-1.0</ele><time>2026-03-29T10:01:39Z</time></trkpt><trkpt lat="41.77056992227681" lon="12.227647277825358"><ele>-0.8333333333333333</ele><time>2026-03-29T10:01:41Z</time></trkpt><trkpt lat="41.77055402117009" lon="12.227557267473957"><ele>-0.6666666666666666</ele><time>2026-03-29T10:01:43Z</time></trkpt><trkpt lat="41.77052404511828" lon="12.227463538231332"><ele>-0.5</ele><time>2026-03-29T10:01:45Z</time></trkpt><trkpt lat="41.77048101752592" lon="12.22736831017268"><ele>-0.3333333333333333</ele><time>2026-03-29T10:01:47Z</time></trkpt><trkpt lat="41.77043524469462" lon="12.227309797125045"><ele>-0.16666666666666666</ele><time>2026-03-29T10:01:49Z</time></trkpt><trkpt lat="41.770501317021186" lon="12.227138775831996"><ele>0.0</ele><time>2026-03-29T10:01:50Z</time></trkpt><trkpt lat="41.77049016851292" lon="12.227016624802758"><ele>0.0</ele><time>2026-03-29T10:01:52Z</time></trkpt><trkpt lat="41.77047781275914" lon="12.226881780903604"><ele>0.0</ele><time>2026-03-29T10:01:54Z</time></trkpt><trkpt lat="41.770487623734795" lon="12.22676654618377"><ele>0.0</ele><time>2026-03-29T10:01:56Z</time></trkpt><trkpt lat="41.77049543676119" lon="12.226663165810981"><ele>0.0</ele><time>2026-03-29T10:01:58Z</time></trkpt><trkpt lat="41.77035547379946" lon="12.226577739081845"><ele>0.0</ele><time>2026-03-29T10:02:01Z</time></trkpt><trkpt lat="41.77025906749376" lon="12.226572921778473"><ele>0.0</ele><time>2026-03-29T10:02:03Z</time></trkpt><trkpt lat="41.770176537179246" lon="12.22656865099244"><ele>0.0</ele><time>2026-03-29T10:02:05Z</time></trkpt><trkpt lat="41.77009317756024" lon="12.226577118941298"><ele>0.0</ele><time>2026-03-29T10:02:07Z</time></trkpt><trkpt lat="41.77001988449844" lon="12.226578284187783"><ele>0.0</ele><time>2026-03-29T10:02:09Z</time></trkpt><trkpt lat="41.769948183980915" lon="12.226581210044841"><ele>0.0</ele><time>2026-03-29T10:02:11Z</time></trkpt><trkpt lat="41.76986063543173" lon="12.226579718958366"><ele>0.0</ele><time>2026-03-29T10:02:14Z</time></trkpt><trkpt lat="41.76977946705727" lon="12.226687190597382"><ele>0.0</ele><time>2026-03-29T10:02:16.999Z</time></trkpt><trkpt lat="41.76970915907092" lon="12.226683394323922"><ele>0.0</ele><time>2026-03-29T10:02:19.999Z</time></trkpt><trkpt lat="41.76964088612755" lon="12.226679707933275"><ele>0.0</ele><time>2026-03-29T10:02:23.999Z</time></trkpt><trkpt lat="41.769577464310245" lon="12.22667666553643"><ele>0.0</ele><time>2026-03-29T10:02:26.999Z</time></trkpt><trkpt lat="41.76950949807967" lon="12.22666947227551"><ele>0.0</ele><time>2026-03-29T10:02:29.999Z</time></trkpt><trkpt lat="41.769434369019585" lon="12.226660799143287"><ele>0.0</ele><time>2026-03-29T10:02:32.999Z</time></trkpt><trkpt lat="41.76934865677351" lon="12.226649963819208"><ele>0.0</ele><time>2026-03-29T10:02:35.999Z</time></trkpt><trkpt lat="41.76928202588463" lon="12.226641540658528"><ele>-0.2</ele><time>2026-03-29T10:02:37.999Z</time></trkpt><trkpt lat="41.769281325465734" lon="12.226412319673827"><ele>-0.4</ele><time>2026-03-29T10:02:40.999Z</time></trkpt><trkpt lat="41.76927456941671" lon="12.226319829100362"><ele>-0.6000000000000001</ele><time>2026-03-29T10:02:42.999Z</time></trkpt><trkpt lat="41.76928121307226" lon="12.226224189725501"><ele>-0.8</ele><time>2026-03-29T10:02:44.999Z</time></trkpt><trkpt lat="41.769291851188214" lon="12.226123913247314"><ele>-1.0</ele><time>2026-03-29T10:02:46.999Z</time></trkpt><trkpt lat="41.76929423678466" lon="12.226020150085088"><ele>-1.0</ele><time>2026-03-29T10:02:48.999Z</time></trkpt><trkpt lat="41.76916827303214" lon="12.225961950870941"><ele>-1.0</ele><time>2026-03-29T10:02:49.999Z</time></trkpt><trkpt lat="41.769170654720526" lon="12.225852059745463"><ele>-1.0</ele><time>2026-03-29T10:02:51.999Z</time></trkpt><trkpt lat="41.769172966010544" lon="12.225745416811629"><ele>-1.0</ele><time>2026-03-29T10:02:53.999Z</time></trkpt><trkpt lat="41.76917518386108" lon="12.225643085191132"><ele>-1.0</ele><time>2026-03-29T10:02:55.998Z</time></trkpt><trkpt lat="41.76917746951997" lon="12.225534591538166"><ele>-0.8333333333333333</ele><time>2026-03-29T10:02:57.998Z</time></trkpt><trkpt lat="41.7691793380824" lon="12.225425156135517"><ele>-0.6666666666666666</ele><time>2026-03-29T10:02:59.998Z</time></trkpt><trkpt lat="41.769181113630665" lon="12.225316405519898"><ele>-0.5</ele><time>2026-03-29T10:03:01.998Z</time></trkpt><trkpt lat="41.76918263679465" lon="12.225219024585021"><ele>-0.3333333333333333</ele><time>2026-03-29T10:03:03.998Z</time></trkpt><trkpt lat="41.769184273777356" lon="12.225114366796884"><ele>-0.16666666666666666</ele><time>2026-03-29T10:03:05.998Z</time></trkpt><trkpt lat="41.76918601431785" lon="12.225003088228043"><ele>0.0</ele><time>2026-03-29T10:03:07.998Z</time></trkpt><trkpt lat="41.769187773547856" lon="12.224890614806176"><ele>0.16666666666666666</ele><time>2026-03-29T10:03:09.998Z</time></trkpt><trkpt lat="41.769189434785815" lon="12.224784406262488"><ele>0.3333333333333333</ele><time>2026-03-29T10:03:11.998Z</time></trkpt><trkpt lat="41.76919326427302" lon="12.224691317988464"><ele>0.5</ele><time>2026-03-29T10:03:13.998Z</time></trkpt><trkpt lat="41.76922020865252" lon="12.224597546858645"><ele>0.6666666666666666</ele><time>2026-03-29T10:03:15.998Z</time></trkpt><trkpt lat="41.769229267683315" lon="12.224492311010868"><ele>0.8333333333333333</ele><time>2026-03-29T10:03:18.998Z</time></trkpt><trkpt lat="41.76924882700172" lon="12.22439059150029"><ele>1.0</ele><time>2026-03-29T10:03:23.998Z</time></trkpt><trkpt lat="41.76932095167498" lon="12.224311955724431"><ele>0.9999999999999999</ele><time>2026-03-29T10:03:25.998Z</time></trkpt><trkpt lat="41.769367049626965" lon="12.224247140748831"><ele>1.0</ele><time>2026-03-29T10:03:27.998Z</time></trkpt><trkpt lat="41.76940894755333" lon="12.22414524357846"><ele>1.0</ele><time>2026-03-29T10:03:29.998Z</time></trkpt><trkpt lat="41.76946890232335" lon="12.224046063189064"><ele>1.0</ele><time>2026-03-29T10:03:31.998Z</time></trkpt><trkpt lat="41.769527460351206" lon="12.223956923302428"><ele>0.9999999999999999</ele><time>2026-03-29T10:03:33.997Z</time></trkpt><trkpt lat="41.76958630459019" lon="12.223869764191857"><ele>1.0</ele><time>2026-03-29T10:03:35.997Z</time></trkpt><trkpt lat="41.769636657267505" lon="12.223775557577566"><ele>0.9999999999999999</ele><time>2026-03-29T10:03:37.997Z</time></trkpt><trkpt lat="41.76968752870651" lon="12.223688116835872"><ele>1.0</ele><time>2026-03-29T10:03:39.997Z</time></trkpt><trkpt lat="41.76972240472177" lon="12.223578997418917"><ele>1.0</ele><time>2026-03-29T10:03:41.997Z</time></trkpt><trkpt lat="41.769721765265594" lon="12.223488195074271"><ele>1.0</ele><time>2026-03-29T10:03:44Z</time></trkpt><trkpt lat="41.769652908699115" lon="12.223446657446535"><ele>0.9999999999999999</ele><time>2026-03-29T10:03:47Z</time></trkpt><trkpt lat="41.769573381649316" lon="12.223447875006958"><ele>1.0</ele><time>2026-03-29T10:03:49Z</time></trkpt><trkpt lat="41.769470808923714" lon="12.223339989792866"><ele>1.0</ele><time>2026-03-29T10:03:51Z</time></trkpt><trkpt lat="41.769389869836836" lon="12.22326874486366"><ele>1.0</ele><time>2026-03-29T10:03:53Z</time></trkpt><trkpt lat="41.76930782697776" lon="12.223196283551196"><ele>1.0</ele><time>2026-03-29T10:03:55Z</time></trkpt><trkpt lat="41.769229404367444" lon="12.223127000285727"><ele>1.0</ele><time>2026-03-29T10:03:57Z</time></trkpt><trkpt lat="41.76915607871061" lon="12.22306236043087"><ele>1.0</ele><time>2026-03-29T10:03:59Z</time></trkpt><trkpt lat="41.76909162577589" lon="12.223013319766928"><ele>1.25</ele><time>2026-03-29T10:04:01Z</time></trkpt><trkpt lat="41.76903230656909" lon="12.222981388519491"><ele>1.5</ele><time>2026-03-29T10:04:03Z</time></trkpt><trkpt lat="41.76902714697191" lon="12.222821103684492"><ele>1.75</ele><time>2026-03-29T10:04:05Z</time></trkpt><trkpt lat="41.76899498622477" lon="12.222720391662849"><ele>2.0</ele><time>2026-03-29T10:04:07Z</time></trkpt><trkpt lat="41.76877103148127" lon="12.222750989763666"><ele>2.0</ele><time>2026-03-29T10:04:12Z</time></trkpt><trkpt lat="41.76867771598478" lon="12.222785769539815"><ele>2.0</ele><time>2026-03-29T10:04:14Z</time></trkpt><trkpt lat="41.7686695819012" lon="12.223045149064236"><ele>2.0</ele><time>2026-03-29T10:04:15Z</time></trkpt><trkpt lat="41.76857627095901" lon="12.223071479890471"><ele>2.0</ele><time>2026-03-29T10:04:17Z</time></trkpt><trkpt lat="41.76849032145245" lon="12.2230957477621"><ele>1.8333333333333333</ele><time>2026-03-29T10:04:19Z</time></trkpt><trkpt lat="41.76841050256765" lon="12.223118344378808"><ele>1.6666666666666665</ele><time>2026-03-29T10:04:20.999Z</time></trkpt><trkpt lat="41.76833140050121" lon="12.223140738071947"><ele>1.5</ele><time>2026-03-29T10:04:22.999Z</time></trkpt><trkpt lat="41.7682521040551" lon="12.223163641230936"><ele>1.3333333333333333</ele><time>2026-03-29T10:04:24.999Z</time></trkpt><trkpt lat="41.76816476298137" lon="12.223189068592191"><ele>1.1666666666666665</ele><time>2026-03-29T10:04:26.999Z</time></trkpt><trkpt lat="41.76807323038199" lon="12.223215716220555"><ele>1.0</ele><time>2026-03-29T10:04:28.999Z</time></trkpt><trkpt lat="41.7679825191031" lon="12.223242124740493"><ele>0.9999999999999999</ele><time>2026-03-29T10:04:30.999Z</time></trkpt><trkpt lat="41.7678960763039" lon="12.22326729058976"><ele>1.0</ele><time>2026-03-29T10:04:32.999Z</time></trkpt><trkpt lat="41.76781684659644" lon="12.223290356511873"><ele>1.0</ele><time>2026-03-29T10:04:34.999Z</time></trkpt><trkpt lat="41.76773459579812" lon="12.223314357023645"><ele>1.0</ele><time>2026-03-29T10:04:36.999Z</time></trkpt><trkpt lat="41.76764856071374" lon="12.223339528768706"><ele>0.9999999999999999</ele><time>2026-03-29T10:04:38.999Z</time></trkpt><trkpt lat="41.76755684206983" lon="12.223366363383027"><ele>1.0</ele><time>2026-03-29T10:04:40.999Z</time></trkpt><trkpt lat="41.767471924439725" lon="12.223391208989913"><ele>0.9999999999999999</ele><time>2026-03-29T10:04:42.999Z</time></trkpt><trkpt lat="41.76738891398114" lon="12.223415495807014"><ele>1.0</ele><time>2026-03-29T10:04:44.999Z</time></trkpt><trkpt lat="41.76730910887714" lon="12.223438843511484"><ele>1.0</ele><time>2026-03-29T10:04:46.999Z</time></trkpt><trkpt lat="41.767229767045094" lon="12.223460391446721"><ele>1.0</ele><time>2026-03-29T10:04:48.999Z</time></trkpt><trkpt lat="41.767150846353644" lon="12.223482505730763"><ele>0.9999999999999999</ele><time>2026-03-29T10:04:50.999Z</time></trkpt><trkpt lat="41.7670677503541" lon="12.223505789979594"><ele>1.0</ele><time>2026-03-29T10:04:52.999Z</time></trkpt><trkpt lat="41.7669799257935" lon="12.223529772481498"><ele>0.9999999999999999</ele><time>2026-03-29T10:04:54.999Z</time></trkpt><trkpt lat="41.766892381409946" lon="12.223553604157868"><ele>1.0</ele><time>2026-03-29T10:04:56.999Z</time></trkpt><trkpt lat="41.766808514544216" lon="12.223576434723197"><ele>1.0</ele><time>2026-03-29T10:04:58.999Z</time></trkpt><trkpt lat="41.766721848958966" lon="12.223600120762335"><ele>1.0</ele><time>2026-03-29T10:05:00.998Z</time></trkpt><trkpt lat="41.76663575570757" lon="12.223624260256576"><ele>0.9999999999999999</ele><time>2026-03-29T10:05:02.998Z</time></trkpt><trkpt lat="41.76654950790068" lon="12.223649109902018"><ele>1.0</ele><time>2026-03-29T10:05:04.998Z</time></trkpt><trkpt lat="41.7664626071775" lon="12.223674643092933"><ele>0.9999999999999999</ele><time>2026-03-29T10:05:06.998Z</time></trkpt><trkpt lat="41.76637641244948" lon="12.223699242444768"><ele>1.0</ele><time>2026-03-29T10:05:08.998Z</time></trkpt><trkpt lat="41.766305043374494" lon="12.223720945017046"><ele>1.0</ele><time>2026-03-29T10:05:10.998Z</time></trkpt><trkpt lat="41.76622518750218" lon="12.223742736944857"><ele>1.0</ele><time>2026-03-29T10:05:12.998Z</time></trkpt><trkpt lat="41.766142217327435" lon="12.223765453476101"><ele>0.9999999999999999</ele><time>2026-03-29T10:05:14.998Z</time></trkpt><trkpt lat="41.766054318047026" lon="12.223789519563573"><ele>1.0</ele><time>2026-03-29T10:05:16.998Z</time></trkpt><trkpt lat="41.76596842610598" lon="12.223813195042442"><ele>1.1666666666666665</ele><time>2026-03-29T10:05:18.998Z</time></trkpt><trkpt lat="41.765878189621" lon="12.223840501145466"><ele>1.3333333333333333</ele><time>2026-03-29T10:05:20.998Z</time></trkpt><trkpt lat="41.765791462318624" lon="12.2238667453461"><ele>1.5</ele><time>2026-03-29T10:05:22.998Z</time></trkpt><trkpt lat="41.76570519609021" lon="12.223892850051643"><ele>1.6666666666666665</ele><time>2026-03-29T10:05:24.998Z</time></trkpt><trkpt lat="41.76562150031733" lon="12.223918177082368"><ele>1.8333333333333333</ele><time>2026-03-29T10:05:26.998Z</time></trkpt><trkpt lat="41.765541938788125" lon="12.223943418004392"><ele>2.0</ele><time>2026-03-29T10:05:28.998Z</time></trkpt><trkpt lat="41.76546218095468" lon="12.223968084917288"><ele>1.9999999999999998</ele><time>2026-03-29T10:05:30.998Z</time></trkpt><trkpt lat="41.76538629394562" lon="12.22399155469108"><ele>2.0</ele><time>2026-03-29T10:05:32.998Z</time></trkpt><trkpt lat="41.76531752232848" lon="12.224012917632358"><ele>2.0</ele><time>2026-03-29T10:05:34.998Z</time></trkpt><trkpt lat="41.76524819886712" lon="12.22403452419356"><ele>2.0</ele><time>2026-03-29T10:05:36.998Z</time></trkpt><trkpt lat="41.76517193116403" lon="12.224058295111407"><ele>1.9999999999999998</ele><time>2026-03-29T10:05:38.997Z</time></trkpt><trkpt lat="41.76508710545719" lon="12.224084733367011"><ele>2.0</ele><time>2026-03-29T10:05:41.997Z</time></trkpt><trkpt lat="41.76500923719238" lon="12.224109003149362"><ele>1.9999999999999998</ele><time>2026-03-29T10:05:45.997Z</time></trkpt><trkpt lat="41.76494543954506" lon="12.224116325796867"><ele>2.0</ele><time>2026-03-29T10:05:47.997Z</time></trkpt><trkpt lat="41.76488560090122" lon="12.224146587045828"><ele>2.0</ele><time>2026-03-29T10:05:50Z</time></trkpt><trkpt lat="41.76479389391563" lon="12.224173444287029"><ele>2.0</ele><time>2026-03-29T10:05:53Z</time></trkpt><trkpt lat="41.7647291800972" lon="12.224188932005495"><ele>1.9999999999999998</ele><time>2026-03-29T10:05:55Z</time></trkpt><trkpt lat="41.764634857438175" lon="12.224213138189551"><ele>2.0</ele><time>2026-03-29T10:05:58Z</time></trkpt><trkpt lat="41.76456796873492" lon="12.224231236336214"><ele>2.0</ele><time>2026-03-29T10:06:00Z</time></trkpt><trkpt lat="41.76450184183999" lon="12.22424950824118"><ele>1.9999999999999998</ele><time>2026-03-29T10:06:02Z</time></trkpt><trkpt lat="41.76443311053799" lon="12.224269720048182"><ele>2.0</ele><time>2026-03-29T10:06:04Z</time></trkpt><trkpt lat="41.76436908537929" lon="12.22428900907115"><ele>2.0</ele><time>2026-03-29T10:06:06Z</time></trkpt><trkpt lat="41.764301502362706" lon="12.22431036303274"><ele>1.9999999999999998</ele><time>2026-03-29T10:06:08Z</time></trkpt><trkpt lat="41.76422832403428" lon="12.224335090745615"><ele>2.0</ele><time>2026-03-29T10:06:10Z</time></trkpt><trkpt lat="41.76415337698006" lon="12.224361593357807"><ele>2.0</ele><time>2026-03-29T10:06:12Z</time></trkpt><trkpt lat="41.764086656454516" lon="12.224385187007426"><ele>1.8333333333333333</ele><time>2026-03-29T10:06:14Z</time></trkpt><trkpt lat="41.764005925464055" lon="12.224428188331474"><ele>1.6666666666666665</ele><time>2026-03-29T10:06:17Z</time></trkpt><trkpt lat="41.7639271477955" lon="12.224468051390478"><ele>1.5</ele><time>2026-03-29T10:06:19Z</time></trkpt><trkpt lat="41.76384664020756" lon="12.224509717596872"><ele>1.3333333333333333</ele><time>2026-03-29T10:06:21Z</time></trkpt><trkpt lat="41.76376677073747" lon="12.224551995031806"><ele>1.1666666666666665</ele><time>2026-03-29T10:06:23Z</time></trkpt><trkpt lat="41.76368862016493" lon="12.22459342255464"><ele>1.0</ele><time>2026-03-29T10:06:25Z</time></trkpt><trkpt lat="41.7636096654243" lon="12.224635276376066"><ele>0.8333333333333333</ele><time>2026-03-29T10:06:27Z</time></trkpt><trkpt lat="41.76352816064096" lon="12.22467848196581"><ele>0.6666666666666666</ele><time>2026-03-29T10:06:28.999Z</time></trkpt><trkpt lat="41.763447470619205" lon="12.224721255652865"><ele>0.5</ele><time>2026-03-29T10:06:30.999Z</time></trkpt><trkpt lat="41.76337160660134" lon="12.22476117373596"><ele>0.3333333333333333</ele><time>2026-03-29T10:06:32.999Z</time></trkpt><trkpt lat="41.76330518700339" lon="12.224796063961778"><ele>0.16666666666666666</ele><time>2026-03-29T10:06:34.999Z</time></trkpt><trkpt lat="41.76323051718358" lon="12.224835829162105"><ele>0.0</ele><time>2026-03-29T10:06:36.999Z</time></trkpt><trkpt lat="41.76315210975836" lon="12.224878161553928"><ele>0.0</ele><time>2026-03-29T10:06:38.999Z</time></trkpt><trkpt lat="41.7630698868623" lon="12.224922055725845"><ele>0.0</ele><time>2026-03-29T10:06:40.999Z</time></trkpt><trkpt lat="41.76298809863543" lon="12.224965296104449"><ele>0.0</ele><time>2026-03-29T10:06:42.999Z</time></trkpt><trkpt lat="41.762904239227474" lon="12.225009631488364"><ele>0.0</ele><time>2026-03-29T10:06:44.999Z</time></trkpt><trkpt lat="41.762821493257256" lon="12.2250531872826"><ele>0.0</ele><time>2026-03-29T10:06:46.999Z</time></trkpt><trkpt lat="41.762745891878644" lon="12.225093652520108"><ele>0.0</ele><time>2026-03-29T10:06:48.999Z</time></trkpt><trkpt lat="41.76267546223988" lon="12.22513207987866"><ele>0.2</ele><time>2026-03-29T10:06:50.999Z</time></trkpt><trkpt lat="41.76261947491024" lon="12.225194061360467"><ele>0.4</ele><time>2026-03-29T10:06:56.999Z</time></trkpt><trkpt lat="41.76255871394722" lon="12.225219599486433"><ele>0.6000000000000001</ele><time>2026-03-29T10:06:59.999Z</time></trkpt><trkpt lat="41.76264065521114" lon="12.225492289513209"><ele>0.8</ele><time>2026-03-29T10:07:06.999Z</time></trkpt><trkpt lat="41.76266257008926" lon="12.22558287839052"><ele>1.0</ele><time>2026-03-29T10:07:08.998Z</time></trkpt><trkpt lat="41.76268877376512" lon="12.225690212624608"><ele>1.0</ele><time>2026-03-29T10:07:10.998Z</time></trkpt><trkpt lat="41.76272156328842" lon="12.22580606124093"><ele>1.0</ele><time>2026-03-29T10:07:12.998Z</time></trkpt><trkpt lat="41.76276063305779" lon="12.22593097548818"><ele>1.0</ele><time>2026-03-29T10:07:14.998Z</time></trkpt><trkpt lat="41.76279434848794" lon="12.22606216449754"><ele>1.0</ele><time>2026-03-29T10:07:16.998Z</time></trkpt><trkpt lat="41.76283032872412" lon="12.22618233219489"><ele>1.0</ele><time>2026-03-29T10:07:18.998Z</time></trkpt><trkpt lat="41.76287180783645" lon="12.22628934822724"><ele>1.0</ele><time>2026-03-29T10:07:20.998Z</time></trkpt><trkpt lat="41.76290986138716" lon="12.226426610406307"><ele>1.0</ele><time>2026-03-29T10:07:22.998Z</time></trkpt><trkpt lat="41.762948081450475" lon="12.226564131133541"><ele>1.0</ele><time>2026-03-29T10:07:24.998Z</time></trkpt><trkpt lat="41.76299049043624" lon="12.226689665980446"><ele>1.0</ele><time>2026-03-29T10:07:26.998Z</time></trkpt><trkpt lat="41.76302054895271" lon="12.226812878877928"><ele>1.0</ele><time>2026-03-29T10:07:28.998Z</time></trkpt><trkpt lat="41.76305819774559" lon="12.2269234430177"><ele>1.1666666666666665</ele><time>2026-03-29T10:07:30.998Z</time></trkpt><trkpt lat="41.7630869411201" lon="12.227017829704078"><ele>1.3333333333333333</ele><time>2026-03-29T10:07:32.998Z</time></trkpt><trkpt lat="41.76313191477402" lon="12.227115932626951"><ele>1.5</ele><time>2026-03-29T10:07:35.998Z</time></trkpt><trkpt lat="41.76315915706561" lon="12.227207697573958"><ele>1.6666666666666665</ele><time>2026-03-29T10:07:37.998Z</time></trkpt><trkpt lat="41.76317355086405" lon="12.227310936478442"><ele>1.8333333333333333</ele><time>2026-03-29T10:07:39.998Z</time></trkpt><trkpt lat="41.76320634103783" lon="12.22741074006784"><ele>2.0</ele><time>2026-03-29T10:07:41.998Z</time></trkpt><trkpt lat="41.76324362846364" lon="12.227501686113246"><ele>2.1666666666666665</ele><time>2026-03-29T10:07:43.998Z</time></trkpt><trkpt lat="41.76327462664418" lon="12.227589823534762"><ele>2.333333333333333</ele><time>2026-03-29T10:07:45.998Z</time></trkpt><trkpt lat="41.763296920999366" lon="12.227673150417093"><ele>2.5</ele><time>2026-03-29T10:07:47.997Z</time></trkpt><trkpt lat="41.763327971759374" lon="12.227787828345582"><ele>2.6666666666666665</ele><time>2026-03-29T10:07:50.997Z</time></trkpt><trkpt lat="41.76335209849559" lon="12.227895174382349"><ele>2.8333333333333335</ele><time>2026-03-29T10:07:53.997Z</time></trkpt><trkpt lat="41.76338550242837" lon="12.227983028142365"><ele>3.0</ele><time>2026-03-29T10:07:57Z</time></trkpt><trkpt lat="41.76334492787493" lon="12.228048391932607"><ele>3.0</ele><time>2026-03-29T10:18:23Z</time></trkpt><trkpt lat="41.76327499577362" lon="12.228069352507259"><ele>3.0</ele><time>2026-03-29T10:18:37Z</time></trkpt><trkpt lat="41.76321159054631" lon="12.228037532608916"><ele>3.0</ele><time>2026-03-29T10:18:54Z</time></trkpt><trkpt lat="41.763489107428704" lon="12.228272821556697"><ele>3.0</ele><time>2026-03-29T10:19:34.359Z</time></trkpt><trkpt lat="41.7637491030405" lon="12.227870193193143"><ele>3.0</ele><time>2026-03-29T10:19:57.311Z</time></trkpt><trkpt lat="41.76361145290475" lon="12.228192010591112"><ele>3.0</ele><time>2026-03-29T10:19:58.751Z</time></trkpt><trkpt lat="41.76335364403575" lon="12.228104394352657"><ele>3.0</ele><time>2026-03-29T10:20:00.012Z</time></trkpt><trkpt lat="41.76340889089922" lon="12.228152535447508"><ele>3.0</ele><time>2026-03-29T10:22:35Z</time></trkpt><trkpt lat="41.76343346993239" lon="12.228239655061707"><ele>3.0</ele><time>2026-03-29T10:22:45Z</time></trkpt><trkpt lat="41.76345542120227" lon="12.228324435799669"><ele>2.9999999999999996</ele><time>2026-03-29T10:22:54Z</time></trkpt><trkpt lat="41.76349030626364" lon="12.22840577816207"><ele>3.0</ele><time>2026-03-29T10:23:04Z</time></trkpt><trkpt lat="41.76352252346796" lon="12.228481306651098"><ele>3.0</ele><time>2026-03-29T10:23:14Z</time></trkpt><trkpt lat="41.76354864122364" lon="12.228559612846666"><ele>3.0</ele><time>2026-03-29T10:23:23Z</time></trkpt><trkpt lat="41.763571802266256" lon="12.228647117910276"><ele>3.0</ele><time>2026-03-29T10:23:31.999Z</time></trkpt><trkpt lat="41.76359823967963" lon="12.228733444956523"><ele>2.9999999999999996</ele><time>2026-03-29T10:23:43.999Z</time></trkpt><trkpt lat="41.76362137828571" lon="12.22882567603777"><ele>3.0</ele><time>2026-03-29T10:23:52.999Z</time></trkpt><trkpt lat="41.76365921410017" lon="12.228894676184257"><ele>2.9999999999999996</ele><time>2026-03-29T10:24:02.998Z</time></trkpt><trkpt lat="41.76368150779053" lon="12.228984176913524"><ele>3.0</ele><time>2026-03-29T10:24:11.998Z</time></trkpt><trkpt lat="41.76370349357184" lon="12.229063855557898"><ele>3.0</ele><time>2026-03-29T10:24:20.998Z</time></trkpt><trkpt lat="41.76372903918985" lon="12.22915467358848"><ele>3.0</ele><time>2026-03-29T10:24:33.998Z</time></trkpt><trkpt lat="41.763734818320316" lon="12.229068925353602"><ele>3.0</ele><time>2026-03-29T10:25:06Z</time></trkpt><trkpt lat="41.76370934140728" lon="12.228965140416296"><ele>2.9999999999999996</ele><time>2026-03-29T10:25:10Z</time></trkpt><trkpt lat="41.76369274252224" lon="12.228877941875327"><ele>3.0</ele><time>2026-03-29T10:25:13Z</time></trkpt><trkpt lat="41.763669549212466" lon="12.228791074104512"><ele>3.0</ele><time>2026-03-29T10:25:17Z</time></trkpt><trkpt lat="41.76359080413146" lon="12.228810335759075"><ele>3.0</ele><time>2026-03-29T10:25:20Z</time></trkpt><trkpt lat="41.7635124060702" lon="12.228843579526822"><ele>3.0</ele><time>2026-03-29T10:25:23Z</time></trkpt><trkpt lat="41.76343078222797" lon="12.228849772367342"><ele>3.0</ele><time>2026-03-29T10:25:26Z</time></trkpt><trkpt lat="41.763331375237" lon="12.228851580914643"><ele>3.0</ele><time>2026-03-29T10:25:28.999Z</time></trkpt><trkpt lat="41.76324262158263" lon="12.228881955199958"><ele>3.0</ele><time>2026-03-29T10:25:31.999Z</time></trkpt><trkpt lat="41.763177573464574" lon="12.22891160680992"><ele>3.1666666666666665</ele><time>2026-03-29T10:25:33.999Z</time></trkpt><trkpt lat="41.76311785179296" lon="12.228949737716874"><ele>3.333333333333333</ele><time>2026-03-29T10:25:35.999Z</time></trkpt><trkpt lat="41.76303634684172" lon="12.229002493501818"><ele>3.5</ele><time>2026-03-29T10:25:38.999Z</time></trkpt><trkpt lat="41.76295116991338" lon="12.229063754773488"><ele>3.6666666666666665</ele><time>2026-03-29T10:25:41.999Z</time></trkpt><trkpt lat="41.7628619370517" lon="12.229090301160035"><ele>3.833333333333333</ele><time>2026-03-29T10:25:44.999Z</time></trkpt><trkpt lat="41.76279786171285" lon="12.229127685288976"><ele>4.0</ele><time>2026-03-29T10:25:47.999Z</time></trkpt><trkpt lat="41.762726307188515" lon="12.229161493708654"><ele>3.6666666666666665</ele><time>2026-03-29T10:25:49.999Z</time></trkpt><trkpt lat="41.76263697253474" lon="12.229202166076947"><ele>3.333333333333333</ele><time>2026-03-29T10:25:52.999Z</time></trkpt><trkpt lat="41.76255819212489" lon="12.229251763443541"><ele>3.0</ele><time>2026-03-29T10:25:55.999Z</time></trkpt><trkpt lat="41.76250027923809" lon="12.229286484940907"><ele>2.6666666666666665</ele><time>2026-03-29T10:25:57.999Z</time></trkpt><trkpt lat="41.76240145447225" lon="12.229340795757235"><ele>2.333333333333333</ele><time>2026-03-29T10:25:59.999Z</time></trkpt><trkpt lat="41.76233417865103" lon="12.229370950651392"><ele>2.0</ele><time>2026-03-29T10:26:01.999Z</time></trkpt><trkpt lat="41.7622367631711" lon="12.229420503484157"><ele>1.9999999999999998</ele><time>2026-03-29T10:26:04.999Z</time></trkpt><trkpt lat="41.76217235166166" lon="12.229447157289531"><ele>2.0</ele><time>2026-03-29T10:26:06.999Z</time></trkpt><trkpt lat="41.76211654955831" lon="12.229495683995186"><ele>2.0</ele><time>2026-03-29T10:26:08.998Z</time></trkpt><trkpt lat="41.76202632938648" lon="12.229534921744223"><ele>2.0</ele><time>2026-03-29T10:26:11.998Z</time></trkpt><trkpt lat="41.761969882970384" lon="12.229575434579743"><ele>1.9999999999999998</ele><time>2026-03-29T10:26:13.998Z</time></trkpt><trkpt lat="41.76188238127661" lon="12.229626682853466"><ele>2.0</ele><time>2026-03-29T10:26:16.998Z</time></trkpt><trkpt lat="41.7618243038231" lon="12.229667704926841"><ele>2.0</ele><time>2026-03-29T10:26:18.998Z</time></trkpt><trkpt lat="41.761761907073335" lon="12.229692995573652"><ele>1.9999999999999998</ele><time>2026-03-29T10:26:20.998Z</time></trkpt><trkpt lat="41.76169579115013" lon="12.229716825495894"><ele>2.0</ele><time>2026-03-29T10:26:22.998Z</time></trkpt><trkpt lat="41.76163747349868" lon="12.229750380291966"><ele>2.0</ele><time>2026-03-29T10:26:24.998Z</time></trkpt><trkpt lat="41.7615753510753" lon="12.229781563588418"><ele>1.9999999999999998</ele><time>2026-03-29T10:26:26.998Z</time></trkpt><trkpt lat="41.761514702575006" lon="12.229820528747556"><ele>2.0</ele><time>2026-03-29T10:26:28.998Z</time></trkpt><trkpt lat="41.76142072307326" lon="12.229843731879019"><ele>2.0</ele><time>2026-03-29T10:26:31.998Z</time></trkpt><trkpt lat="41.76135601133571" lon="12.22987154242426"><ele>1.9999999999999998</ele><time>2026-03-29T10:26:33.998Z</time></trkpt><trkpt lat="41.7612673992259" lon="12.229913017197132"><ele>2.0</ele><time>2026-03-29T10:26:36.998Z</time></trkpt><trkpt lat="41.76119504032498" lon="12.22994392853033"><ele>2.0</ele><time>2026-03-29T10:26:38.998Z</time></trkpt><trkpt lat="41.761137897750885" lon="12.22998175887008"><ele>2.0</ele><time>2026-03-29T10:26:40.998Z</time></trkpt><trkpt lat="41.76107094096251" lon="12.230016264012702"><ele>1.9999999999999998</ele><time>2026-03-29T10:26:42.998Z</time></trkpt><trkpt lat="41.76100749090439" lon="12.230058344784426"><ele>2.0</ele><time>2026-03-29T10:26:45Z</time></trkpt><trkpt lat="41.760939511488345" lon="12.230095926164376"><ele>2.0</ele><time>2026-03-29T10:26:47Z</time></trkpt><trkpt lat="41.76087755488401" lon="12.230141349223862"><ele>1.9999999999999998</ele><time>2026-03-29T10:26:49Z</time></trkpt><trkpt lat="41.76080032033217" lon="12.230182352226956"><ele>2.0</ele><time>2026-03-29T10:26:52Z</time></trkpt><trkpt lat="41.76073125763857" lon="12.230206949160142"><ele>2.0</ele><time>2026-03-29T10:26:55Z</time></trkpt><trkpt lat="41.76067224461868" lon="12.230251820721163"><ele>1.9999999999999998</ele><time>2026-03-29T10:26:58Z</time></trkpt><trkpt lat="41.760604938512635" lon="12.23031337140052"><ele>2.0</ele><time>2026-03-29T10:27:03Z</time></trkpt><trkpt lat="41.760537464613215" lon="12.23032414273047"><ele>2.0</ele><time>2026-03-29T10:27:05Z</time></trkpt><trkpt lat="41.76047141850147" lon="12.230347577736623"><ele>2.0</ele><time>2026-03-29T10:27:07Z</time></trkpt><trkpt lat="41.7604127220599" lon="12.230396773723422"><ele>1.9999999999999998</ele><time>2026-03-29T10:27:09Z</time></trkpt><trkpt lat="41.76035250206994" lon="12.230448994677984"><ele>2.0</ele><time>2026-03-29T10:27:11Z</time></trkpt><trkpt lat="41.760286857070554" lon="12.230476344778443"><ele>2.0</ele><time>2026-03-29T10:27:13Z</time></trkpt><trkpt lat="41.76021599983474" lon="12.230518768385235"><ele>1.9999999999999998</ele><time>2026-03-29T10:27:15Z</time></trkpt><trkpt lat="41.76014938558422" lon="12.23055491709509"><ele>2.0</ele><time>2026-03-29T10:27:17Z</time></trkpt><trkpt lat="41.760094106177526" lon="12.230596264880969"><ele>2.0</ele><time>2026-03-29T10:27:19Z</time></trkpt><trkpt lat="41.7600106452659" lon="12.230618167420761"><ele>2.333333333333333</ele><time>2026-03-29T10:27:22Z</time></trkpt><trkpt lat="41.759950801175805" lon="12.230561206374828"><ele>2.6666666666666665</ele><time>2026-03-29T10:27:26Z</time></trkpt><trkpt lat="41.75988821359744" lon="12.23058674936458"><ele>3.0</ele><time>2026-03-29T10:27:38.999Z</time></trkpt><trkpt lat="41.75982488096583" lon="12.230709216817976"><ele>3.333333333333333</ele><time>2026-03-29T10:28:18.028Z</time></trkpt><trkpt lat="41.75987808184034" lon="12.230639993678455"><ele>3.6666666666666665</ele><time>2026-03-29T10:30:19.995Z</time></trkpt><trkpt lat="41.75994756202898" lon="12.23065601211995"><ele>4.0</ele><time>2026-03-29T10:30:39Z</time></trkpt><trkpt lat="41.76002403334846" lon="12.230638914655376"><ele>3.9999999999999996</ele><time>2026-03-29T10:30:42Z</time></trkpt><trkpt lat="41.760103005500106" lon="12.230615151103121"><ele>4.0</ele><time>2026-03-29T10:30:46Z</time></trkpt><trkpt lat="41.76016591799296" lon="12.230590929515493"><ele>4.0</ele><time>2026-03-29T10:30:49Z</time></trkpt><trkpt lat="41.76023989506123" lon="12.230545388297053"><ele>4.0</ele><time>2026-03-29T10:30:52Z</time></trkpt><trkpt lat="41.76033380807601" lon="12.230531761632205"><ele>3.9999999999999996</ele><time>2026-03-29T10:30:55Z</time></trkpt><trkpt lat="41.76040191127281" lon="12.230517507652104"><ele>4.0</ele><time>2026-03-29T10:30:57Z</time></trkpt><trkpt lat="41.760484063213156" lon="12.230492793733998"><ele>3.6666666666666665</ele><time>2026-03-29T10:30:59Z</time></trkpt><trkpt lat="41.76058331554884" lon="12.230454709451736"><ele>3.333333333333333</ele><time>2026-03-29T10:31:02Z</time></trkpt><trkpt lat="41.76064751601695" lon="12.23041353167452"><ele>3.0</ele><time>2026-03-29T10:31:04Z</time></trkpt><trkpt lat="41.76071579860085" lon="12.230373921392863"><ele>2.6666666666666665</ele><time>2026-03-29T10:31:06Z</time></trkpt><trkpt lat="41.76078062112228" lon="12.230335400710816"><ele>2.333333333333333</ele><time>2026-03-29T10:31:08Z</time></trkpt><trkpt lat="41.76084424370923" lon="12.230302859881478"><ele>2.0</ele><time>2026-03-29T10:31:10Z</time></trkpt><trkpt lat="41.760911335410434" lon="12.230272452242763"><ele>2.0</ele><time>2026-03-29T10:31:12Z</time></trkpt><trkpt lat="41.76097621628642" lon="12.230227744558626"><ele>1.9999999999999998</ele><time>2026-03-29T10:31:14Z</time></trkpt><trkpt lat="41.76103835191935" lon="12.2301965994371"><ele>2.0</ele><time>2026-03-29T10:31:16Z</time></trkpt><trkpt lat="41.761098836444646" lon="12.23016201437192"><ele>2.0</ele><time>2026-03-29T10:31:17.999Z</time></trkpt><trkpt lat="41.76116533050704" lon="12.230125799967203"><ele>1.9999999999999998</ele><time>2026-03-29T10:31:19.999Z</time></trkpt><trkpt lat="41.76123714153919" lon="12.230094690831768"><ele>2.0</ele><time>2026-03-29T10:31:21.999Z</time></trkpt><trkpt lat="41.761304504742654" lon="12.230051970343526"><ele>2.0</ele><time>2026-03-29T10:31:23.999Z</time></trkpt><trkpt lat="41.76137106531867" lon="12.23001548068459"><ele>2.0</ele><time>2026-03-29T10:31:25.999Z</time></trkpt><trkpt lat="41.76143799957359" lon="12.229977271773036"><ele>1.9999999999999998</ele><time>2026-03-29T10:31:27.999Z</time></trkpt><trkpt lat="41.761505843184416" lon="12.229933476584629"><ele>2.0</ele><time>2026-03-29T10:31:29.999Z</time></trkpt><trkpt lat="41.76157661184291" lon="12.229895922162704"><ele>2.0</ele><time>2026-03-29T10:31:31.999Z</time></trkpt><trkpt lat="41.761639925128975" lon="12.229861734437767"><ele>1.9999999999999998</ele><time>2026-03-29T10:31:33.999Z</time></trkpt><trkpt lat="41.76170254406948" lon="12.229825870888131"><ele>2.0</ele><time>2026-03-29T10:31:35.999Z</time></trkpt><trkpt lat="41.76176779089285" lon="12.22979427173837"><ele>2.0</ele><time>2026-03-29T10:31:37.999Z</time></trkpt><trkpt lat="41.76183293071246" lon="12.229758927197446"><ele>2.0</ele><time>2026-03-29T10:31:39.999Z</time></trkpt><trkpt lat="41.76189604894883" lon="12.229725337669704"><ele>1.9999999999999998</ele><time>2026-03-29T10:31:41.999Z</time></trkpt><trkpt lat="41.76196300181314" lon="12.229689286238894"><ele>2.0</ele><time>2026-03-29T10:31:43.999Z</time></trkpt><trkpt lat="41.76203093940722" lon="12.22965498975696"><ele>2.0</ele><time>2026-03-29T10:31:45.999Z</time></trkpt><trkpt lat="41.76210078047721" lon="12.22961352320699"><ele>1.9999999999999998</ele><time>2026-03-29T10:31:47.999Z</time></trkpt><trkpt lat="41.762169394798256" lon="12.22957500587373"><ele>2.0</ele><time>2026-03-29T10:31:49.999Z</time></trkpt><trkpt lat="41.7622409162374" lon="12.229548829692932"><ele>2.0</ele><time>2026-03-29T10:31:51.999Z</time></trkpt><trkpt lat="41.76231574356945" lon="12.229521086126299"><ele>1.9999999999999998</ele><time>2026-03-29T10:31:53.999Z</time></trkpt><trkpt lat="41.7623846622323" lon="12.229491420838965"><ele>2.0</ele><time>2026-03-29T10:31:55.998Z</time></trkpt><trkpt lat="41.76245843833757" lon="12.229456596181665"><ele>2.0</ele><time>2026-03-29T10:31:57.998Z</time></trkpt><trkpt lat="41.76252145839736" lon="12.229412798930458"><ele>2.0</ele><time>2026-03-29T10:31:59.998Z</time></trkpt><trkpt lat="41.76259312694141" lon="12.22936627574037"><ele>1.9999999999999998</ele><time>2026-03-29T10:32:01.998Z</time></trkpt><trkpt lat="41.76266645882225" lon="12.229325664512777"><ele>2.0</ele><time>2026-03-29T10:32:03.998Z</time></trkpt><trkpt lat="41.76274362322144" lon="12.229291946629058"><ele>1.9999999999999998</ele><time>2026-03-29T10:32:05.998Z</time></trkpt><trkpt lat="41.762812917021606" lon="12.229248987096115"><ele>2.0</ele><time>2026-03-29T10:32:07.998Z</time></trkpt><trkpt lat="41.7628863390352" lon="12.229208096765587"><ele>2.0</ele><time>2026-03-29T10:32:09.998Z</time></trkpt><trkpt lat="41.76296026174234" lon="12.229171177029041"><ele>2.0</ele><time>2026-03-29T10:32:11.998Z</time></trkpt><trkpt lat="41.7630335840424" lon="12.229126663715181"><ele>1.9999999999999998</ele><time>2026-03-29T10:32:13.998Z</time></trkpt><trkpt lat="41.76310786201326" lon="12.229084662329191"><ele>2.0</ele><time>2026-03-29T10:32:15.998Z</time></trkpt><trkpt lat="41.763188960688474" lon="12.229049427502709"><ele>1.9999999999999998</ele><time>2026-03-29T10:32:17.998Z</time></trkpt><trkpt lat="41.763254307155584" lon="12.229015015122087"><ele>2.0</ele><time>2026-03-29T10:32:19.998Z</time></trkpt><trkpt lat="41.76332743802471" lon="12.228964511845522"><ele>2.0</ele><time>2026-03-29T10:32:21.998Z</time></trkpt><trkpt lat="41.76340054791282" lon="12.22892989798212"><ele>2.0</ele><time>2026-03-29T10:32:23.998Z</time></trkpt><trkpt lat="41.76346326868079" lon="12.228896005148334"><ele>1.9999999999999998</ele><time>2026-03-29T10:32:25.998Z</time></trkpt><trkpt lat="41.76352965242806" lon="12.228853784993456"><ele>2.0</ele><time>2026-03-29T10:32:27.998Z</time></trkpt><trkpt lat="41.76361880254842" lon="12.2288262991298"><ele>2.1666666666666665</ele><time>2026-03-29T10:32:31Z</time></trkpt><trkpt lat="41.7636562145533" lon="12.228916173266322"><ele>2.333333333333333</ele><time>2026-03-29T10:32:34Z</time></trkpt><trkpt lat="41.76368318963633" lon="12.229004386706851"><ele>2.5</ele><time>2026-03-29T10:32:37Z</time></trkpt><trkpt lat="41.76371443928846" lon="12.229091629871812"><ele>2.6666666666666665</ele><time>2026-03-29T10:32:40Z</time></trkpt><trkpt lat="41.763646233652295" lon="12.229122715394048"><ele>2.8333333333333335</ele><time>2026-03-29T10:33:41.999Z</time></trkpt><trkpt lat="41.763699316628085" lon="12.229197223576639"><ele>3.0</ele><time>2026-03-29T10:34:03.998Z</time></trkpt><trkpt lat="41.763622845467324" lon="12.229139665381458"><ele>3.0</ele><time>2026-03-29T10:34:10.998Z</time></trkpt><trkpt lat="41.76357165645852" lon="12.229067793722168"><ele>3.0</ele><time>2026-03-29T10:34:14.998Z</time></trkpt><trkpt lat="41.7636322063649" lon="12.22911826168577"><ele>3.0</ele><time>2026-03-29T10:34:23.998Z</time></trkpt><trkpt lat="41.763723022001535" lon="12.229137362953747"><ele>3.0</ele><time>2026-03-29T10:34:25.998Z</time></trkpt><trkpt lat="41.766643292598964" lon="12.229004366561663"><ele>2.8</ele><time>2026-03-29T10:35:06Z</time></trkpt><trkpt lat="41.76675667788307" lon="12.228980883886793"><ele>2.5999999999999996</ele><time>2026-03-29T10:35:07Z</time></trkpt><trkpt lat="41.76686738028442" lon="12.228947983909057"><ele>2.4000000000000004</ele><time>2026-03-29T10:35:08Z</time></trkpt><trkpt lat="41.766969908913715" lon="12.22892599696501"><ele>2.2</ele><time>2026-03-29T10:35:08.999Z</time></trkpt><trkpt lat="41.76708249252054" lon="12.228910224162677"><ele>2.0</ele><time>2026-03-29T10:35:09.999Z</time></trkpt><trkpt lat="41.76720212278143" lon="12.228904255697909"><ele>2.0</ele><time>2026-03-29T10:35:10.999Z</time></trkpt><trkpt lat="41.76731820114124" lon="12.228888874917912"><ele>2.0</ele><time>2026-03-29T10:35:11.999Z</time></trkpt><trkpt lat="41.76743249082408" lon="12.228874206361612"><ele>2.0</ele><time>2026-03-29T10:35:12.999Z</time></trkpt><trkpt lat="41.767539961240374" lon="12.228857363294455"><ele>2.0</ele><time>2026-03-29T10:35:13.999Z</time></trkpt><trkpt lat="41.76368510193963" lon="12.229209020731536"><ele>3.0</ele><time>2026-03-29T10:35:26.998Z</time></trkpt><trkpt lat="41.76360617674514" lon="12.229027767006334"><ele>3.0</ele><time>2026-03-29T10:35:27.998Z</time></trkpt></trkseg></trk></gpx>